Time,TemperatureF,DewpointF,PressureIn,WindDirection,WindDirectionDegrees,WindSpeedMPH,WindSpeedGustMPH,Humidity,HourlyPrecipIn,Conditions,Clouds,dailyrainin,SoftwareType,DateUTC
2013-06-25 00:00:00,73.4,70.9,30.16,WSW,256,1.0,3.0,92,0.00,,---,0.02,VWS V14.01,2013-06-25 04:00:00,
2013-06-25 00:01:00,73.4,70.9,30.17,WSW,246,2.0,3.0,92,0.00,,---,0.00,VWS V14.01,2013-06-25 04:01:00,
2013-06-25 00:02:00,73.4,70.9,30.17,West,263,1.0,2.0,92,0.00,,---,0.00,VWS V14.01,2013-06-25 04:02:00,
2013-06-25 00:03:00,73.3,70.8,30.17,West,262,0.0,1.0,92,0.00,,---,0.00,VWS V14.01,2013-06-25 04:03:00,
2013-06-25 00:04:00,73.3,70.8,30.17,West,262,1.0,1.0,92,0.00,,---,0.00,VWS V14.01,2013-06-25 04:04:00,
2013-06-25 00:05:00,73.3,70.8,30.17,WNW,286,2.0,2.0,92,0.00,,---,0.00,VWS V14.01,2013-06-25 04:05:00,
2013-06-25 00:06:00,73.3,70.8,30.17,WSW,240,1.0,2.0,92,0.00,,---,0.00,VWS V14.01,2013-06-25 04:06:00,
2013-06-25 00:07:00,73.3,70.8,30.17,WSW,242,0.0,2.0,92,0.00,,---,0.00,VWS V14.01,2013-06-25 04:07:00,
2013-06-25 00:08:00,73.3,70.8,30.17,West,267,1.0,1.0,92,0.00,,---,0.00,VWS V14.01,2013-06-25 04:08:00,
2013-06-25 00:09:00,73.2,70.7,30.16,West,267,1.0,1.0,92,0.00,,---,0.00,VWS V14.01,2013-06-25 04:09:00,
2013-06-25 00:10:00,73.2,70.7,30.16,WSW,245,1.0,2.0,92,0.00,,---,0.00,VWS V14.01,2013-06-25 04:10:00,
2013-06-25 00:11:00,73.2,70.7,30.16,WSW,245,0.0,0.0,92,0.00,,---,0.00,VWS V14.01,2013-06-25 04:11:00,
2013-06-25 00:12:00,73.2,70.7,30.16,WSW,245,0.0,0.0,92,0.00,,---,0.00,VWS V14.01,2013-06-25 04:12:00,
2013-06-25 00:13:00,73.1,70.6,30.16,WSW,245,0.0,1.0,92,0.00,,---,0.00,VWS V14.01,2013-06-25 04:13:00,
2013-06-25 00:14:00,73.1,70.6,30.16,WSW,245,0.0,1.0,92,0.00,,---,0.00,VWS V14.01,2013-06-25 04:14:00,
2013-06-25 00:15:00,73.1,70.6,30.16,WSW,252,1.0,2.0,92,0.00,,---,0.00,VWS V14.01,2013-06-25 04:15:00,
2013-06-25 00:16:00,73.0,70.5,30.16,West,267,1.0,1.0,92,0.00,,---,0.00,VWS V14.01,2013-06-25 04:16:00,
2013-06-25 00:17:00,73.0,70.5,30.16,WSW,244,1.0,3.0,92,0.00,,---,0.00,VWS V14.01,2013-06-25 04:17:00,
2013-06-25 00:18:00,73.0,70.5,30.16,West,259,1.0,1.0,92,0.00,,---,0.00,VWS V14.01,2013-06-25 04:18:00,
2013-06-25 00:19:00,73.0,70.5,30.16,West,259,2.0,2.0,92,0.00,,---,0.00,VWS V14.01,2013-06-25 04:19:00,
2013-06-25 00:20:00,72.9,70.4,30.16,WNW,286,2.0,4.0,92,0.00,,---,0.00,VWS V14.01,2013-06-25 04:20:00,
2013-06-25 00:21:00,72.9,70.4,30.16,West,267,1.0,1.0,92,0.00,,---,0.00,VWS V14.01,2013-06-25 04:21:00,
2013-06-25 00:22:00,72.9,70.4,30.16,West,267,0.0,1.0,92,0.00,,---,0.00,VWS V14.01,2013-06-25 04:22:00,
2013-06-25 00:23:00,72.9,70.4,30.16,West,272,0.0,1.0,92,0.00,,---,0.00,VWS V14.01,2013-06-25 04:23:00,
2013-06-25 00:24:00,72.9,70.4,30.16,South,182,0.0,1.0,92,0.00,,---,0.00,VWS V14.01,2013-06-25 04:24:00,
2013-06-25 00:25:00,72.9,70.4,30.16,SSW,195,0.0,0.0,92,0.00,,---,0.00,VWS V14.01,2013-06-25 04:25:00,
2013-06-25 00:26:00,72.8,70.3,30.16,West,265,0.0,0.0,92,0.00,,---,0.00,VWS V14.01,2013-06-25 04:26:00,
2013-06-25 00:27:00,72.8,70.3,30.16,West,265,0.0,0.0,92,0.00,,---,0.00,VWS V14.01,2013-06-25 04:27:00,
2013-06-25 00:28:00,72.8,70.0,30.16,West,260,0.0,0.0,91,0.00,,---,0.00,VWS V14.01,2013-06-25 04:28:00,
2013-06-25 00:29:00,72.7,69.9,30.16,WSW,242,2.0,2.0,91,0.00,,---,0.00,VWS V14.01,2013-06-25 04:29:00,
2013-06-25 00:30:00,72.7,69.9,30.16,SW,227,1.0,3.0,91,0.00,,---,0.00,VWS V14.01,2013-06-25 04:30:00,
2013-06-25 00:31:00,72.7,69.9,30.16,West,277,1.0,1.0,91,0.00,,---,0.00,VWS V14.01,2013-06-25 04:31:00,
2013-06-25 00:32:00,72.6,69.8,30.16,West,277,0.0,1.0,91,0.00,,---,0.00,VWS V14.01,2013-06-25 04:32:00,
2013-06-25 00:33:00,72.6,69.8,30.16,West,277,0.0,0.0,91,0.00,,---,0.00,VWS V14.01,2013-06-25 04:33:00,
2013-06-25 00:34:00,72.6,69.8,30.15,SW,232,2.0,5.0,91,0.00,,---,0.00,VWS V14.01,2013-06-25 04:34:00,
2013-06-25 00:35:00,72.6,69.5,30.16,WSW,250,0.0,2.0,90,0.00,,---,0.00,VWS V14.01,2013-06-25 04:35:00,
2013-06-25 00:36:00,72.6,69.8,30.15,WSW,250,0.0,0.0,91,0.00,,---,0.00,VWS V14.01,2013-06-25 04:36:00,
2013-06-25 00:37:00,72.6,69.5,30.15,WSW,250,0.0,0.0,90,0.00,,---,0.00,VWS V14.01,2013-06-25 04:37:00,
2013-06-25 00:38:00,72.6,69.5,30.15,WSW,250,0.0,0.0,90,0.00,,---,0.00,VWS V14.01,2013-06-25 04:38:00,
2013-06-25 00:39:00,72.6,69.5,30.15,WSW,249,0.0,2.0,90,0.00,,---,0.00,VWS V14.01,2013-06-25 04:39:00,
2013-06-25 00:40:00,72.5,69.4,30.15,South,188,1.0,2.0,90,0.00,,---,0.00,VWS V14.01,2013-06-25 04:40:00,
2013-06-25 00:41:00,72.6,69.5,30.15,SW,225,0.0,0.0,90,0.00,,---,0.00,VWS V14.01,2013-06-25 04:41:00,
2013-06-25 00:42:00,72.5,69.4,30.15,SW,224,2.0,3.0,90,0.00,,---,0.00,VWS V14.01,2013-06-25 04:42:00,
2013-06-25 00:43:00,72.5,69.4,30.15,WSW,245,1.0,2.0,90,0.00,,---,0.00,VWS V14.01,2013-06-25 04:43:00,
2013-06-25 00:44:00,72.5,69.4,30.15,WSW,245,1.0,1.0,90,0.00,,---,0.00,VWS V14.01,2013-06-25 04:44:00,
2013-06-25 00:45:00,72.5,69.4,30.15,WSW,246,1.0,1.0,90,0.00,,---,0.00,VWS V14.01,2013-06-25 04:45:00,
2013-06-25 00:46:00,72.5,69.4,30.15,WSW,251,1.0,1.0,90,0.00,,---,0.00,VWS V14.01,2013-06-25 04:46:00,
2013-06-25 00:47:00,72.5,69.4,30.15,SW,221,1.0,1.0,90,0.00,,---,0.00,VWS V14.01,2013-06-25 04:47:00,
2013-06-25 00:48:00,72.4,69.3,30.15,West,260,1.0,1.0,90,0.00,,---,0.00,VWS V14.01,2013-06-25 04:48:00,
2013-06-25 00:49:00,72.4,69.3,30.15,SSE,160,0.0,2.0,90,0.00,,---,0.00,VWS V14.01,2013-06-25 04:49:00,
2013-06-25 00:50:00,72.4,69.3,30.15,South,169,2.0,2.0,90,0.00,,---,0.00,VWS V14.01,2013-06-25 04:50:00,
2013-06-25 00:51:00,72.4,69.3,30.14,South,186,0.0,0.0,90,0.00,,---,0.00,VWS V14.01,2013-06-25 04:51:00,
2013-06-25 00:52:00,72.4,69.3,30.14,South,186,2.0,2.0,90,0.00,,---,0.00,VWS V14.01,2013-06-25 04:52:00,
2013-06-25 00:53:00,72.4,69.3,30.14,SW,226,2.0,2.0,90,0.00,,---,0.00,VWS V14.01,2013-06-25 04:53:00,
2013-06-25 00:54:00,72.4,69.3,30.14,SW,229,1.0,2.0,90,0.00,,---,0.00,VWS V14.01,2013-06-25 04:54:00,
2013-06-25 00:55:00,72.4,69.3,30.14,SW,229,0.0,1.0,90,0.00,,---,0.00,VWS V14.01,2013-06-25 04:55:00,
2013-06-25 00:56:00,72.4,69.3,30.15,SW,229,1.0,1.0,90,0.00,,---,0.00,VWS V14.01,2013-06-25 04:56:00,
2013-06-25 00:57:00,72.4,69.3,30.15,SW,227,0.0,1.0,90,0.00,,---,0.00,VWS V14.01,2013-06-25 04:57:00,
2013-06-25 00:58:00,72.4,69.3,30.15,SW,227,0.0,0.0,90,0.00,,---,0.00,VWS V14.01,2013-06-25 04:58:00,
2013-06-25 00:59:00,72.3,69.2,30.15,SW,227,1.0,1.0,90,0.00,,---,0.00,VWS V14.01,2013-06-25 04:59:00,
2013-06-25 01:00:00,72.3,69.2,30.15,SW,233,1.0,1.0,90,0.00,,---,0.00,VWS V14.01,2013-06-25 05:00:00,
2013-06-25 01:01:00,72.3,69.2,30.15,West,269,0.0,0.0,90,0.00,,---,0.00,VWS V14.01,2013-06-25 05:01:00,
2013-06-25 01:02:00,72.3,69.2,30.15,West,269,1.0,1.0,90,0.00,,---,0.00,VWS V14.01,2013-06-25 05:02:00,
2013-06-25 01:03:00,72.3,69.2,30.15,West,269,1.0,1.0,90,0.00,,---,0.00,VWS V14.01,2013-06-25 05:03:00,
2013-06-25 01:04:00,72.2,69.1,30.15,West,269,1.0,1.0,90,0.00,,---,0.00,VWS V14.01,2013-06-25 05:04:00,
2013-06-25 01:05:00,72.2,69.1,30.14,SW,219,1.0,2.0,90,0.00,,---,0.00,VWS V14.01,2013-06-25 05:05:00,
2013-06-25 01:06:00,72.2,69.1,30.15,SW,219,1.0,1.0,90,0.00,,---,0.00,VWS V14.01,2013-06-25 05:06:00,
2013-06-25 01:07:00,72.2,69.1,30.15,SW,221,0.0,1.0,90,0.00,,---,0.00,VWS V14.01,2013-06-25 05:07:00,
2013-06-25 01:08:00,72.1,69.0,30.15,SW,221,1.0,1.0,90,0.00,,---,0.00,VWS V14.01,2013-06-25 05:08:00,
2013-06-25 01:09:00,72.1,69.3,30.15,SW,221,0.0,1.0,91,0.00,,---,0.00,VWS V14.01,2013-06-25 05:09:00,
2013-06-25 01:10:00,72.1,69.0,30.15,SW,221,0.0,0.0,90,0.00,,---,0.00,VWS V14.01,2013-06-25 05:10:00,
2013-06-25 01:11:00,72.1,69.3,30.15,SW,221,0.0,0.0,91,0.00,,---,0.00,VWS V14.01,2013-06-25 05:11:00,
2013-06-25 01:12:00,72.0,69.2,30.15,SW,221,0.0,0.0,91,0.00,,---,0.00,VWS V14.01,2013-06-25 05:12:00,
2013-06-25 01:13:00,72.0,69.2,30.15,WSW,238,0.0,1.0,91,0.00,,---,0.00,VWS V14.01,2013-06-25 05:13:00,
2013-06-25 01:14:00,72.0,69.2,30.15,WSW,238,1.0,1.0,91,0.00,,---,0.00,VWS V14.01,2013-06-25 05:14:00,
2013-06-25 01:15:00,72.0,69.2,30.15,WSW,238,1.0,1.0,91,0.00,,---,0.00,VWS V14.01,2013-06-25 05:15:00,
2013-06-25 01:16:00,72.0,69.2,30.15,WSW,238,0.0,1.0,91,0.00,,---,0.00,VWS V14.01,2013-06-25 05:16:00,
2013-06-25 01:17:00,72.0,69.2,30.15,WSW,238,0.0,1.0,91,0.00,,---,0.00,VWS V14.01,2013-06-25 05:17:00,
2013-06-25 01:18:00,72.0,69.2,30.15,WSW,238,0.0,0.0,91,0.00,,---,0.00,VWS V14.01,2013-06-25 05:18:00,
2013-06-25 01:19:00,72.0,69.2,30.15,WSW,238,1.0,1.0,91,0.00,,---,0.00,VWS V14.01,2013-06-25 05:19:00,
2013-06-25 01:20:00,72.0,69.2,30.15,WSW,238,1.0,1.0,91,0.00,,---,0.00,VWS V14.01,2013-06-25 05:20:00,
2013-06-25 01:21:00,71.9,69.1,30.15,WSW,238,0.0,0.0,91,0.00,,---,0.00,VWS V14.01,2013-06-25 05:21:00,
2013-06-25 01:22:00,71.9,69.1,30.15,WSW,238,0.0,0.0,91,0.00,,---,0.00,VWS V14.01,2013-06-25 05:22:00,
2013-06-25 01:23:00,71.8,69.0,30.15,WSW,238,0.0,0.0,91,0.00,,---,0.00,VWS V14.01,2013-06-25 05:23:00,
2013-06-25 01:24:00,71.8,69.0,30.15,WSW,238,0.0,0.0,91,0.00,,---,0.00,VWS V14.01,2013-06-25 05:24:00,
2013-06-25 01:25:00,71.8,69.0,30.15,SW,222,1.0,1.0,91,0.00,,---,0.00,VWS V14.01,2013-06-25 05:25:00,
2013-06-25 01:26:00,71.7,68.9,30.15,SSW,210,1.0,1.0,91,0.00,,---,0.00,VWS V14.01,2013-06-25 05:26:00,
2013-06-25 01:27:00,71.7,68.9,30.15,SW,218,1.0,2.0,91,0.00,,---,0.00,VWS V14.01,2013-06-25 05:27:00,
2013-06-25 01:28:00,71.7,68.9,30.15,WSW,245,1.0,4.0,91,0.00,,---,0.00,VWS V14.01,2013-06-25 05:28:00,
2013-06-25 01:29:00,71.6,68.8,30.15,WSW,244,0.0,1.0,91,0.00,,---,0.00,VWS V14.01,2013-06-25 05:29:00,
2013-06-25 01:30:00,71.6,68.8,30.15,SW,219,1.0,3.0,91,0.00,,---,0.00,VWS V14.01,2013-06-25 05:30:00,
2013-06-25 01:31:00,71.6,68.8,30.15,SW,219,1.0,1.0,91,0.00,,---,0.00,VWS V14.01,2013-06-25 05:31:00,
2013-06-25 01:32:00,71.6,68.8,30.15,SSW,199,2.0,2.0,91,0.00,,---,0.00,VWS V14.01,2013-06-25 05:32:00,
2013-06-25 01:33:00,71.6,68.8,30.15,SW,221,0.0,2.0,91,0.00,,---,0.00,VWS V14.01,2013-06-25 05:33:00,
2013-06-25 01:34:00,71.6,68.8,30.15,SSW,213,2.0,2.0,91,0.00,,---,0.00,VWS V14.01,2013-06-25 05:34:00,
2013-06-25 01:35:00,71.6,68.8,30.15,SW,230,1.0,2.0,91,0.00,,---,0.00,VWS V14.01,2013-06-25 05:35:00,
2013-06-25 01:36:00,71.5,68.7,30.15,WSW,256,0.0,0.0,91,0.00,,---,0.00,VWS V14.01,2013-06-25 05:36:00,
2013-06-25 01:37:00,71.5,68.7,30.15,WSW,254,1.0,1.0,91,0.00,,---,0.00,VWS V14.01,2013-06-25 05:37:00,
2013-06-25 01:38:00,71.5,68.7,30.15,SW,217,2.0,2.0,91,0.00,,---,0.00,VWS V14.01,2013-06-25 05:38:00,
2013-06-25 01:39:00,71.5,68.7,30.15,SW,219,0.0,2.0,91,0.00,,---,0.00,VWS V14.01,2013-06-25 05:39:00,
2013-06-25 01:40:00,71.5,68.7,30.14,WSW,247,2.0,2.0,91,0.00,,---,0.00,VWS V14.01,2013-06-25 05:40:00,
2013-06-25 01:41:00,71.5,68.7,30.14,SW,217,0.0,2.0,91,0.00,,---,0.00,VWS V14.01,2013-06-25 05:41:00,
2013-06-25 01:42:00,71.5,68.7,30.14,SW,217,0.0,0.0,91,0.00,,---,0.00,VWS V14.01,2013-06-25 05:42:00,
2013-06-25 01:43:00,71.4,68.6,30.15,SW,217,0.0,0.0,91,0.00,,---,0.00,VWS V14.01,2013-06-25 05:43:00,
2013-06-25 01:44:00,71.4,68.6,30.14,WSW,249,0.0,0.0,91,0.00,,---,0.00,VWS V14.01,2013-06-25 05:44:00,
2013-06-25 01:45:00,71.4,68.6,30.15,WSW,250,0.0,1.0,91,0.00,,---,0.00,VWS V14.01,2013-06-25 05:45:00,
2013-06-25 01:46:00,71.4,68.6,30.15,WSW,248,2.0,2.0,91,0.00,,---,0.00,VWS V14.01,2013-06-25 05:46:00,
2013-06-25 01:47:00,71.4,68.6,30.15,SSW,205,3.0,3.0,91,0.00,,---,0.00,VWS V14.01,2013-06-25 05:47:00,
2013-06-25 01:48:00,71.4,68.6,30.15,SW,217,2.0,3.0,91,0.00,,---,0.00,VWS V14.01,2013-06-25 05:48:00,
2013-06-25 01:49:00,71.4,68.6,30.15,SSW,211,2.0,3.0,91,0.00,,---,0.00,VWS V14.01,2013-06-25 05:49:00,
2013-06-25 01:50:00,71.3,68.5,30.15,SW,236,1.0,2.0,91,0.00,,---,0.00,VWS V14.01,2013-06-25 05:50:00,
2013-06-25 01:51:00,71.3,68.5,30.15,WSW,241,1.0,1.0,91,0.00,,---,0.00,VWS V14.01,2013-06-25 05:51:00,
2013-06-25 01:52:00,71.3,68.5,30.15,SSW,211,1.0,5.0,91,0.00,,---,0.00,VWS V14.01,2013-06-25 05:52:00,
2013-06-25 01:53:00,71.3,68.5,30.15,SSW,211,1.0,1.0,91,0.00,,---,0.00,VWS V14.01,2013-06-25 05:53:00,
2013-06-25 01:54:00,71.3,68.5,30.15,SW,223,3.0,4.0,91,0.00,,---,0.00,VWS V14.01,2013-06-25 05:54:00,
2013-06-25 01:55:00,71.2,68.4,30.15,WSW,252,3.0,4.0,91,0.00,,---,0.00,VWS V14.01,2013-06-25 05:55:00,
2013-06-25 01:56:00,71.3,68.5,30.15,West,264,1.0,2.0,91,0.00,,---,0.00,VWS V14.01,2013-06-25 05:56:00,
2013-06-25 01:57:00,71.2,68.4,30.15,WSW,252,1.0,2.0,91,0.00,,---,0.00,VWS V14.01,2013-06-25 05:57:00,
2013-06-25 01:58:00,71.3,68.5,30.15,WSW,245,1.0,1.0,91,0.00,,---,0.00,VWS V14.01,2013-06-25 05:58:00,
2013-06-25 01:59:00,71.2,68.4,30.15,WSW,244,2.0,3.0,91,0.00,,---,0.00,VWS V14.01,2013-06-25 05:59:00,
2013-06-25 02:00:00,71.2,68.4,30.15,WSW,242,0.0,2.0,91,0.00,,---,0.00,VWS V14.01,2013-06-25 06:00:00,
2013-06-25 02:01:00,71.2,68.4,30.15,WSW,245,1.0,1.0,91,0.00,,---,0.00,VWS V14.01,2013-06-25 06:01:00,
2013-06-25 02:02:00,71.2,68.4,30.15,West,273,3.0,3.0,91,0.00,,---,0.00,VWS V14.01,2013-06-25 06:02:00,
2013-06-25 02:03:00,71.2,68.4,30.15,WNW,288,2.0,3.0,91,0.00,,---,0.00,VWS V14.01,2013-06-25 06:03:00,
2013-06-25 02:04:00,71.2,68.4,30.16,West,269,1.0,2.0,91,0.00,,---,0.00,VWS V14.01,2013-06-25 06:04:00,
2013-06-25 02:05:00,71.2,68.4,30.16,SW,219,1.0,2.0,91,0.00,,---,0.00,VWS V14.01,2013-06-25 06:05:00,
2013-06-25 02:06:00,71.2,68.4,30.16,SW,219,1.0,1.0,91,0.00,,---,0.00,VWS V14.01,2013-06-25 06:06:00,
2013-06-25 02:07:00,71.1,68.3,30.16,SW,223,1.0,2.0,91,0.00,,---,0.00,VWS V14.01,2013-06-25 06:07:00,
2013-06-25 02:08:00,71.2,68.4,30.16,SSW,206,2.0,3.0,91,0.00,,---,0.00,VWS V14.01,2013-06-25 06:08:00,
2013-06-25 02:09:00,71.1,68.3,30.16,SSW,208,0.0,2.0,91,0.00,,---,0.00,VWS V14.01,2013-06-25 06:09:00,
2013-06-25 02:10:00,71.1,68.3,30.16,West,275,2.0,4.0,91,0.00,,---,0.00,VWS V14.01,2013-06-25 06:10:00,
2013-06-25 02:11:00,71.1,68.3,30.15,SW,223,3.0,4.0,91,0.00,,---,0.00,VWS V14.01,2013-06-25 06:11:00,
2013-06-25 02:12:00,71.1,68.3,30.16,SSW,209,1.0,5.0,91,0.00,,---,0.00,VWS V14.01,2013-06-25 06:12:00,
2013-06-25 02:13:00,71.1,68.3,30.15,WSW,245,2.0,2.0,91,0.00,,---,0.00,VWS V14.01,2013-06-25 06:13:00,
2013-06-25 02:14:00,71.1,68.3,30.15,WSW,257,0.0,2.0,91,0.00,,---,0.00,VWS V14.01,2013-06-25 06:14:00,
2013-06-25 02:15:00,71.1,68.3,30.16,West,272,0.0,2.0,91,0.00,,---,0.00,VWS V14.01,2013-06-25 06:15:00,
2013-06-25 02:16:00,71.1,68.3,30.16,WSW,238,1.0,1.0,91,0.00,,---,0.00,VWS V14.01,2013-06-25 06:16:00,
2013-06-25 02:17:00,71.1,68.3,30.16,WSW,256,0.0,1.0,91,0.00,,---,0.00,VWS V14.01,2013-06-25 06:17:00,
2013-06-25 02:18:00,71.1,68.3,30.16,WSW,246,4.0,4.0,91,0.00,,---,0.00,VWS V14.01,2013-06-25 06:18:00,
2013-06-25 02:19:00,71.1,68.3,30.16,SW,234,3.0,4.0,91,0.00,,---,0.00,VWS V14.01,2013-06-25 06:19:00,
2013-06-25 02:20:00,71.1,68.3,30.15,West,280,1.0,3.0,91,0.00,,---,0.00,VWS V14.01,2013-06-25 06:20:00,
2013-06-25 02:21:00,71.1,68.3,30.16,West,273,3.0,4.0,91,0.00,,---,0.00,VWS V14.01,2013-06-25 06:21:00,
2013-06-25 02:22:00,71.1,68.3,30.16,WSW,240,1.0,3.0,91,0.00,,---,0.00,VWS V14.01,2013-06-25 06:22:00,
2013-06-25 02:23:00,71.1,68.3,30.15,WSW,245,2.0,2.0,91,0.00,,---,0.00,VWS V14.01,2013-06-25 06:23:00,
2013-06-25 02:24:00,71.1,68.3,30.16,SW,233,1.0,2.0,91,0.00,,---,0.00,VWS V14.01,2013-06-25 06:24:00,
2013-06-25 02:25:00,71.1,68.3,30.15,SW,218,2.0,2.0,91,0.00,,---,0.00,VWS V14.01,2013-06-25 06:25:00,
2013-06-25 02:26:00,71.1,68.3,30.15,WSW,248,4.0,4.0,91,0.00,,---,0.00,VWS V14.01,2013-06-25 06:26:00,
2013-06-25 02:27:00,71.1,68.3,30.15,SW,215,7.0,7.0,91,0.00,,---,0.00,VWS V14.01,2013-06-25 06:27:00,
2013-06-25 02:28:00,71.1,68.3,30.15,SW,233,4.0,7.0,91,0.00,,---,0.00,VWS V14.01,2013-06-25 06:28:00,
2013-06-25 02:29:00,71.1,68.3,30.15,West,265,1.0,5.0,91,0.00,,---,0.00,VWS V14.01,2013-06-25 06:29:00,
2013-06-25 02:30:00,71.2,68.4,30.15,WSW,246,1.0,3.0,91,0.00,,---,0.00,VWS V14.01,2013-06-25 06:30:00,
2013-06-25 02:31:00,71.2,68.4,30.15,SSW,206,4.0,5.0,91,0.00,,---,0.00,VWS V14.01,2013-06-25 06:31:00,
2013-06-25 02:32:00,71.2,68.4,30.15,WSW,249,2.0,4.0,91,0.00,,---,0.00,VWS V14.01,2013-06-25 06:32:00,
2013-06-25 02:33:00,71.2,68.4,30.15,WNW,300,0.0,2.0,91,0.00,,---,0.00,VWS V14.01,2013-06-25 06:33:00,
2013-06-25 02:34:00,71.2,68.4,30.15,West,277,0.0,0.0,91,0.00,,---,0.00,VWS V14.01,2013-06-25 06:34:00,
2013-06-25 02:35:00,71.2,68.4,30.15,WSW,249,0.0,2.0,91,0.00,,---,0.00,VWS V14.01,2013-06-25 06:35:00,
2013-06-25 02:36:00,71.2,68.4,30.15,WSW,252,5.0,5.0,91,0.00,,---,0.00,VWS V14.01,2013-06-25 06:36:00,
2013-06-25 02:37:00,71.2,68.4,30.15,WSW,242,2.0,4.0,91,0.00,,---,0.00,VWS V14.01,2013-06-25 06:37:00,
2013-06-25 02:38:00,71.3,68.5,30.15,SSW,209,1.0,2.0,91,0.00,,---,0.00,VWS V14.01,2013-06-25 06:38:00,
2013-06-25 02:39:00,71.3,68.5,30.15,SW,230,1.0,3.0,91,0.00,,---,0.00,VWS V14.01,2013-06-25 06:39:00,
2013-06-25 02:40:00,71.3,68.5,30.15,SW,236,4.0,4.0,91,0.00,,---,0.00,VWS V14.01,2013-06-25 06:40:00,
2013-06-25 02:41:00,71.3,68.5,30.15,WSW,242,4.0,4.0,91,0.00,,---,0.00,VWS V14.01,2013-06-25 06:41:00,
2013-06-25 02:42:00,71.3,68.5,30.15,WSW,253,3.0,4.0,91,0.00,,---,0.00,VWS V14.01,2013-06-25 06:42:00,
2013-06-25 02:43:00,71.3,68.5,30.15,SW,219,3.0,4.0,91,0.00,,---,0.00,VWS V14.01,2013-06-25 06:43:00,
2013-06-25 02:44:00,71.3,68.5,30.15,WSW,244,2.0,3.0,91,0.00,,---,0.00,VWS V14.01,2013-06-25 06:44:00,
2013-06-25 02:45:00,71.3,68.5,30.15,SSW,195,2.0,2.0,91,0.00,,---,0.00,VWS V14.01,2013-06-25 06:45:00,
2013-06-25 02:46:00,71.3,68.5,30.15,SW,214,1.0,3.0,91,0.00,,---,0.00,VWS V14.01,2013-06-25 06:46:00,
2013-06-25 02:47:00,71.3,68.5,30.15,South,187,2.0,4.0,91,0.00,,---,0.00,VWS V14.01,2013-06-25 06:47:00,
2013-06-25 02:48:00,71.3,68.5,30.15,SSW,210,3.0,5.0,91,0.00,,---,0.00,VWS V14.01,2013-06-25 06:48:00,
2013-06-25 02:49:00,71.3,68.5,30.15,West,273,2.0,3.0,91,0.00,,---,0.00,VWS V14.01,2013-06-25 06:49:00,
2013-06-25 02:50:00,71.3,68.5,30.15,SW,233,3.0,3.0,91,0.00,,---,0.00,VWS V14.01,2013-06-25 06:50:00,
2013-06-25 02:51:00,71.3,68.5,30.15,SW,225,2.0,3.0,91,0.00,,---,0.00,VWS V14.01,2013-06-25 06:51:00,
2013-06-25 02:52:00,71.3,68.5,30.15,SW,232,2.0,3.0,91,0.00,,---,0.00,VWS V14.01,2013-06-25 06:52:00,
2013-06-25 02:53:00,71.3,68.5,30.15,WSW,242,5.0,5.0,91,0.00,,---,0.00,VWS V14.01,2013-06-25 06:53:00,
2013-06-25 02:54:00,71.3,68.5,30.15,SSE,167,3.0,5.0,91,0.00,,---,0.00,VWS V14.01,2013-06-25 06:54:00,
2013-06-25 02:55:00,71.3,68.5,30.15,West,275,1.0,4.0,91,0.00,,---,0.00,VWS V14.01,2013-06-25 06:55:00,
2013-06-25 02:56:00,71.3,68.5,30.15,SSW,213,2.0,3.0,91,0.00,,---,0.00,VWS V14.01,2013-06-25 06:56:00,
2013-06-25 02:57:00,71.2,68.4,30.15,SW,230,3.0,3.0,91,0.00,,---,0.00,VWS V14.01,2013-06-25 06:57:00,
2013-06-25 02:58:00,71.2,68.4,30.15,WSW,253,3.0,4.0,91,0.00,,---,0.00,VWS V14.01,2013-06-25 06:58:00,
2013-06-25 02:59:00,71.2,68.4,30.15,WSW,246,1.0,3.0,91,0.00,,---,0.00,VWS V14.01,2013-06-25 06:59:00,
2013-06-25 03:00:00,71.3,68.5,30.15,WSW,256,2.0,4.0,91,0.00,,---,0.00,VWS V14.01,2013-06-25 07:00:00,
2013-06-25 03:01:00,71.3,68.5,30.15,SW,230,2.0,2.0,91,0.00,,---,0.00,VWS V14.01,2013-06-25 07:01:00,
2013-06-25 03:02:00,71.3,68.5,30.15,South,174,2.0,4.0,91,0.00,,---,0.00,VWS V14.01,2013-06-25 07:02:00,
2013-06-25 03:03:00,71.2,68.4,30.15,South,182,0.0,3.0,91,0.00,,---,0.00,VWS V14.01,2013-06-25 07:03:00,
2013-06-25 03:04:00,71.2,68.4,30.15,WSW,245,1.0,3.0,91,0.00,,---,0.00,VWS V14.01,2013-06-25 07:04:00,
2013-06-25 03:05:00,71.2,68.4,30.15,West,264,1.0,2.0,91,0.00,,---,0.00,VWS V14.01,2013-06-25 07:05:00,
2013-06-25 03:06:00,71.2,68.4,30.15,West,262,2.0,3.0,91,0.00,,---,0.00,VWS V14.01,2013-06-25 07:06:00,
2013-06-25 03:07:00,71.2,68.4,30.15,West,262,1.0,2.0,91,0.00,,---,0.00,VWS V14.01,2013-06-25 07:07:00,
2013-06-25 03:08:00,71.3,68.9,30.15,West,265,3.0,4.0,92,0.00,,---,0.00,VWS V14.01,2013-06-25 07:08:00,
2013-06-25 03:09:00,71.3,68.5,30.15,WSW,240,5.0,5.0,91,0.00,,---,0.00,VWS V14.01,2013-06-25 07:09:00,
2013-06-25 03:10:00,71.2,68.8,30.15,WSW,252,1.0,5.0,92,0.00,,---,0.00,VWS V14.01,2013-06-25 07:10:00,
2013-06-25 03:11:00,71.3,68.9,30.15,SW,214,2.0,2.0,92,0.00,,---,0.00,VWS V14.01,2013-06-25 07:11:00,
2013-06-25 03:12:00,71.3,68.9,30.15,WSW,253,2.0,3.0,92,0.00,,---,0.00,VWS V14.01,2013-06-25 07:12:00,
2013-06-25 03:13:00,71.2,68.8,30.15,NNE,30,1.0,2.0,92,0.00,,---,0.00,VWS V14.01,2013-06-25 07:13:00,
2013-06-25 03:14:00,71.2,68.8,30.15,West,276,1.0,1.0,92,0.00,,---,0.00,VWS V14.01,2013-06-25 07:14:00,
2013-06-25 03:15:00,71.3,68.9,30.15,SW,219,1.0,2.0,92,0.00,,---,0.00,VWS V14.01,2013-06-25 07:15:00,
2013-06-25 03:16:00,71.2,68.8,30.15,SW,233,1.0,2.0,92,0.00,,---,0.00,VWS V14.01,2013-06-25 07:16:00,
2013-06-25 03:17:00,71.2,68.8,30.15,West,267,1.0,1.0,92,0.00,,---,0.00,VWS V14.01,2013-06-25 07:17:00,
2013-06-25 03:18:00,71.2,68.8,30.15,West,259,4.0,4.0,92,0.00,,---,0.00,VWS V14.01,2013-06-25 07:18:00,
2013-06-25 03:19:00,71.3,68.9,30.15,SW,232,2.0,5.0,92,0.00,,---,0.00,VWS V14.01,2013-06-25 07:19:00,
2013-06-25 03:20:00,71.3,68.9,30.15,WSW,252,3.0,4.0,92,0.00,,---,0.00,VWS V14.01,2013-06-25 07:20:00,
2013-06-25 03:21:00,71.3,68.9,30.15,WSW,240,3.0,4.0,92,0.00,,---,0.00,VWS V14.01,2013-06-25 07:21:00,
2013-06-25 03:22:00,71.2,68.8,30.15,SW,233,1.0,3.0,92,0.00,,---,0.00,VWS V14.01,2013-06-25 07:22:00,
2013-06-25 03:23:00,71.2,68.8,30.15,WSW,242,1.0,4.0,92,0.00,,---,0.00,VWS V14.01,2013-06-25 07:23:00,
2013-06-25 03:24:00,71.2,68.8,30.15,WSW,247,2.0,4.0,92,0.00,,---,0.00,VWS V14.01,2013-06-25 07:24:00,
2013-06-25 03:25:00,71.2,68.8,30.15,West,276,2.0,3.0,92,0.00,,---,0.00,VWS V14.01,2013-06-25 07:25:00,
2013-06-25 03:26:00,71.2,68.8,30.15,West,278,2.0,3.0,92,0.00,,---,0.00,VWS V14.01,2013-06-25 07:26:00,
2013-06-25 03:27:00,71.2,68.8,30.15,West,260,1.0,4.0,92,0.00,,---,0.00,VWS V14.01,2013-06-25 07:27:00,
2013-06-25 03:28:00,71.2,68.8,30.15,SSW,209,3.0,3.0,92,0.00,,---,0.00,VWS V14.01,2013-06-25 07:28:00,
2013-06-25 03:29:00,71.2,68.8,30.15,WSW,240,1.0,4.0,92,0.00,,---,0.00,VWS V14.01,2013-06-25 07:29:00,
2013-06-25 03:30:00,71.2,68.8,30.15,WSW,252,3.0,4.0,92,0.00,,---,0.00,VWS V14.01,2013-06-25 07:30:00,
2013-06-25 03:31:00,71.2,68.8,30.15,WSW,244,3.0,4.0,92,0.00,,---,0.00,VWS V14.01,2013-06-25 07:31:00,
2013-06-25 03:32:00,71.2,68.8,30.15,WSW,246,3.0,4.0,92,0.00,,---,0.00,VWS V14.01,2013-06-25 07:32:00,
2013-06-25 03:33:00,71.2,68.8,30.15,WSW,240,1.0,3.0,92,0.00,,---,0.00,VWS V14.01,2013-06-25 07:33:00,
2013-06-25 03:34:00,71.2,68.8,30.15,SSW,206,2.0,2.0,92,0.00,,---,0.00,VWS V14.01,2013-06-25 07:34:00,
2013-06-25 03:35:00,71.2,68.8,30.15,SW,223,2.0,2.0,92,0.00,,---,0.00,VWS V14.01,2013-06-25 07:35:00,
2013-06-25 03:36:00,71.2,68.8,30.15,SSW,211,3.0,3.0,92,0.00,,---,0.00,VWS V14.01,2013-06-25 07:36:00,
2013-06-25 03:37:00,71.2,68.8,30.15,SW,221,0.0,3.0,92,0.00,,---,0.00,VWS V14.01,2013-06-25 07:37:00,
2013-06-25 03:38:00,71.2,68.8,30.15,WSW,250,2.0,2.0,92,0.00,,---,0.00,VWS V14.01,2013-06-25 07:38:00,
2013-06-25 03:39:00,71.2,68.8,30.15,SSW,209,2.0,4.0,92,0.00,,---,0.00,VWS V14.01,2013-06-25 07:39:00,
2013-06-25 03:40:00,71.2,68.8,30.15,WNW,297,1.0,2.0,92,0.00,,---,0.00,VWS V14.01,2013-06-25 07:40:00,
2013-06-25 03:41:00,71.2,68.8,30.15,WNW,298,1.0,2.0,92,0.00,,---,0.00,VWS V14.01,2013-06-25 07:41:00,
2013-06-25 03:42:00,71.2,68.8,30.15,SW,236,2.0,2.0,92,0.00,,---,0.00,VWS V14.01,2013-06-25 07:42:00,
2013-06-25 03:43:00,71.1,68.7,30.15,WSW,240,2.0,3.0,92,0.00,,---,0.00,VWS V14.01,2013-06-25 07:43:00,
2013-06-25 03:44:00,71.1,68.7,30.15,SW,222,2.0,2.0,92,0.00,,---,0.00,VWS V14.01,2013-06-25 07:44:00,
2013-06-25 03:45:00,71.1,68.7,30.15,SSW,199,1.0,5.0,92,0.00,,---,0.00,VWS V14.01,2013-06-25 07:45:00,
2013-06-25 03:46:00,71.1,68.7,30.15,SSW,200,0.0,5.0,92,0.00,,---,0.00,VWS V14.01,2013-06-25 07:46:00,
2013-06-25 03:47:00,71.1,68.7,30.15,WSW,245,0.0,2.0,92,0.00,,---,0.00,VWS V14.01,2013-06-25 07:47:00,
2013-06-25 03:48:00,71.1,68.7,30.15,WSW,246,0.0,0.0,92,0.00,,---,0.00,VWS V14.01,2013-06-25 07:48:00,
2013-06-25 03:49:00,71.1,68.7,30.15,SSW,206,1.0,2.0,92,0.00,,---,0.00,VWS V14.01,2013-06-25 07:49:00,
2013-06-25 03:50:00,71.0,68.6,30.14,SW,221,2.0,3.0,92,0.00,,---,0.00,VWS V14.01,2013-06-25 07:50:00,
2013-06-25 03:51:00,71.0,68.6,30.14,WSW,238,2.0,3.0,92,0.00,,---,0.00,VWS V14.01,2013-06-25 07:51:00,
2013-06-25 03:52:00,71.0,68.6,30.14,West,265,2.0,2.0,92,0.00,,---,0.00,VWS V14.01,2013-06-25 07:52:00,
2013-06-25 03:53:00,71.0,68.6,30.14,SW,233,2.0,3.0,92,0.00,,---,0.00,VWS V14.01,2013-06-25 07:53:00,
2013-06-25 03:54:00,70.9,68.5,30.15,SW,223,2.0,3.0,92,0.00,,---,0.00,VWS V14.01,2013-06-25 07:54:00,
2013-06-25 03:55:00,70.9,68.5,30.14,SSW,194,3.0,3.0,92,0.00,,---,0.00,VWS V14.01,2013-06-25 07:55:00,
2013-06-25 03:56:00,70.9,68.5,30.14,SSW,195,2.0,3.0,92,0.00,,---,0.00,VWS V14.01,2013-06-25 07:56:00,
2013-06-25 03:57:00,70.9,68.5,30.15,WSW,237,0.0,2.0,92,0.00,,---,0.00,VWS V14.01,2013-06-25 07:57:00,
2013-06-25 03:58:00,70.9,68.5,30.14,WSW,246,4.0,4.0,92,0.00,,---,0.00,VWS V14.01,2013-06-25 07:58:00,
2013-06-25 03:59:00,70.9,68.8,30.15,SSW,203,4.0,6.0,93,0.00,,---,0.00,VWS V14.01,2013-06-25 07:59:00,
2013-06-25 04:00:00,70.8,68.7,30.15,West,271,0.0,3.0,93,0.00,,---,0.00,VWS V14.01,2013-06-25 08:00:00,
2013-06-25 04:01:00,70.8,68.7,30.15,West,264,0.0,3.0,93,0.00,,---,0.00,VWS V14.01,2013-06-25 08:01:00,
2013-06-25 04:02:00,70.8,68.7,30.15,SW,218,2.0,4.0,93,0.00,,---,0.00,VWS V14.01,2013-06-25 08:02:00,
2013-06-25 04:03:00,70.8,68.7,30.15,SW,225,1.0,3.0,93,0.00,,---,0.00,VWS V14.01,2013-06-25 08:03:00,
2013-06-25 04:04:00,70.8,68.7,30.15,SSW,205,1.0,4.0,93,0.00,,---,0.00,VWS V14.01,2013-06-25 08:04:00,
2013-06-25 04:05:00,70.7,68.6,30.15,WSW,249,2.0,2.0,93,0.00,,---,0.00,VWS V14.01,2013-06-25 08:05:00,
2013-06-25 04:06:00,70.7,68.6,30.15,WSW,254,2.0,3.0,93,0.00,,---,0.00,VWS V14.01,2013-06-25 08:06:00,
2013-06-25 04:07:00,70.7,68.6,30.15,SSW,207,1.0,2.0,93,0.00,,---,0.00,VWS V14.01,2013-06-25 08:07:00,
2013-06-25 04:08:00,70.7,68.6,30.15,SW,221,1.0,2.0,93,0.00,,---,0.00,VWS V14.01,2013-06-25 08:08:00,
2013-06-25 04:09:00,70.7,68.6,30.15,West,265,0.0,2.0,93,0.00,,---,0.00,VWS V14.01,2013-06-25 08:09:00,
2013-06-25 04:10:00,70.7,68.6,30.15,SW,217,1.0,1.0,93,0.00,,---,0.00,VWS V14.01,2013-06-25 08:10:00,
2013-06-25 04:11:00,70.6,68.5,30.15,SW,217,0.0,1.0,93,0.00,,---,0.00,VWS V14.01,2013-06-25 08:11:00,
2013-06-25 04:12:00,70.6,68.5,30.15,SW,217,0.0,0.0,93,0.00,,---,0.00,VWS V14.01,2013-06-25 08:12:00,
2013-06-25 04:13:00,70.6,68.5,30.14,SW,219,0.0,1.0,93,0.00,,---,0.00,VWS V14.01,2013-06-25 08:13:00,
2013-06-25 04:14:00,70.6,68.5,30.15,SW,229,2.0,2.0,93,0.00,,---,0.00,VWS V14.01,2013-06-25 08:14:00,
2013-06-25 04:15:00,70.6,68.5,30.15,SSW,213,1.0,2.0,93,0.00,,---,0.00,VWS V14.01,2013-06-25 08:15:00,
2013-06-25 04:16:00,70.6,68.5,30.15,SSW,213,1.0,2.0,93,0.00,,---,0.00,VWS V14.01,2013-06-25 08:16:00,
2013-06-25 04:17:00,70.5,68.4,30.15,WSW,242,0.0,2.0,93,0.00,,---,0.00,VWS V14.01,2013-06-25 08:17:00,
2013-06-25 04:18:00,70.6,68.5,30.15,SW,217,2.0,3.0,93,0.00,,---,0.00,VWS V14.01,2013-06-25 08:18:00,
2013-06-25 04:19:00,70.5,68.4,30.14,SW,218,0.0,2.0,93,0.00,,---,0.00,VWS V14.01,2013-06-25 08:19:00,
2013-06-25 04:20:00,70.5,68.4,30.14,WSW,252,1.0,1.0,93,0.00,,---,0.00,VWS V14.01,2013-06-25 08:20:00,
2013-06-25 04:21:00,70.5,68.4,30.14,WSW,252,0.0,1.0,93,0.00,,---,0.00,VWS V14.01,2013-06-25 08:21:00,
2013-06-25 04:22:00,70.5,68.4,30.14,WSW,241,2.0,2.0,93,0.00,,---,0.00,VWS V14.01,2013-06-25 08:22:00,
2013-06-25 04:23:00,70.5,68.4,30.14,WSW,242,1.0,2.0,93,0.00,,---,0.00,VWS V14.01,2013-06-25 08:23:00,
2013-06-25 04:24:00,70.5,68.4,30.14,WSW,247,1.0,2.0,93,0.00,,---,0.00,VWS V14.01,2013-06-25 08:24:00,
2013-06-25 04:25:00,70.5,68.7,30.14,SSE,155,1.0,2.0,94,0.00,,---,0.00,VWS V14.01,2013-06-25 08:25:00,
2013-06-25 04:26:00,70.5,68.7,30.14,SSE,149,1.0,2.0,94,0.00,,---,0.00,VWS V14.01,2013-06-25 08:26:00,
2013-06-25 04:27:00,70.5,68.7,30.14,West,267,1.0,1.0,94,0.00,,---,0.00,VWS V14.01,2013-06-25 08:27:00,
2013-06-25 04:28:00,70.5,68.7,30.14,West,260,1.0,2.0,94,0.00,,---,0.00,VWS V14.01,2013-06-25 08:28:00,
2013-06-25 04:29:00,70.5,68.7,30.14,SSW,209,1.0,2.0,94,0.00,,---,0.00,VWS V14.01,2013-06-25 08:29:00,
2013-06-25 04:30:00,70.5,68.7,30.14,ESE,111,0.0,2.0,94,0.00,,---,0.00,VWS V14.01,2013-06-25 08:30:00,
2013-06-25 04:31:00,70.5,68.7,30.14,SE,142,1.0,2.0,94,0.00,,---,0.00,VWS V14.01,2013-06-25 08:31:00,
2013-06-25 04:32:00,70.5,68.7,30.14,WSW,242,1.0,2.0,94,0.00,,---,0.00,VWS V14.01,2013-06-25 08:32:00,
2013-06-25 04:33:00,70.5,68.7,30.14,SW,226,1.0,3.0,94,0.00,,---,0.00,VWS V14.01,2013-06-25 08:33:00,
2013-06-25 04:34:00,70.4,68.6,30.14,SW,229,1.0,1.0,94,0.00,,---,0.00,VWS V14.01,2013-06-25 08:34:00,
2013-06-25 04:35:00,70.4,68.6,30.14,WSW,242,2.0,2.0,94,0.00,,---,0.00,VWS V14.01,2013-06-25 08:35:00,
2013-06-25 04:36:00,70.4,68.6,30.14,SSW,210,2.0,2.0,94,0.00,,---,0.00,VWS V14.01,2013-06-25 08:36:00,
2013-06-25 04:37:00,70.4,68.6,30.14,SSW,211,2.0,2.0,94,0.00,,---,0.00,VWS V14.01,2013-06-25 08:37:00,
2013-06-25 04:38:00,70.4,68.6,30.14,WSW,249,1.0,2.0,94,0.00,,---,0.00,VWS V14.01,2013-06-25 08:38:00,
2013-06-25 04:39:00,70.4,68.6,30.14,SW,218,1.0,3.0,94,0.00,,---,0.00,VWS V14.01,2013-06-25 08:39:00,
2013-06-25 04:40:00,70.3,68.5,30.14,WSW,253,3.0,3.0,94,0.00,,---,0.00,VWS V14.01,2013-06-25 08:40:00,
2013-06-25 04:41:00,70.3,68.5,30.14,SSW,208,2.0,3.0,94,0.00,,---,0.00,VWS V14.01,2013-06-25 08:41:00,
2013-06-25 04:42:00,70.3,68.5,30.14,West,261,1.0,2.0,94,0.00,,---,0.00,VWS V14.01,2013-06-25 08:42:00,
2013-06-25 04:43:00,70.3,68.5,30.14,West,261,0.0,1.0,94,0.00,,---,0.00,VWS V14.01,2013-06-25 08:43:00,
2013-06-25 04:44:00,70.3,68.5,30.14,SSW,211,1.0,1.0,94,0.00,,---,0.00,VWS V14.01,2013-06-25 08:44:00,
2013-06-25 04:45:00,70.3,68.5,30.14,WSW,252,0.0,2.0,94,0.00,,---,0.00,VWS V14.01,2013-06-25 08:45:00,
2013-06-25 04:46:00,70.3,68.5,30.14,WSW,252,1.0,2.0,94,0.00,,---,0.00,VWS V14.01,2013-06-25 08:46:00,
2013-06-25 04:47:00,70.2,68.4,30.14,WSW,252,1.0,1.0,94,0.00,,---,0.00,VWS V14.01,2013-06-25 08:47:00,
2013-06-25 04:48:00,70.3,68.5,30.14,SW,227,2.0,3.0,94,0.00,,---,0.00,VWS V14.01,2013-06-25 08:48:00,
2013-06-25 04:49:00,70.3,68.5,30.14,WSW,248,0.0,2.0,94,0.00,,---,0.00,VWS V14.01,2013-06-25 08:49:00,
2013-06-25 04:50:00,70.2,68.4,30.14,WSW,244,1.0,2.0,94,0.00,,---,0.00,VWS V14.01,2013-06-25 08:50:00,
2013-06-25 04:51:00,70.2,68.4,30.14,WSW,254,2.0,3.0,94,0.00,,---,0.00,VWS V14.01,2013-06-25 08:51:00,
2013-06-25 04:52:00,70.3,68.5,30.14,WSW,253,1.0,2.0,94,0.00,,---,0.00,VWS V14.01,2013-06-25 08:52:00,
2013-06-25 04:53:00,70.2,68.4,30.14,SE,141,1.0,3.0,94,0.00,,---,0.00,VWS V14.01,2013-06-25 08:53:00,
2013-06-25 04:54:00,70.2,68.4,30.14,SW,228,0.0,3.0,94,0.00,,---,0.00,VWS V14.01,2013-06-25 08:54:00,
2013-06-25 04:55:00,70.2,68.4,30.14,West,264,3.0,3.0,94,0.00,,---,0.00,VWS V14.01,2013-06-25 08:55:00,
2013-06-25 04:56:00,70.2,68.4,30.14,WSW,246,1.0,3.0,94,0.00,,---,0.00,VWS V14.01,2013-06-25 08:56:00,
2013-06-25 04:57:00,70.2,68.4,30.14,WSW,246,1.0,3.0,94,0.00,,---,0.00,VWS V14.01,2013-06-25 08:57:00,
2013-06-25 04:58:00,70.2,68.4,30.14,SW,233,2.0,4.0,94,0.00,,---,0.00,VWS V14.01,2013-06-25 08:58:00,
2013-06-25 04:59:00,70.2,68.4,30.14,SW,218,0.0,2.0,94,0.00,,---,0.00,VWS V14.01,2013-06-25 08:59:00,
2013-06-25 05:00:00,70.2,68.4,30.14,WSW,247,0.0,1.0,94,0.00,,---,0.00,VWS V14.01,2013-06-25 09:00:00,
2013-06-25 05:01:00,70.2,68.4,30.14,WSW,247,0.0,1.0,94,0.00,,---,0.00,VWS V14.01,2013-06-25 09:01:00,
2013-06-25 05:02:00,70.2,68.4,30.14,WSW,248,1.0,1.0,94,0.00,,---,0.00,VWS V14.01,2013-06-25 09:02:00,
2013-06-25 05:03:00,70.2,68.4,30.14,WSW,242,0.0,3.0,94,0.00,,---,0.00,VWS V14.01,2013-06-25 09:03:00,
2013-06-25 05:04:00,70.2,68.4,30.14,SW,229,2.0,2.0,94,0.00,,---,0.00,VWS V14.01,2013-06-25 09:04:00,
2013-06-25 05:05:00,70.2,68.7,30.14,SSW,203,1.0,1.0,95,0.00,,---,0.00,VWS V14.01,2013-06-25 09:05:00,
2013-06-25 05:06:00,70.2,68.7,30.14,SSW,203,0.0,1.0,95,0.00,,---,0.00,VWS V14.01,2013-06-25 09:06:00,
2013-06-25 05:07:00,70.1,68.6,30.14,SW,223,0.0,2.0,95,0.00,,---,0.00,VWS V14.01,2013-06-25 09:07:00,
2013-06-25 05:08:00,70.2,68.7,30.14,WSW,253,1.0,3.0,95,0.00,,---,0.00,VWS V14.01,2013-06-25 09:08:00,
2013-06-25 05:09:00,70.2,68.7,30.14,WSW,248,1.0,3.0,95,0.00,,---,0.00,VWS V14.01,2013-06-25 09:09:00,
2013-06-25 05:10:00,70.1,68.6,30.14,West,268,1.0,1.0,95,0.00,,---,0.00,VWS V14.01,2013-06-25 09:10:00,
2013-06-25 05:11:00,70.2,68.7,30.14,SSW,211,2.0,2.0,95,0.00,,---,0.00,VWS V14.01,2013-06-25 09:11:00,
2013-06-25 05:12:00,70.1,68.6,30.14,SW,225,1.0,2.0,95,0.00,,---,0.00,VWS V14.01,2013-06-25 09:12:00,
2013-06-25 05:13:00,70.1,68.6,30.14,SW,226,1.0,2.0,95,0.00,,---,0.00,VWS V14.01,2013-06-25 09:13:00,
2013-06-25 05:14:00,70.1,68.6,30.14,ESE,119,1.0,1.0,95,0.00,,---,0.00,VWS V14.01,2013-06-25 09:14:00,
2013-06-25 05:15:00,70.1,68.6,30.14,SSW,209,1.0,3.0,95,0.00,,---,0.00,VWS V14.01,2013-06-25 09:15:00,
2013-06-25 05:16:00,70.1,68.6,30.14,SSW,209,0.0,3.0,95,0.00,,---,0.00,VWS V14.01,2013-06-25 09:16:00,
2013-06-25 05:17:00,70.1,68.6,30.14,WSW,252,1.0,2.0,95,0.00,,---,0.00,VWS V14.01,2013-06-25 09:17:00,
2013-06-25 05:18:00,70.1,68.6,30.14,SW,233,3.0,3.0,95,0.00,,---,0.00,VWS V14.01,2013-06-25 09:18:00,
2013-06-25 05:19:00,70.1,68.6,30.14,SSE,165,1.0,3.0,95,0.00,,---,0.00,VWS V14.01,2013-06-25 09:19:00,
2013-06-25 05:20:00,70.1,68.6,30.14,South,176,2.0,2.0,95,0.00,,---,0.00,VWS V14.01,2013-06-25 09:20:00,
2013-06-25 05:21:00,70.1,68.6,30.14,SSW,202,2.0,3.0,95,0.00,,---,0.00,VWS V14.01,2013-06-25 09:21:00,
2013-06-25 05:22:00,70.1,68.6,30.14,SW,215,2.0,2.0,95,0.00,,---,0.00,VWS V14.01,2013-06-25 09:22:00,
2013-06-25 05:23:00,70.1,68.6,30.14,SSW,194,2.0,2.0,95,0.00,,---,0.00,VWS V14.01,2013-06-25 09:23:00,
2013-06-25 05:24:00,70.1,68.6,30.14,SW,227,0.0,2.0,95,0.00,,---,0.00,VWS V14.01,2013-06-25 09:24:00,
2013-06-25 05:25:00,70.0,68.5,30.14,SW,232,2.0,3.0,95,0.00,,---,0.00,VWS V14.01,2013-06-25 09:25:00,
2013-06-25 05:26:00,70.0,68.5,30.14,SW,222,2.0,3.0,95,0.00,,---,0.00,VWS V14.01,2013-06-25 09:26:00,
2013-06-25 05:27:00,70.0,68.5,30.14,SW,223,3.0,4.0,95,0.00,,---,0.00,VWS V14.01,2013-06-25 09:27:00,
2013-06-25 05:28:00,70.0,68.5,30.14,WSW,240,2.0,4.0,95,0.00,,---,0.00,VWS V14.01,2013-06-25 09:28:00,
2013-06-25 05:29:00,70.0,68.5,30.14,West,264,1.0,2.0,95,0.00,,---,0.00,VWS V14.01,2013-06-25 09:29:00,
2013-06-25 05:30:00,70.0,68.5,30.14,SW,233,2.0,2.0,95,0.00,,---,0.00,VWS V14.01,2013-06-25 09:30:00,
2013-06-25 05:31:00,70.0,68.5,30.14,WSW,245,1.0,2.0,95,0.00,,---,0.00,VWS V14.01,2013-06-25 09:31:00,
2013-06-25 05:32:00,70.0,68.5,30.14,WSW,246,4.0,5.0,95,0.00,,---,0.00,VWS V14.01,2013-06-25 09:32:00,
2013-06-25 05:33:00,70.0,68.5,30.14,WSW,250,0.0,4.0,95,0.00,,---,0.00,VWS V14.01,2013-06-25 09:33:00,
2013-06-25 05:34:00,70.0,68.5,30.14,SW,232,3.0,3.0,95,0.00,,---,0.00,VWS V14.01,2013-06-25 09:34:00,
2013-06-25 05:35:00,70.0,68.5,30.14,WSW,240,1.0,3.0,95,0.00,,---,0.00,VWS V14.01,2013-06-25 09:35:00,
2013-06-25 05:36:00,70.0,68.5,30.14,WSW,241,1.0,3.0,95,0.00,,---,0.00,VWS V14.01,2013-06-25 09:36:00,
2013-06-25 05:37:00,70.0,68.5,30.14,WSW,241,1.0,1.0,95,0.00,,---,0.00,VWS V14.01,2013-06-25 09:37:00,
2013-06-25 05:38:00,70.0,68.5,30.14,WSW,255,1.0,1.0,95,0.00,,---,0.00,VWS V14.01,2013-06-25 09:38:00,
2013-06-25 05:39:00,69.9,68.4,30.14,SW,229,1.0,1.0,95,0.00,,---,0.00,VWS V14.01,2013-06-25 09:39:00,
2013-06-25 05:40:00,69.9,68.4,30.14,SW,227,2.0,2.0,95,0.00,,---,0.00,VWS V14.01,2013-06-25 09:40:00,
2013-06-25 05:41:00,69.9,68.4,30.14,SSW,205,2.0,2.0,95,0.00,,---,0.00,VWS V14.01,2013-06-25 09:41:00,
2013-06-25 05:42:00,69.9,68.4,30.14,SSW,213,2.0,4.0,95,0.00,,---,0.00,VWS V14.01,2013-06-25 09:42:00,
2013-06-25 05:43:00,69.9,68.4,30.14,SW,223,1.0,2.0,95,0.00,,---,0.00,VWS V14.01,2013-06-25 09:43:00,
2013-06-25 05:44:00,69.9,68.4,30.14,SW,233,3.0,4.0,95,0.00,,---,0.00,VWS V14.01,2013-06-25 09:44:00,
2013-06-25 05:45:00,69.9,68.4,30.14,WSW,246,2.0,3.0,95,0.00,,---,0.00,VWS V14.01,2013-06-25 09:45:00,
2013-06-25 05:46:00,69.9,68.4,30.14,West,271,2.0,3.0,95,0.00,,---,0.00,VWS V14.01,2013-06-25 09:46:00,
2013-06-25 05:47:00,69.9,68.4,30.14,West,269,1.0,2.0,95,0.00,,---,0.00,VWS V14.01,2013-06-25 09:47:00,
2013-06-25 05:48:00,69.9,68.4,30.14,SW,221,2.0,3.0,95,0.00,,---,0.00,VWS V14.01,2013-06-25 09:48:00,
2013-06-25 05:49:00,69.9,68.4,30.14,WSW,238,2.0,2.0,95,0.00,,---,0.00,VWS V14.01,2013-06-25 09:49:00,
2013-06-25 05:50:00,69.9,68.4,30.14,WSW,242,4.0,4.0,95,0.00,,---,0.00,VWS V14.01,2013-06-25 09:50:00,
2013-06-25 05:51:00,69.9,68.4,30.14,WSW,240,3.0,4.0,95,0.00,,---,0.00,VWS V14.01,2013-06-25 09:51:00,
2013-06-25 05:52:00,69.9,68.4,30.14,WSW,248,1.0,3.0,95,0.00,,---,0.00,VWS V14.01,2013-06-25 09:52:00,
2013-06-25 05:53:00,69.9,68.4,30.14,SW,236,0.0,2.0,95,0.00,,---,0.00,VWS V14.01,2013-06-25 09:53:00,
2013-06-25 05:54:00,69.9,68.4,30.14,WSW,242,2.0,2.0,95,0.00,,---,0.00,VWS V14.01,2013-06-25 09:54:00,
2013-06-25 05:55:00,69.9,68.4,30.14,South,190,1.0,1.0,95,0.00,,---,0.00,VWS V14.01,2013-06-25 09:55:00,
2013-06-25 05:56:00,69.9,68.4,30.14,SSW,209,0.0,1.0,95,0.00,,---,0.00,VWS V14.01,2013-06-25 09:56:00,
2013-06-25 05:57:00,69.9,68.4,30.14,West,263,1.0,2.0,95,0.00,,---,0.00,VWS V14.01,2013-06-25 09:57:00,
2013-06-25 05:58:00,69.9,68.4,30.14,SW,221,2.0,3.0,95,0.00,,---,0.00,VWS V14.01,2013-06-25 09:58:00,
2013-06-25 05:59:00,69.9,68.4,30.14,SW,236,0.0,2.0,95,0.00,,---,0.00,VWS V14.01,2013-06-25 09:59:00,
2013-06-25 06:00:00,69.9,68.4,30.14,WSW,257,1.0,2.0,95,0.00,,---,0.00,VWS V14.01,2013-06-25 10:00:00,
2013-06-25 06:01:00,69.9,68.4,30.14,SSW,213,2.0,3.0,95,0.00,,---,0.00,VWS V14.01,2013-06-25 10:01:00,
2013-06-25 06:02:00,69.9,68.4,30.14,WSW,249,2.0,4.0,95,0.00,,---,0.00,VWS V14.01,2013-06-25 10:02:00,
2013-06-25 06:03:00,69.9,68.4,30.14,WSW,249,0.0,2.0,95,0.00,,---,0.00,VWS V14.01,2013-06-25 10:03:00,
2013-06-25 06:04:00,69.9,68.4,30.14,WSW,240,2.0,2.0,95,0.00,,---,0.00,VWS V14.01,2013-06-25 10:04:00,
2013-06-25 06:05:00,69.9,68.4,30.14,WSW,243,2.0,2.0,95,0.00,,---,0.00,VWS V14.01,2013-06-25 10:05:00,
2013-06-25 06:06:00,69.9,68.4,30.14,SSW,210,1.0,2.0,95,0.00,,---,0.00,VWS V14.01,2013-06-25 10:06:00,
2013-06-25 06:07:00,69.9,68.4,30.14,WSW,250,2.0,3.0,95,0.00,,---,0.00,VWS V14.01,2013-06-25 10:07:00,
2013-06-25 06:08:00,69.9,68.4,30.14,SSW,211,1.0,2.0,95,0.00,,---,0.00,VWS V14.01,2013-06-25 10:08:00,
2013-06-25 06:09:00,69.9,68.4,30.14,SW,217,2.0,3.0,95,0.00,,---,0.00,VWS V14.01,2013-06-25 10:09:00,
2013-06-25 06:10:00,69.9,68.4,30.14,West,280,0.0,0.0,95,0.00,,---,0.00,VWS V14.01,2013-06-25 10:10:00,
2013-06-25 06:11:00,69.9,68.4,30.14,SSW,203,0.0,1.0,95,0.00,,---,0.00,VWS V14.01,2013-06-25 10:11:00,
2013-06-25 06:12:00,69.9,68.4,30.14,South,172,2.0,4.0,95,0.00,,---,0.00,VWS V14.01,2013-06-25 10:12:00,
2013-06-25 06:13:00,69.9,68.4,30.14,WSW,242,0.0,2.0,95,0.00,,---,0.00,VWS V14.01,2013-06-25 10:13:00,
2013-06-25 06:14:00,69.9,68.4,30.14,SSW,207,2.0,3.0,95,0.00,,---,0.00,VWS V14.01,2013-06-25 10:14:00,
2013-06-25 06:15:00,69.9,68.4,30.14,WSW,241,2.0,2.0,95,0.00,,---,0.00,VWS V14.01,2013-06-25 10:15:00,
2013-06-25 06:16:00,69.9,68.4,30.14,WSW,246,1.0,2.0,95,0.00,,---,0.00,VWS V14.01,2013-06-25 10:16:00,
2013-06-25 06:17:00,69.9,68.4,30.14,WSW,248,2.0,2.0,95,0.00,,---,0.00,VWS V14.01,2013-06-25 10:17:00,
2013-06-25 06:18:00,69.9,68.4,30.14,WSW,242,1.0,2.0,95,0.00,,---,0.00,VWS V14.01,2013-06-25 10:18:00,
2013-06-25 06:19:00,69.9,68.4,30.14,SW,236,1.0,2.0,95,0.00,,---,0.00,VWS V14.01,2013-06-25 10:19:00,
2013-06-25 06:20:00,69.9,68.4,30.14,SW,233,2.0,3.0,95,0.00,,---,0.00,VWS V14.01,2013-06-25 10:20:00,
2013-06-25 06:21:00,69.9,68.4,30.14,SW,215,1.0,3.0,95,0.00,,---,0.00,VWS V14.01,2013-06-25 10:21:00,
2013-06-25 06:22:00,69.9,68.4,30.14,SSW,213,3.0,3.0,95,0.00,,---,0.00,VWS V14.01,2013-06-25 10:22:00,
2013-06-25 06:23:00,69.9,68.4,30.14,SSW,209,0.0,3.0,95,0.00,,---,0.00,VWS V14.01,2013-06-25 10:23:00,
2013-06-25 06:24:00,69.9,68.4,30.14,SW,227,1.0,3.0,95,0.00,,---,0.00,VWS V14.01,2013-06-25 10:24:00,
2013-06-25 06:25:00,69.9,68.4,30.14,SSW,199,3.0,3.0,95,0.00,,---,0.00,VWS V14.01,2013-06-25 10:25:00,
2013-06-25 06:26:00,69.9,68.4,30.14,SSW,209,1.0,3.0,95,0.00,,---,0.00,VWS V14.01,2013-06-25 10:26:00,
2013-06-25 06:27:00,69.9,68.4,30.14,WSW,240,0.0,2.0,95,0.00,,---,0.00,VWS V14.01,2013-06-25 10:27:00,
2013-06-25 06:28:00,69.9,68.4,30.14,SSW,205,0.0,2.0,95,0.00,,---,0.00,VWS V14.01,2013-06-25 10:28:00,
2013-06-25 06:29:00,70.0,68.5,30.14,WSW,254,1.0,2.0,95,0.00,,---,0.00,VWS V14.01,2013-06-25 10:29:00,
2013-06-25 06:30:00,70.0,68.5,30.14,SSW,203,5.0,5.0,95,0.00,,---,0.00,VWS V14.01,2013-06-25 10:30:00,
2013-06-25 06:31:00,70.0,68.5,30.14,WSW,246,3.0,5.0,95,0.00,,---,0.00,VWS V14.01,2013-06-25 10:31:00,
2013-06-25 06:32:00,70.0,68.5,30.14,SW,225,2.0,3.0,95,0.00,,---,0.00,VWS V14.01,2013-06-25 10:32:00,
2013-06-25 06:33:00,70.0,68.5,30.14,SSW,210,2.0,3.0,95,0.00,,---,0.00,VWS V14.01,2013-06-25 10:33:00,
2013-06-25 06:34:00,70.1,68.6,30.14,SW,229,2.0,2.0,95,0.00,,---,0.00,VWS V14.01,2013-06-25 10:34:00,
2013-06-25 06:35:00,70.0,68.5,30.14,WSW,246,1.0,1.0,95,0.00,,---,0.00,VWS V14.01,2013-06-25 10:35:00,
2013-06-25 06:36:00,70.0,68.5,30.14,WSW,242,0.0,1.0,95,0.00,,---,0.00,VWS V14.01,2013-06-25 10:36:00,
2013-06-25 06:37:00,70.1,68.6,30.14,WSW,248,1.0,3.0,95,0.00,,---,0.00,VWS V14.01,2013-06-25 10:37:00,
2013-06-25 06:38:00,70.1,68.6,30.14,WSW,240,1.0,1.0,95,0.00,,---,0.00,VWS V14.01,2013-06-25 10:38:00,
2013-06-25 06:39:00,70.1,68.6,30.14,WSW,257,3.0,3.0,95,0.00,,---,0.00,VWS V14.01,2013-06-25 10:39:00,
2013-06-25 06:40:00,70.1,68.6,30.14,WSW,249,2.0,2.0,95,0.00,,---,0.00,VWS V14.01,2013-06-25 10:40:00,
2013-06-25 06:41:00,70.1,68.6,30.14,West,267,2.0,2.0,95,0.00,,---,0.00,VWS V14.01,2013-06-25 10:41:00,
2013-06-25 06:42:00,70.2,68.7,30.14,WSW,246,3.0,4.0,95,0.00,,---,0.00,VWS V14.01,2013-06-25 10:42:00,
2013-06-25 06:43:00,70.2,68.7,30.14,SW,230,3.0,3.0,95,0.00,,---,0.00,VWS V14.01,2013-06-25 10:43:00,
2013-06-25 06:44:00,70.2,68.7,30.14,SSW,194,0.0,3.0,95,0.00,,---,0.00,VWS V14.01,2013-06-25 10:44:00,
2013-06-25 06:45:00,70.2,68.7,30.14,WSW,241,1.0,1.0,95,0.00,,---,0.00,VWS V14.01,2013-06-25 10:45:00,
2013-06-25 06:46:00,70.2,68.7,30.14,West,259,1.0,1.0,95,0.00,,---,0.00,VWS V14.01,2013-06-25 10:46:00,
2013-06-25 06:47:00,70.2,68.7,30.14,WSW,257,1.0,3.0,95,0.00,,---,0.00,VWS V14.01,2013-06-25 10:47:00,
2013-06-25 06:48:00,70.3,68.8,30.14,West,273,2.0,3.0,95,0.00,,---,0.00,VWS V14.01,2013-06-25 10:48:00,
2013-06-25 06:49:00,70.3,68.8,30.14,WSW,238,2.0,2.0,95,0.00,,---,0.00,VWS V14.01,2013-06-25 10:49:00,
2013-06-25 06:50:00,70.3,68.8,30.14,WSW,256,2.0,4.0,95,0.00,,---,0.00,VWS V14.01,2013-06-25 10:50:00,
2013-06-25 06:51:00,70.3,68.8,30.14,West,264,1.0,4.0,95,0.00,,---,0.00,VWS V14.01,2013-06-25 10:51:00,
2013-06-25 06:52:00,70.3,68.8,30.14,WSW,248,0.0,2.0,95,0.00,,---,0.00,VWS V14.01,2013-06-25 10:52:00,
2013-06-25 06:53:00,70.3,68.8,30.14,SSE,164,2.0,2.0,95,0.00,,---,0.00,VWS V14.01,2013-06-25 10:53:00,
2013-06-25 06:54:00,70.4,68.9,30.14,SSW,196,0.0,2.0,95,0.00,,---,0.00,VWS V14.01,2013-06-25 10:54:00,
2013-06-25 06:55:00,70.4,68.9,30.14,SW,222,2.0,2.0,95,0.00,,---,0.00,VWS V14.01,2013-06-25 10:55:00,
2013-06-25 06:56:00,70.4,68.9,30.14,SW,225,2.0,2.0,95,0.00,,---,0.00,VWS V14.01,2013-06-25 10:56:00,
2013-06-25 06:57:00,70.5,69.0,30.14,West,265,1.0,2.0,95,0.00,,---,0.00,VWS V14.01,2013-06-25 10:57:00,
2013-06-25 06:58:00,70.5,69.0,30.14,SW,233,1.0,1.0,95,0.00,,---,0.00,VWS V14.01,2013-06-25 10:58:00,
2013-06-25 06:59:00,70.5,69.0,30.14,SSW,202,0.0,1.0,95,0.00,,---,0.00,VWS V14.01,2013-06-25 10:59:00,
2013-06-25 07:00:00,70.5,69.0,30.14,West,271,2.0,4.0,95,0.00,,---,0.00,VWS V14.01,2013-06-25 11:00:00,
2013-06-25 07:01:00,70.6,69.1,30.14,SW,225,2.0,4.0,95,0.00,,---,0.00,VWS V14.01,2013-06-25 11:01:00,
2013-06-25 07:02:00,70.6,69.1,30.14,SW,232,2.0,2.0,95,0.00,,---,0.00,VWS V14.01,2013-06-25 11:02:00,
2013-06-25 07:03:00,70.6,69.1,30.14,SW,221,3.0,4.0,95,0.00,,---,0.00,VWS V14.01,2013-06-25 11:03:00,
2013-06-25 07:04:00,70.6,69.1,30.14,SSW,210,2.0,4.0,95,0.00,,---,0.00,VWS V14.01,2013-06-25 11:04:00,
2013-06-25 07:05:00,70.6,69.1,30.14,West,260,1.0,1.0,95,0.00,,---,0.00,VWS V14.01,2013-06-25 11:05:00,
2013-06-25 07:06:00,70.7,69.2,30.14,WSW,250,2.0,2.0,95,0.00,,---,0.00,VWS V14.01,2013-06-25 11:06:00,
2013-06-25 07:07:00,70.7,69.2,30.14,WSW,252,1.0,2.0,95,0.00,,---,0.00,VWS V14.01,2013-06-25 11:07:00,
2013-06-25 07:08:00,70.7,69.2,30.14,WSW,237,3.0,3.0,95,0.00,,---,0.00,VWS V14.01,2013-06-25 11:08:00,
2013-06-25 07:09:00,70.7,69.2,30.13,South,181,2.0,3.0,95,0.00,,---,0.00,VWS V14.01,2013-06-25 11:09:00,
2013-06-25 07:10:00,70.8,69.3,30.14,WSW,255,1.0,2.0,95,0.00,,---,0.00,VWS V14.01,2013-06-25 11:10:00,
2013-06-25 07:11:00,70.8,69.3,30.14,SW,221,1.0,5.0,95,0.00,,---,0.00,VWS V14.01,2013-06-25 11:11:00,
2013-06-25 07:12:00,70.8,69.3,30.14,WSW,254,1.0,1.0,95,0.00,,---,0.00,VWS V14.01,2013-06-25 11:12:00,
2013-06-25 07:13:00,70.8,69.3,30.14,SW,225,1.0,3.0,95,0.00,,---,0.00,VWS V14.01,2013-06-25 11:13:00,
2013-06-25 07:14:00,70.9,69.4,30.13,West,279,2.0,2.0,95,0.00,,---,0.00,VWS V14.01,2013-06-25 11:14:00,
2013-06-25 07:15:00,70.9,69.4,30.13,SW,218,3.0,3.0,95,0.00,,---,0.00,VWS V14.01,2013-06-25 11:15:00,
2013-06-25 07:16:00,70.9,69.4,30.13,WSW,249,1.0,3.0,95,0.00,,---,0.00,VWS V14.01,2013-06-25 11:16:00,
2013-06-25 07:17:00,71.0,69.5,30.13,SSW,203,2.0,3.0,95,0.00,,---,0.00,VWS V14.01,2013-06-25 11:17:00,
2013-06-25 07:18:00,71.0,69.5,30.13,SW,219,1.0,3.0,95,0.00,,---,0.00,VWS V14.01,2013-06-25 11:18:00,
2013-06-25 07:19:00,71.0,69.5,30.13,SW,219,3.0,3.0,95,0.00,,---,0.00,VWS V14.01,2013-06-25 11:19:00,
2013-06-25 07:20:00,71.1,69.6,30.14,WSW,254,2.0,2.0,95,0.00,,---,0.00,VWS V14.01,2013-06-25 11:20:00,
2013-06-25 07:21:00,71.1,69.6,30.14,SW,217,3.0,3.0,95,0.00,,---,0.00,VWS V14.01,2013-06-25 11:21:00,
2013-06-25 07:22:00,71.1,69.6,30.14,SW,227,4.0,4.0,95,0.00,,---,0.00,VWS V14.01,2013-06-25 11:22:00,
2013-06-25 07:23:00,71.2,69.7,30.14,WNW,284,1.0,4.0,95,0.00,,---,0.00,VWS V14.01,2013-06-25 11:23:00,
2013-06-25 07:24:00,71.2,69.7,30.14,North,355,2.0,2.0,95,0.00,,---,0.00,VWS V14.01,2013-06-25 11:24:00,
2013-06-25 07:25:00,71.3,69.8,30.13,WNW,298,2.0,2.0,95,0.00,,---,0.00,VWS V14.01,2013-06-25 11:25:00,
2013-06-25 07:26:00,71.3,69.8,30.13,SW,233,2.0,2.0,95,0.00,,---,0.00,VWS V14.01,2013-06-25 11:26:00,
2013-06-25 07:27:00,71.4,69.9,30.13,SW,232,0.0,2.0,95,0.00,,---,0.00,VWS V14.01,2013-06-25 11:27:00,
2013-06-25 07:28:00,71.5,70.0,30.13,SW,232,1.0,1.0,95,0.00,,---,0.00,VWS V14.01,2013-06-25 11:28:00,
2013-06-25 07:29:00,71.5,70.0,30.13,SW,222,0.0,2.0,95,0.00,,---,0.00,VWS V14.01,2013-06-25 11:29:00,
2013-06-25 07:30:00,71.6,70.1,30.13,West,267,2.0,2.0,95,0.00,,---,0.00,VWS V14.01,2013-06-25 11:30:00,
2013-06-25 07:31:00,71.6,70.1,30.13,SW,223,0.0,2.0,95,0.00,,---,0.00,VWS V14.01,2013-06-25 11:31:00,
2013-06-25 07:32:00,71.7,70.2,30.13,WSW,254,2.0,2.0,95,0.00,,---,0.00,VWS V14.01,2013-06-25 11:32:00,
2013-06-25 07:33:00,71.7,70.2,30.13,WSW,254,1.0,2.0,95,0.00,,---,0.00,VWS V14.01,2013-06-25 11:33:00,
2013-06-25 07:34:00,71.8,70.3,30.13,WSW,246,3.0,4.0,95,0.00,,---,0.00,VWS V14.01,2013-06-25 11:34:00,
2013-06-25 07:35:00,71.8,70.3,30.13,WSW,252,1.0,1.0,95,0.00,,---,0.00,VWS V14.01,2013-06-25 11:35:00,
2013-06-25 07:36:00,71.9,70.4,30.13,WNW,300,1.0,3.0,95,0.00,,---,0.00,VWS V14.01,2013-06-25 11:36:00,
2013-06-25 07:37:00,71.9,70.4,30.13,WSW,252,2.0,2.0,95,0.00,,---,0.00,VWS V14.01,2013-06-25 11:37:00,
2013-06-25 07:38:00,72.0,70.5,30.13,WSW,254,4.0,4.0,95,0.00,,---,0.00,VWS V14.01,2013-06-25 11:38:00,
2013-06-25 07:39:00,72.0,70.2,30.13,SW,226,3.0,5.0,94,0.00,,---,0.00,VWS V14.01,2013-06-25 11:39:00,
2013-06-25 07:40:00,72.1,70.3,30.13,WSW,244,1.0,2.0,94,0.00,,---,0.00,VWS V14.01,2013-06-25 11:40:00,
2013-06-25 07:41:00,72.2,70.4,30.13,SW,223,1.0,3.0,94,0.00,,---,0.00,VWS V14.01,2013-06-25 11:41:00,
2013-06-25 07:42:00,72.2,70.4,30.13,West,276,0.0,1.0,94,0.00,,---,0.00,VWS V14.01,2013-06-25 11:42:00,
2013-06-25 07:43:00,72.3,70.5,30.13,WNW,282,2.0,2.0,94,0.00,,---,0.00,VWS V14.01,2013-06-25 11:43:00,
2013-06-25 07:44:00,72.3,70.5,30.13,West,273,1.0,3.0,94,0.00,,---,0.00,VWS V14.01,2013-06-25 11:44:00,
2013-06-25 07:45:00,72.4,70.6,30.13,WNW,295,3.0,3.0,94,0.00,,---,0.00,VWS V14.01,2013-06-25 11:45:00,
2013-06-25 07:46:00,72.5,70.7,30.13,WNW,288,3.0,3.0,94,0.00,,---,0.00,VWS V14.01,2013-06-25 11:46:00,
2013-06-25 07:47:00,72.5,70.7,30.13,West,269,5.0,5.0,94,0.00,,---,0.00,VWS V14.01,2013-06-25 11:47:00,
2013-06-25 07:48:00,72.6,70.8,30.13,WNW,284,3.0,5.0,94,0.00,,---,0.00,VWS V14.01,2013-06-25 11:48:00,
2013-06-25 07:49:00,72.7,70.9,30.13,West,280,6.0,7.0,94,0.00,,---,0.00,VWS V14.01,2013-06-25 11:49:00,
2013-06-25 07:50:00,72.7,70.6,30.13,SW,233,2.0,2.0,93,0.00,,---,0.00,VWS V14.01,2013-06-25 11:50:00,
2013-06-25 07:51:00,72.8,70.7,30.13,South,184,2.0,4.0,93,0.00,,---,0.00,VWS V14.01,2013-06-25 11:51:00,
2013-06-25 07:52:00,72.8,71.0,30.13,WNW,290,2.0,3.0,94,0.00,,---,0.00,VWS V14.01,2013-06-25 11:52:00,
2013-06-25 07:53:00,72.9,70.8,30.13,SW,236,4.0,4.0,93,0.00,,---,0.00,VWS V14.01,2013-06-25 11:53:00,
2013-06-25 07:54:00,73.0,70.9,30.13,WSW,242,1.0,4.0,93,0.00,,---,0.00,VWS V14.01,2013-06-25 11:54:00,
2013-06-25 07:55:00,73.1,71.0,30.13,SSW,207,3.0,3.0,93,0.00,,---,0.00,VWS V14.01,2013-06-25 11:55:00,
2013-06-25 07:56:00,73.2,71.1,30.13,SW,217,1.0,4.0,93,0.00,,---,0.00,VWS V14.01,2013-06-25 11:56:00,
2013-06-25 07:57:00,73.2,71.1,30.13,SSW,196,2.0,3.0,93,0.00,,---,0.00,VWS V14.01,2013-06-25 11:57:00,
2013-06-25 07:58:00,73.3,71.2,30.13,West,261,3.0,3.0,93,0.00,,---,0.00,VWS V14.01,2013-06-25 11:58:00,
2013-06-25 07:59:00,73.4,71.3,30.13,WSW,256,2.0,3.0,93,0.00,,---,0.00,VWS V14.01,2013-06-25 11:59:00,
2013-06-25 08:00:00,73.5,71.4,30.13,West,271,1.0,2.0,93,0.00,,---,0.00,VWS V14.01,2013-06-25 12:00:00,
2013-06-25 08:01:00,73.6,71.5,30.13,West,280,2.0,3.0,93,0.00,,---,0.00,VWS V14.01,2013-06-25 12:01:00,
2013-06-25 08:02:00,73.7,71.6,30.13,SW,221,4.0,4.0,93,0.00,,---,0.00,VWS V14.01,2013-06-25 12:02:00,
2013-06-25 08:03:00,73.8,71.3,30.13,WSW,248,2.0,4.0,92,0.00,,---,0.00,VWS V14.01,2013-06-25 12:03:00,
2013-06-25 08:04:00,73.8,71.3,30.13,West,276,2.0,3.0,92,0.00,,---,0.00,VWS V14.01,2013-06-25 12:04:00,
2013-06-25 08:05:00,73.9,71.4,30.13,West,278,2.0,3.0,92,0.00,,---,0.00,VWS V14.01,2013-06-25 12:05:00,
2013-06-25 08:06:00,73.9,71.4,30.13,WNW,298,3.0,5.0,92,0.00,,---,0.00,VWS V14.01,2013-06-25 12:06:00,
2013-06-25 08:07:00,74.0,71.5,30.13,West,278,3.0,3.0,92,0.00,,---,0.00,VWS V14.01,2013-06-25 12:07:00,
2013-06-25 08:08:00,74.1,71.6,30.13,SW,225,2.0,4.0,92,0.00,,---,0.00,VWS V14.01,2013-06-25 12:08:00,
2013-06-25 08:09:00,74.1,71.6,30.13,WSW,256,1.0,3.0,92,0.00,,---,0.00,VWS V14.01,2013-06-25 12:09:00,
2013-06-25 08:10:00,74.2,71.7,30.13,WSW,240,0.0,1.0,92,0.00,,---,0.00,VWS V14.01,2013-06-25 12:10:00,
2013-06-25 08:11:00,74.2,71.7,30.13,West,271,3.0,4.0,92,0.00,,---,0.00,VWS V14.01,2013-06-25 12:11:00,
2013-06-25 08:12:00,74.3,71.5,30.13,WSW,242,4.0,4.0,91,0.00,,---,0.00,VWS V14.01,2013-06-25 12:12:00,
2013-06-25 08:13:00,74.4,71.6,30.13,WNW,282,5.0,7.0,91,0.00,,---,0.00,VWS V14.01,2013-06-25 12:13:00,
2013-06-25 08:14:00,74.4,71.6,30.13,West,281,3.0,9.0,91,0.00,,---,0.00,VWS V14.01,2013-06-25 12:14:00,
2013-06-25 08:15:00,74.5,71.7,30.13,WSW,240,1.0,2.0,91,0.00,,---,0.00,VWS V14.01,2013-06-25 12:15:00,
2013-06-25 08:16:00,74.5,71.7,30.13,WSW,252,1.0,2.0,91,0.00,,---,0.00,VWS V14.01,2013-06-25 12:16:00,
2013-06-25 08:17:00,74.6,71.8,30.13,NW,305,4.0,8.0,91,0.00,,---,0.00,VWS V14.01,2013-06-25 12:17:00,
2013-06-25 08:18:00,74.6,71.8,30.13,West,273,3.0,5.0,91,0.00,,---,0.00,VWS V14.01,2013-06-25 12:18:00,
2013-06-25 08:19:00,74.7,71.9,30.13,West,281,3.0,3.0,91,0.00,,---,0.00,VWS V14.01,2013-06-25 12:19:00,
2013-06-25 08:20:00,74.7,71.6,30.14,NNW,328,5.0,5.0,90,0.00,,---,0.00,VWS V14.01,2013-06-25 12:20:00,
2013-06-25 08:21:00,74.8,71.7,30.14,SW,236,4.0,6.0,90,0.00,,---,0.00,VWS V14.01,2013-06-25 12:21:00,
2013-06-25 08:22:00,74.9,71.8,30.13,West,259,4.0,6.0,90,0.00,,---,0.00,VWS V14.01,2013-06-25 12:22:00,
2013-06-25 08:23:00,74.9,71.8,30.13,WNW,288,2.0,4.0,90,0.00,,---,0.00,VWS V14.01,2013-06-25 12:23:00,
2013-06-25 08:24:00,74.9,71.8,30.13,SW,215,1.0,5.0,90,0.00,,---,0.00,VWS V14.01,2013-06-25 12:24:00,
2013-06-25 08:25:00,75.0,71.9,30.13,WSW,257,1.0,1.0,90,0.00,,---,0.00,VWS V14.01,2013-06-25 12:25:00,
2013-06-25 08:26:00,75.0,71.9,30.13,West,259,3.0,6.0,90,0.00,,---,0.00,VWS V14.01,2013-06-25 12:26:00,
2013-06-25 08:27:00,75.1,72.0,30.13,WSW,237,4.0,5.0,90,0.00,,---,0.00,VWS V14.01,2013-06-25 12:27:00,
2013-06-25 08:28:00,75.1,71.6,30.13,SW,230,4.0,7.0,89,0.00,,---,0.00,VWS V14.01,2013-06-25 12:28:00,
2013-06-25 08:29:00,75.1,71.6,30.13,WSW,252,3.0,4.0,89,0.00,,---,0.00,VWS V14.01,2013-06-25 12:29:00,
2013-06-25 08:30:00,75.2,71.7,30.13,WSW,240,3.0,5.0,89,0.00,,---,0.00,VWS V14.01,2013-06-25 12:30:00,
2013-06-25 08:31:00,75.2,71.7,30.13,WSW,245,2.0,3.0,89,0.00,,---,0.00,VWS V14.01,2013-06-25 12:31:00,
2013-06-25 08:32:00,75.3,71.8,30.13,SW,215,5.0,7.0,89,0.00,,---,0.00,VWS V14.01,2013-06-25 12:32:00,
2013-06-25 08:33:00,75.3,71.8,30.13,WSW,250,5.0,7.0,89,0.00,,---,0.00,VWS V14.01,2013-06-25 12:33:00,
2013-06-25 08:34:00,75.3,71.8,30.13,WSW,254,6.0,6.0,89,0.00,,---,0.00,VWS V14.01,2013-06-25 12:34:00,
2013-06-25 08:35:00,75.3,71.8,30.13,West,269,2.0,2.0,89,0.00,,---,0.00,VWS V14.01,2013-06-25 12:35:00,
2013-06-25 08:36:00,75.3,71.8,30.13,SW,225,3.0,3.0,89,0.00,,---,0.00,VWS V14.01,2013-06-25 12:36:00,
2013-06-25 08:37:00,75.4,71.9,30.13,WNW,287,3.0,3.0,89,0.00,,---,0.00,VWS V14.01,2013-06-25 12:37:00,
2013-06-25 08:38:00,75.4,71.9,30.13,SSW,213,5.0,5.0,89,0.00,,---,0.00,VWS V14.01,2013-06-25 12:38:00,
2013-06-25 08:39:00,75.5,72.0,30.13,SSW,192,4.0,5.0,89,0.00,,---,0.00,VWS V14.01,2013-06-25 12:39:00,
2013-06-25 08:40:00,75.5,72.0,30.13,WSW,240,5.0,5.0,89,0.00,,---,0.00,VWS V14.01,2013-06-25 12:40:00,
2013-06-25 08:41:00,75.5,72.0,30.13,SW,232,3.0,5.0,89,0.00,,---,0.00,VWS V14.01,2013-06-25 12:41:00,
2013-06-25 08:42:00,75.5,72.0,30.13,WSW,252,4.0,7.0,89,0.00,,---,0.00,VWS V14.01,2013-06-25 12:42:00,
2013-06-25 08:43:00,75.5,72.0,30.13,SSW,199,4.0,5.0,89,0.00,,---,0.00,VWS V14.01,2013-06-25 12:43:00,
2013-06-25 08:44:00,75.5,72.0,30.14,SSW,199,4.0,4.0,89,0.00,,---,0.00,VWS V14.01,2013-06-25 12:44:00,
2013-06-25 08:45:00,75.5,72.0,30.14,West,272,6.0,6.0,89,0.00,,---,0.00,VWS V14.01,2013-06-25 12:45:00,
2013-06-25 08:46:00,75.5,72.0,30.14,WSW,246,4.0,6.0,89,0.00,,---,0.00,VWS V14.01,2013-06-25 12:46:00,
2013-06-25 08:47:00,75.5,72.0,30.14,West,267,4.0,6.0,89,0.00,,---,0.00,VWS V14.01,2013-06-25 12:47:00,
2013-06-25 08:48:00,75.5,72.0,30.14,West,272,2.0,7.0,89,0.00,,---,0.00,VWS V14.01,2013-06-25 12:48:00,
2013-06-25 08:49:00,75.7,72.2,30.14,SSW,211,3.0,6.0,89,0.00,,---,0.00,VWS V14.01,2013-06-25 12:49:00,
2013-06-25 08:50:00,75.7,72.2,30.14,SW,229,4.0,5.0,89,0.00,,---,0.00,VWS V14.01,2013-06-25 12:50:00,
2013-06-25 08:51:00,75.7,72.2,30.14,WNW,301,2.0,5.0,89,0.00,,---,0.00,VWS V14.01,2013-06-25 12:51:00,
2013-06-25 08:52:00,75.8,72.0,30.14,WSW,242,2.0,3.0,88,0.00,,---,0.00,VWS V14.01,2013-06-25 12:52:00,
2013-06-25 08:53:00,75.9,72.4,30.14,SE,144,2.0,3.0,89,0.00,,---,0.00,VWS V14.01,2013-06-25 12:53:00,
2013-06-25 08:54:00,75.9,72.1,30.13,WSW,248,2.0,5.0,88,0.00,,---,0.00,VWS V14.01,2013-06-25 12:54:00,
2013-06-25 08:55:00,76.0,72.2,30.13,WSW,252,4.0,5.0,88,0.00,,---,0.00,VWS V14.01,2013-06-25 12:55:00,
2013-06-25 08:56:00,76.0,72.2,30.13,NW,310,5.0,6.0,88,0.00,,---,0.00,VWS V14.01,2013-06-25 12:56:00,
2013-06-25 08:57:00,76.0,71.9,30.13,WNW,288,3.0,12.0,87,0.00,,---,0.00,VWS V14.01,2013-06-25 12:57:00,
2013-06-25 08:58:00,75.9,72.1,30.13,West,281,4.0,7.0,88,0.00,,---,0.00,VWS V14.01,2013-06-25 12:58:00,
2013-06-25 08:59:00,75.9,72.1,30.14,WNW,284,6.0,7.0,88,0.00,,---,0.00,VWS V14.01,2013-06-25 12:59:00,
2013-06-25 09:00:00,75.9,72.1,30.14,West,275,3.0,6.0,88,0.00,,---,0.00,VWS V14.01,2013-06-25 13:00:00,
2013-06-25 09:01:00,75.9,72.1,30.14,SW,217,4.0,4.0,88,0.00,,---,0.00,VWS V14.01,2013-06-25 13:01:00,
2013-06-25 09:02:00,76.0,72.2,30.14,WNW,283,3.0,5.0,88,0.00,,---,0.00,VWS V14.01,2013-06-25 13:02:00,
2013-06-25 09:03:00,76.0,72.2,30.14,SW,229,7.0,7.0,88,0.00,,---,0.00,VWS V14.01,2013-06-25 13:03:00,
2013-06-25 09:04:00,76.1,71.9,30.14,South,186,3.0,10.0,87,0.00,,---,0.00,VWS V14.01,2013-06-25 13:04:00,
2013-06-25 09:05:00,76.1,72.3,30.14,West,267,4.0,4.0,88,0.00,,---,0.00,VWS V14.01,2013-06-25 13:05:00,
2013-06-25 09:06:00,76.1,71.9,30.14,WSW,242,6.0,6.0,87,0.00,,---,0.00,VWS V14.01,2013-06-25 13:06:00,
2013-06-25 09:07:00,76.1,71.9,30.14,WNW,299,2.0,8.0,87,0.00,,---,0.00,VWS V14.01,2013-06-25 13:07:00,
2013-06-25 09:08:00,76.1,72.3,30.14,WNW,302,5.0,8.0,88,0.00,,---,0.00,VWS V14.01,2013-06-25 13:08:00,
2013-06-25 09:09:00,76.2,72.4,30.14,West,272,6.0,6.0,88,0.00,,---,0.00,VWS V14.01,2013-06-25 13:09:00,
2013-06-25 09:10:00,76.2,72.4,30.14,West,273,9.0,10.0,88,0.00,,---,0.00,VWS V14.01,2013-06-25 13:10:00,
2013-06-25 09:11:00,76.2,72.1,30.14,SW,217,7.0,9.0,87,0.00,,---,0.00,VWS V14.01,2013-06-25 13:11:00,
2013-06-25 09:12:00,76.3,72.2,30.14,WNW,284,2.0,8.0,87,0.00,,---,0.00,VWS V14.01,2013-06-25 13:12:00,
2013-06-25 09:13:00,76.3,72.2,30.14,WNW,283,4.0,7.0,87,0.00,,---,0.00,VWS V14.01,2013-06-25 13:13:00,
2013-06-25 09:14:00,76.4,72.2,30.14,West,281,4.0,5.0,87,0.00,,---,0.00,VWS V14.01,2013-06-25 13:14:00,
2013-06-25 09:15:00,76.5,72.3,30.14,WSW,254,8.0,8.0,87,0.00,,---,0.00,VWS V14.01,2013-06-25 13:15:00,
2013-06-25 09:16:00,76.6,72.4,30.14,West,271,4.0,9.0,87,0.00,,---,0.00,VWS V14.01,2013-06-25 13:16:00,
2013-06-25 09:17:00,76.6,72.4,30.14,SSW,210,1.0,6.0,87,0.00,,---,0.00,VWS V14.01,2013-06-25 13:17:00,
2013-06-25 09:18:00,76.7,72.5,30.14,West,280,1.0,6.0,87,0.00,,---,0.00,VWS V14.01,2013-06-25 13:18:00,
2013-06-25 09:19:00,76.8,72.6,30.14,West,279,4.0,5.0,87,0.00,,---,0.00,VWS V14.01,2013-06-25 13:19:00,
2013-06-25 09:20:00,76.8,72.3,30.14,WNW,286,2.0,2.0,86,0.00,,---,0.00,VWS V14.01,2013-06-25 13:20:00,
2013-06-25 09:21:00,76.9,72.4,30.14,West,280,5.0,9.0,86,0.00,,---,0.00,VWS V14.01,2013-06-25 13:21:00,
2013-06-25 09:22:00,76.9,72.4,30.14,WNW,290,2.0,5.0,86,0.00,,---,0.00,VWS V14.01,2013-06-25 13:22:00,
2013-06-25 09:23:00,77.0,72.5,30.14,SW,229,9.0,9.0,86,0.00,,---,0.00,VWS V14.01,2013-06-25 13:23:00,
2013-06-25 09:24:00,77.0,72.5,30.14,West,263,1.0,9.0,86,0.00,,---,0.00,VWS V14.01,2013-06-25 13:24:00,
2013-06-25 09:25:00,77.0,72.5,30.14,WSW,241,4.0,6.0,86,0.00,,---,0.00,VWS V14.01,2013-06-25 13:25:00,
2013-06-25 09:26:00,77.1,72.6,30.14,East,96,2.0,5.0,86,0.00,,---,0.00,VWS V14.01,2013-06-25 13:26:00,
2013-06-25 09:27:00,77.2,72.7,30.13,SSW,213,6.0,6.0,86,0.00,,---,0.00,VWS V14.01,2013-06-25 13:27:00,
2013-06-25 09:28:00,77.2,72.7,30.14,SW,214,4.0,7.0,86,0.00,,---,0.00,VWS V14.01,2013-06-25 13:28:00,
2013-06-25 09:29:00,77.3,72.4,30.13,SW,225,5.0,8.0,85,0.00,,---,0.00,VWS V14.01,2013-06-25 13:29:00,
2013-06-25 09:30:00,77.3,72.4,30.13,WSW,241,3.0,7.0,85,0.00,,---,0.00,VWS V14.01,2013-06-25 13:30:00,
2013-06-25 09:31:00,77.3,72.4,30.13,WNW,290,2.0,7.0,85,0.00,,---,0.00,VWS V14.01,2013-06-25 13:31:00,
2013-06-25 09:32:00,77.4,72.5,30.13,WSW,244,4.0,4.0,85,0.00,,---,0.00,VWS V14.01,2013-06-25 13:32:00,
2013-06-25 09:33:00,77.5,72.6,30.13,West,273,6.0,8.0,85,0.00,,---,0.00,VWS V14.01,2013-06-25 13:33:00,
2013-06-25 09:34:00,77.5,72.6,30.13,WNW,283,3.0,7.0,85,0.00,,---,0.00,VWS V14.01,2013-06-25 13:34:00,
2013-06-25 09:35:00,77.6,73.1,30.13,WSW,256,5.0,6.0,86,0.00,,---,0.00,VWS V14.01,2013-06-25 13:35:00,
2013-06-25 09:36:00,77.6,72.7,30.13,West,264,8.0,8.0,85,0.00,,---,0.00,VWS V14.01,2013-06-25 13:36:00,
2013-06-25 09:37:00,77.6,72.7,30.13,WNW,284,2.0,8.0,85,0.00,,---,0.00,VWS V14.01,2013-06-25 13:37:00,
2013-06-25 09:38:00,77.7,72.8,30.14,WSW,256,0.0,5.0,85,0.00,,---,0.00,VWS V14.01,2013-06-25 13:38:00,
2013-06-25 09:39:00,77.7,72.8,30.14,SSW,209,2.0,4.0,85,0.00,,---,0.00,VWS V14.01,2013-06-25 13:39:00,
2013-06-25 09:40:00,77.9,73.0,30.14,WSW,241,3.0,5.0,85,0.00,,---,0.00,VWS V14.01,2013-06-25 13:40:00,
2013-06-25 09:41:00,78.0,73.1,30.14,WNW,296,6.0,6.0,85,0.00,,---,0.00,VWS V14.01,2013-06-25 13:41:00,
2013-06-25 09:42:00,78.1,73.2,30.14,WNW,298,4.0,8.0,85,0.00,,---,0.00,VWS V14.01,2013-06-25 13:42:00,
2013-06-25 09:43:00,78.2,73.0,30.14,WNW,291,3.0,6.0,84,0.00,,---,0.00,VWS V14.01,2013-06-25 13:43:00,
2013-06-25 09:44:00,78.2,73.0,30.14,WSW,237,5.0,7.0,84,0.00,,---,0.00,VWS V14.01,2013-06-25 13:44:00,
2013-06-25 09:45:00,78.3,73.1,30.14,South,178,1.0,6.0,84,0.00,,---,0.00,VWS V14.01,2013-06-25 13:45:00,
2013-06-25 09:46:00,78.3,73.1,30.14,SSW,210,5.0,7.0,84,0.00,,---,0.00,VWS V14.01,2013-06-25 13:46:00,
2013-06-25 09:47:00,78.4,73.2,30.14,WSW,245,1.0,5.0,84,0.00,,---,0.00,VWS V14.01,2013-06-25 13:47:00,
2013-06-25 09:48:00,78.4,73.2,30.13,South,176,1.0,3.0,84,0.00,,---,0.00,VWS V14.01,2013-06-25 13:48:00,
2013-06-25 09:49:00,78.5,73.3,30.13,WSW,258,5.0,5.0,84,0.00,,---,0.00,VWS V14.01,2013-06-25 13:49:00,
2013-06-25 09:50:00,78.6,73.0,30.13,SW,232,3.0,5.0,83,0.00,,---,0.00,VWS V14.01,2013-06-25 13:50:00,
2013-06-25 09:51:00,78.7,73.5,30.13,WSW,245,3.0,5.0,84,0.00,,---,0.00,VWS V14.01,2013-06-25 13:51:00,
2013-06-25 09:52:00,78.7,73.1,30.13,SW,229,5.0,5.0,83,0.00,,---,0.00,VWS V14.01,2013-06-25 13:52:00,
2013-06-25 09:53:00,78.8,73.2,30.13,WSW,250,2.0,7.0,83,0.00,,---,0.00,VWS V14.01,2013-06-25 13:53:00,
2013-06-25 09:54:00,78.8,73.2,30.13,WSW,250,3.0,4.0,83,0.00,,---,0.00,VWS V14.01,2013-06-25 13:54:00,
2013-06-25 09:55:00,78.8,72.8,30.13,WSW,248,2.0,6.0,82,0.00,,---,0.00,VWS V14.01,2013-06-25 13:55:00,
2013-06-25 09:56:00,78.8,72.8,30.13,SW,221,4.0,7.0,82,0.00,,---,0.00,VWS V14.01,2013-06-25 13:56:00,
2013-06-25 09:57:00,78.8,72.8,30.13,West,281,3.0,4.0,82,0.00,,---,0.00,VWS V14.01,2013-06-25 13:57:00,
2013-06-25 09:58:00,78.8,73.2,30.13,WSW,245,0.0,3.0,83,0.00,,---,0.00,VWS V14.01,2013-06-25 13:58:00,
2013-06-25 09:59:00,78.9,73.3,30.13,SSW,200,1.0,3.0,83,0.00,,---,0.00,VWS V14.01,2013-06-25 13:59:00,
2013-06-25 10:00:00,78.9,73.3,30.13,WSW,252,4.0,6.0,83,0.00,,---,0.00,VWS V14.01,2013-06-25 14:00:00,
2013-06-25 10:01:00,79.0,73.4,30.13,West,260,3.0,4.0,83,0.00,,---,0.00,VWS V14.01,2013-06-25 14:01:00,
2013-06-25 10:02:00,79.0,73.4,30.13,WNW,282,3.0,4.0,83,0.00,,---,0.00,VWS V14.01,2013-06-25 14:02:00,
2013-06-25 10:03:00,79.1,73.5,30.14,WSW,252,4.0,4.0,83,0.00,,---,0.00,VWS V14.01,2013-06-25 14:03:00,
2013-06-25 10:04:00,79.2,73.6,30.14,WNW,295,2.0,4.0,83,0.00,,---,0.00,VWS V14.01,2013-06-25 14:04:00,
2013-06-25 10:05:00,79.2,73.6,30.13,WSW,252,2.0,2.0,83,0.00,,---,0.00,VWS V14.01,2013-06-25 14:05:00,
2013-06-25 10:06:00,79.3,73.3,30.13,SW,227,5.0,7.0,82,0.00,,---,0.00,VWS V14.01,2013-06-25 14:06:00,
2013-06-25 10:07:00,79.3,73.3,30.13,West,269,2.0,5.0,82,0.00,,---,0.00,VWS V14.01,2013-06-25 14:07:00,
2013-06-25 10:08:00,79.4,73.4,30.13,WSW,241,7.0,7.0,82,0.00,,---,0.00,VWS V14.01,2013-06-25 14:08:00,
2013-06-25 10:09:00,79.4,73.1,30.13,SSW,196,4.0,7.0,81,0.00,,---,0.00,VWS V14.01,2013-06-25 14:09:00,
2013-06-25 10:10:00,79.4,73.4,30.13,West,279,4.0,6.0,82,0.00,,---,0.00,VWS V14.01,2013-06-25 14:10:00,
2013-06-25 10:11:00,79.4,73.4,30.13,SW,229,4.0,6.0,82,0.00,,---,0.00,VWS V14.01,2013-06-25 14:11:00,
2013-06-25 10:12:00,79.3,73.3,30.13,WSW,257,3.0,4.0,82,0.00,,---,0.00,VWS V14.01,2013-06-25 14:12:00,
2013-06-25 10:13:00,79.4,73.8,30.13,WNW,282,2.0,3.0,83,0.00,,---,0.00,VWS V14.01,2013-06-25 14:13:00,
2013-06-25 10:14:00,79.5,73.9,30.13,SE,136,2.0,3.0,83,0.00,,---,0.00,VWS V14.01,2013-06-25 14:14:00,
2013-06-25 10:15:00,79.6,73.6,30.13,West,267,2.0,2.0,82,0.00,,---,0.00,VWS V14.01,2013-06-25 14:15:00,
2013-06-25 10:16:00,79.7,73.7,30.13,WNW,282,4.0,4.0,82,0.00,,---,0.00,VWS V14.01,2013-06-25 14:16:00,
2013-06-25 10:17:00,79.7,73.4,30.13,South,178,5.0,6.0,81,0.00,,---,0.00,VWS V14.01,2013-06-25 14:17:00,
2013-06-25 10:18:00,79.7,73.4,30.13,SW,218,3.0,6.0,81,0.00,,---,0.00,VWS V14.01,2013-06-25 14:18:00,
2013-06-25 10:19:00,79.7,73.4,30.13,SSW,200,4.0,4.0,81,0.00,,---,0.00,VWS V14.01,2013-06-25 14:19:00,
2013-06-25 10:20:00,79.7,73.4,30.13,WSW,246,5.0,6.0,81,0.00,,---,0.00,VWS V14.01,2013-06-25 14:20:00,
2013-06-25 10:21:00,79.7,73.4,30.13,SW,233,2.0,6.0,81,0.00,,---,0.00,VWS V14.01,2013-06-25 14:21:00,
2013-06-25 10:22:00,79.7,73.7,30.13,WSW,245,4.0,4.0,82,0.00,,---,0.00,VWS V14.01,2013-06-25 14:22:00,
2013-06-25 10:23:00,79.7,73.4,30.13,West,264,6.0,6.0,81,0.00,,---,0.00,VWS V14.01,2013-06-25 14:23:00,
2013-06-25 10:24:00,79.7,73.4,30.13,NW,321,1.0,6.0,81,0.00,,---,0.00,VWS V14.01,2013-06-25 14:24:00,
2013-06-25 10:25:00,79.8,73.8,30.13,WSW,254,3.0,3.0,82,0.00,,---,0.00,VWS V14.01,2013-06-25 14:25:00,
2013-06-25 10:26:00,79.9,73.9,30.13,SW,233,5.0,5.0,82,0.00,,---,0.00,VWS V14.01,2013-06-25 14:26:00,
2013-06-25 10:27:00,79.9,73.6,30.13,SW,223,4.0,5.0,81,0.00,,---,0.00,VWS V14.01,2013-06-25 14:27:00,
2013-06-25 10:28:00,79.9,73.6,30.13,West,261,3.0,4.0,81,0.00,,---,0.00,VWS V14.01,2013-06-25 14:28:00,
2013-06-25 10:29:00,79.9,73.6,30.13,SSW,209,1.0,6.0,81,0.00,,---,0.00,VWS V14.01,2013-06-25 14:29:00,
2013-06-25 10:30:00,79.9,73.6,30.13,NW,320,2.0,2.0,81,0.00,,---,0.00,VWS V14.01,2013-06-25 14:30:00,
2013-06-25 10:31:00,79.9,73.6,30.13,South,179,4.0,9.0,81,0.00,,---,0.00,VWS V14.01,2013-06-25 14:31:00,
2013-06-25 10:32:00,80.0,73.3,30.13,WNW,283,3.0,5.0,80,0.00,,---,0.00,VWS V14.01,2013-06-25 14:32:00,
2013-06-25 10:33:00,80.0,73.7,30.13,SW,217,4.0,5.0,81,0.00,,---,0.00,VWS V14.01,2013-06-25 14:33:00,
2013-06-25 10:34:00,80.0,73.7,30.13,WNW,290,6.0,6.0,81,0.00,,---,0.00,VWS V14.01,2013-06-25 14:34:00,
2013-06-25 10:35:00,80.0,72.9,30.13,WNW,300,8.0,11.0,79,0.00,,---,0.00,VWS V14.01,2013-06-25 14:35:00,
2013-06-25 10:36:00,80.1,73.0,30.13,West,269,5.0,9.0,79,0.00,,---,0.00,VWS V14.01,2013-06-25 14:36:00,
2013-06-25 10:37:00,80.1,73.0,30.13,SE,128,3.0,6.0,79,0.00,,---,0.00,VWS V14.01,2013-06-25 14:37:00,
2013-06-25 10:38:00,80.2,73.1,30.13,West,275,9.0,9.0,79,0.00,,---,0.00,VWS V14.01,2013-06-25 14:38:00,
2013-06-25 10:39:00,80.3,73.2,30.13,WNW,284,4.0,14.0,79,0.00,,---,0.00,VWS V14.01,2013-06-25 14:39:00,
2013-06-25 10:40:00,80.3,73.2,30.13,WNW,286,7.0,7.0,79,0.00,,---,0.00,VWS V14.01,2013-06-25 14:40:00,
2013-06-25 10:41:00,80.4,73.3,30.13,NNW,346,2.0,7.0,79,0.00,,---,0.00,VWS V14.01,2013-06-25 14:41:00,
2013-06-25 10:42:00,80.5,73.4,30.13,West,281,6.0,6.0,79,0.00,,---,0.00,VWS V14.01,2013-06-25 14:42:00,
2013-06-25 10:43:00,80.6,73.5,30.13,East,91,3.0,6.0,79,0.00,,---,0.00,VWS V14.01,2013-06-25 14:43:00,
2013-06-25 10:44:00,80.7,73.2,30.13,West,263,10.0,10.0,78,0.00,,---,0.00,VWS V14.01,2013-06-25 14:44:00,
2013-06-25 10:45:00,80.6,73.1,30.13,West,267,7.0,10.0,78,0.00,,---,0.00,VWS V14.01,2013-06-25 14:45:00,
2013-06-25 10:46:00,80.6,73.1,30.13,West,269,4.0,8.0,78,0.00,,---,0.00,VWS V14.01,2013-06-25 14:46:00,
2013-06-25 10:47:00,80.6,73.5,30.13,West,275,9.0,10.0,79,0.00,,---,0.00,VWS V14.01,2013-06-25 14:47:00,
2013-06-25 10:48:00,80.5,73.4,30.14,WNW,284,10.0,10.0,79,0.00,,---,0.00,VWS V14.01,2013-06-25 14:48:00,
2013-06-25 10:49:00,80.5,73.0,30.14,WNW,287,8.0,10.0,78,0.00,,---,0.00,VWS V14.01,2013-06-25 14:49:00,
2013-06-25 10:50:00,80.5,73.0,30.14,West,277,10.0,10.0,78,0.00,,---,0.00,VWS V14.01,2013-06-25 14:50:00,
2013-06-25 10:51:00,80.4,72.9,30.14,WSW,254,10.0,10.0,78,0.00,,---,0.00,VWS V14.01,2013-06-25 14:51:00,
2013-06-25 10:52:00,80.4,72.9,30.14,West,261,6.0,10.0,78,0.00,,---,0.00,VWS V14.01,2013-06-25 14:52:00,
2013-06-25 10:53:00,80.5,73.0,30.14,West,265,7.0,9.0,78,0.00,,---,0.00,VWS V14.01,2013-06-25 14:53:00,
2013-06-25 10:54:00,80.5,73.0,30.14,West,260,9.0,11.0,78,0.00,,---,0.00,VWS V14.01,2013-06-25 14:54:00,
2013-06-25 10:55:00,80.5,73.0,30.14,West,281,7.0,11.0,78,0.00,,---,0.00,VWS V14.01,2013-06-25 14:55:00,
2013-06-25 10:56:00,80.5,73.0,30.14,WNW,291,4.0,9.0,78,0.00,,---,0.00,VWS V14.01,2013-06-25 14:56:00,
2013-06-25 10:57:00,80.5,73.4,30.14,SW,223,1.0,8.0,79,0.00,,---,0.00,VWS V14.01,2013-06-25 14:57:00,
2013-06-25 10:58:00,80.6,73.5,30.14,WNW,295,3.0,4.0,79,0.00,,---,0.00,VWS V14.01,2013-06-25 14:58:00,
2013-06-25 10:59:00,80.8,73.7,30.14,West,276,3.0,4.0,79,0.00,,---,0.00,VWS V14.01,2013-06-25 14:59:00,
2013-06-25 11:00:00,80.8,73.7,30.14,WNW,292,2.0,4.0,79,0.00,,---,0.00,VWS V14.01,2013-06-25 15:00:00,
2013-06-25 11:01:00,81.0,73.9,30.14,WNW,284,12.0,12.0,79,0.00,,---,0.00,VWS V14.01,2013-06-25 15:01:00,
2013-06-25 11:02:00,80.9,73.0,30.14,West,269,7.0,14.0,77,0.00,,---,0.00,VWS V14.01,2013-06-25 15:02:00,
2013-06-25 11:03:00,80.8,72.9,30.14,WNW,286,8.0,10.0,77,0.00,,---,0.00,VWS V14.01,2013-06-25 15:03:00,
2013-06-25 11:04:00,80.6,72.7,30.14,West,281,11.0,12.0,77,0.00,,---,0.00,VWS V14.01,2013-06-25 15:04:00,
2013-06-25 11:05:00,80.6,72.7,30.14,West,276,6.0,12.0,77,0.00,,---,0.00,VWS V14.01,2013-06-25 15:05:00,
2013-06-25 11:06:00,80.5,73.0,30.14,West,278,9.0,10.0,78,0.00,,---,0.00,VWS V14.01,2013-06-25 15:06:00,
2013-06-25 11:07:00,80.4,72.9,30.14,WSW,256,5.0,9.0,78,0.00,,---,0.00,VWS V14.01,2013-06-25 15:07:00,
2013-06-25 11:08:00,80.5,73.0,30.14,WNW,283,5.0,8.0,78,0.00,,---,0.00,VWS V14.01,2013-06-25 15:08:00,
2013-06-25 11:09:00,80.5,73.4,30.14,NW,311,11.0,11.0,79,0.00,,---,0.00,VWS V14.01,2013-06-25 15:09:00,
2013-06-25 11:10:00,80.5,73.4,30.14,WNW,288,6.0,11.0,79,0.00,,---,0.00,VWS V14.01,2013-06-25 15:10:00,
2013-06-25 11:11:00,80.6,73.5,30.14,WNW,283,7.0,9.0,79,0.00,,---,0.00,VWS V14.01,2013-06-25 15:11:00,
2013-06-25 11:12:00,80.7,73.6,30.14,WNW,298,8.0,8.0,79,0.00,,---,0.00,VWS V14.01,2013-06-25 15:12:00,
2013-06-25 11:13:00,80.7,73.2,30.14,WSW,252,10.0,10.0,78,0.00,,---,0.00,VWS V14.01,2013-06-25 15:13:00,
2013-06-25 11:14:00,80.7,73.2,30.14,West,268,7.0,10.0,78,0.00,,---,0.00,VWS V14.01,2013-06-25 15:14:00,
2013-06-25 11:15:00,80.7,73.2,30.14,WNW,284,5.0,7.0,78,0.00,,---,0.00,VWS V14.01,2013-06-25 15:15:00,
2013-06-25 11:16:00,80.8,73.3,30.14,WNW,282,5.0,6.0,78,0.00,,---,0.00,VWS V14.01,2013-06-25 15:16:00,
2013-06-25 11:17:00,80.8,73.7,30.14,SW,232,4.0,6.0,79,0.00,,---,0.00,VWS V14.01,2013-06-25 15:17:00,
2013-06-25 11:18:00,80.9,73.8,30.14,SSW,194,4.0,5.0,79,0.00,,---,0.00,VWS V14.01,2013-06-25 15:18:00,
2013-06-25 11:19:00,81.1,74.0,30.14,West,275,9.0,9.0,79,0.00,,---,0.00,VWS V14.01,2013-06-25 15:19:00,
2013-06-25 11:20:00,81.1,73.6,30.14,WNW,286,7.0,9.0,78,0.00,,---,0.00,VWS V14.01,2013-06-25 15:20:00,
2013-06-25 11:21:00,81.2,74.1,30.14,West,279,6.0,8.0,79,0.00,,---,0.00,VWS V14.01,2013-06-25 15:21:00,
2013-06-25 11:22:00,81.3,74.2,30.14,West,267,3.0,6.0,79,0.00,,---,0.00,VWS V14.01,2013-06-25 15:22:00,
2013-06-25 11:23:00,81.4,74.3,30.14,WSW,240,1.0,4.0,79,0.00,,---,0.00,VWS V14.01,2013-06-25 15:23:00,
2013-06-25 11:24:00,81.6,74.1,30.14,WNW,283,2.0,11.0,78,0.00,,---,0.00,VWS V14.01,2013-06-25 15:24:00,
2013-06-25 11:25:00,81.6,73.7,30.14,SW,221,3.0,5.0,77,0.00,,---,0.00,VWS V14.01,2013-06-25 15:25:00,
2013-06-25 11:26:00,81.6,74.1,30.14,SE,135,2.0,3.0,78,0.00,,---,0.00,VWS V14.01,2013-06-25 15:26:00,
2013-06-25 11:27:00,81.8,74.3,30.14,SW,229,1.0,4.0,78,0.00,,---,0.00,VWS V14.01,2013-06-25 15:27:00,
2013-06-25 11:28:00,82.0,74.8,30.14,West,260,3.0,4.0,79,0.00,,---,0.00,VWS V14.01,2013-06-25 15:28:00,
2013-06-25 11:29:00,82.1,74.2,30.14,SW,225,3.0,6.0,77,0.00,,---,0.00,VWS V14.01,2013-06-25 15:29:00,
2013-06-25 11:30:00,82.2,74.3,30.14,SSW,196,1.0,4.0,77,0.00,,---,0.00,VWS V14.01,2013-06-25 15:30:00,
2013-06-25 11:31:00,82.4,74.5,30.14,West,261,5.0,5.0,77,0.00,,---,0.00,VWS V14.01,2013-06-25 15:31:00,
2013-06-25 11:32:00,82.5,74.2,30.14,NW,310,5.0,7.0,76,0.00,,---,0.00,VWS V14.01,2013-06-25 15:32:00,
2013-06-25 11:33:00,82.5,74.2,30.14,West,280,3.0,5.0,76,0.00,,---,0.00,VWS V14.01,2013-06-25 15:33:00,
2013-06-25 11:34:00,82.5,74.6,30.14,West,280,2.0,4.0,77,0.00,,---,0.00,VWS V14.01,2013-06-25 15:34:00,
2013-06-25 11:35:00,82.7,74.8,30.14,West,261,4.0,5.0,77,0.00,,---,0.00,VWS V14.01,2013-06-25 15:35:00,
2013-06-25 11:36:00,82.8,74.5,30.14,WSW,242,4.0,6.0,76,0.00,,---,0.00,VWS V14.01,2013-06-25 15:36:00,
2013-06-25 11:37:00,82.8,74.5,30.14,SSW,209,1.0,7.0,76,0.00,,---,0.00,VWS V14.01,2013-06-25 15:37:00,
2013-06-25 11:38:00,82.9,74.6,30.14,South,175,2.0,4.0,76,0.00,,---,0.00,VWS V14.01,2013-06-25 15:38:00,
2013-06-25 11:39:00,83.0,74.7,30.14,WSW,257,5.0,5.0,76,0.00,,---,0.00,VWS V14.01,2013-06-25 15:39:00,
2013-06-25 11:40:00,83.2,74.8,30.14,WNW,290,3.0,5.0,76,0.00,,---,0.00,VWS V14.01,2013-06-25 15:40:00,
2013-06-25 11:41:00,83.2,74.8,30.14,West,276,6.0,8.0,76,0.00,,---,0.00,VWS V14.01,2013-06-25 15:41:00,
2013-06-25 11:42:00,83.2,74.5,30.14,WNW,286,8.0,8.0,75,0.00,,---,0.00,VWS V14.01,2013-06-25 15:42:00,
2013-06-25 11:43:00,83.1,74.4,30.14,West,279,7.0,9.0,75,0.00,,---,0.00,VWS V14.01,2013-06-25 15:43:00,
2013-06-25 11:44:00,83.1,74.8,30.14,WNW,302,7.0,10.0,76,0.00,,---,0.00,VWS V14.01,2013-06-25 15:44:00,
2013-06-25 11:45:00,83.0,74.3,30.14,West,281,7.0,8.0,75,0.00,,---,0.00,VWS V14.01,2013-06-25 15:45:00,
2013-06-25 11:46:00,83.0,74.3,30.13,West,267,4.0,7.0,75,0.00,,---,0.00,VWS V14.01,2013-06-25 15:46:00,
2013-06-25 11:47:00,82.9,74.6,30.13,West,272,3.0,5.0,76,0.00,,---,0.00,VWS V14.01,2013-06-25 15:47:00,
2013-06-25 11:48:00,82.9,74.6,30.14,WSW,253,6.0,6.0,76,0.00,,---,0.00,VWS V14.01,2013-06-25 15:48:00,
2013-06-25 11:49:00,82.9,74.6,30.14,West,279,3.0,6.0,76,0.00,,---,0.00,VWS V14.01,2013-06-25 15:49:00,
2013-06-25 11:50:00,82.9,74.9,30.13,WSW,246,7.0,7.0,77,0.00,,---,0.00,VWS V14.01,2013-06-25 15:50:00,
2013-06-25 11:51:00,82.9,74.2,30.13,NW,313,4.0,10.0,75,0.00,,---,0.00,VWS V14.01,2013-06-25 15:51:00,
2013-06-25 11:52:00,82.9,74.2,30.13,WSW,244,5.0,7.0,75,0.00,,---,0.00,VWS V14.01,2013-06-25 15:52:00,
2013-06-25 11:53:00,82.9,74.2,30.13,West,267,1.0,6.0,75,0.00,,---,0.00,VWS V14.01,2013-06-25 15:53:00,
2013-06-25 11:54:00,83.0,74.7,30.13,West,263,3.0,3.0,76,0.00,,---,0.00,VWS V14.01,2013-06-25 15:54:00,
2013-06-25 11:55:00,83.1,74.4,30.13,WNW,286,5.0,5.0,75,0.00,,---,0.00,VWS V14.01,2013-06-25 15:55:00,
2013-06-25 11:56:00,83.2,74.8,30.13,SE,144,3.0,5.0,76,0.00,,---,0.00,VWS V14.01,2013-06-25 15:56:00,
2013-06-25 11:57:00,83.3,74.9,30.13,WSW,254,3.0,3.0,76,0.00,,---,0.00,VWS V14.01,2013-06-25 15:57:00,
2013-06-25 11:58:00,83.4,75.0,30.13,WSW,240,4.0,5.0,76,0.00,,---,0.00,VWS V14.01,2013-06-25 15:58:00,
2013-06-25 11:59:00,83.5,74.8,30.13,West,281,6.0,6.0,75,0.00,,---,0.00,VWS V14.01,2013-06-25 15:59:00,
2013-06-25 12:00:00,83.6,74.8,30.13,SW,226,8.0,11.0,75,0.00,,---,0.00,VWS V14.01,2013-06-25 16:00:00,
2013-06-25 12:01:00,83.6,74.8,30.13,West,267,6.0,11.0,75,0.00,,---,0.00,VWS V14.01,2013-06-25 16:01:00,
2013-06-25 12:02:00,83.6,74.4,30.13,West,274,7.0,7.0,74,0.00,,---,0.00,VWS V14.01,2013-06-25 16:02:00,
2013-06-25 12:03:00,83.7,74.1,30.13,WNW,288,7.0,14.0,73,0.00,,---,0.00,VWS V14.01,2013-06-25 16:03:00,
2013-06-25 12:04:00,83.6,74.0,30.14,West,276,7.0,7.0,73,0.00,,---,0.00,VWS V14.01,2013-06-25 16:04:00,
2013-06-25 12:05:00,83.6,74.4,30.13,NW,304,7.0,9.0,74,0.00,,---,0.00,VWS V14.01,2013-06-25 16:05:00,
2013-06-25 12:06:00,83.6,74.4,30.13,WSW,252,3.0,8.0,74,0.00,,---,0.00,VWS V14.01,2013-06-25 16:06:00,
2013-06-25 12:07:00,83.5,74.3,30.13,WSW,244,8.0,12.0,74,0.00,,---,0.00,VWS V14.01,2013-06-25 16:07:00,
2013-06-25 12:08:00,83.5,74.3,30.13,West,280,8.0,9.0,74,0.00,,---,0.00,VWS V14.01,2013-06-25 16:08:00,
2013-06-25 12:09:00,83.5,74.8,30.13,WNW,302,11.0,11.0,75,0.00,,---,0.00,VWS V14.01,2013-06-25 16:09:00,
2013-06-25 12:10:00,83.5,74.3,30.13,WNW,286,6.0,11.0,74,0.00,,---,0.00,VWS V14.01,2013-06-25 16:10:00,
2013-06-25 12:11:00,83.5,74.3,30.13,West,277,5.0,7.0,74,0.00,,---,0.00,VWS V14.01,2013-06-25 16:11:00,
2013-06-25 12:12:00,83.5,74.3,30.13,WNW,290,5.0,9.0,74,0.00,,---,0.00,VWS V14.01,2013-06-25 16:12:00,
2013-06-25 12:13:00,83.5,74.3,30.13,West,281,6.0,9.0,74,0.00,,---,0.00,VWS V14.01,2013-06-25 16:13:00,
2013-06-25 12:14:00,83.5,73.9,30.13,WSW,258,13.0,13.0,73,0.00,,---,0.00,VWS V14.01,2013-06-25 16:14:00,
2013-06-25 12:15:00,83.4,74.2,30.13,WSW,252,7.0,13.0,74,0.00,,---,0.00,VWS V14.01,2013-06-25 16:15:00,
2013-06-25 12:16:00,83.4,74.2,30.13,West,273,5.0,9.0,74,0.00,,---,0.00,VWS V14.01,2013-06-25 16:16:00,
2013-06-25 12:17:00,83.4,74.2,30.13,West,274,3.0,7.0,74,0.00,,---,0.00,VWS V14.01,2013-06-25 16:17:00,
2013-06-25 12:18:00,83.4,74.2,30.13,WNW,300,3.0,5.0,74,0.00,,---,0.00,VWS V14.01,2013-06-25 16:18:00,
2013-06-25 12:19:00,83.5,74.3,30.13,WNW,288,3.0,5.0,74,0.00,,---,0.00,VWS V14.01,2013-06-25 16:19:00,
2013-06-25 12:20:00,83.5,74.3,30.13,WNW,290,7.0,7.0,74,0.00,,---,0.00,VWS V14.01,2013-06-25 16:20:00,
2013-06-25 12:21:00,83.5,74.3,30.13,West,268,8.0,8.0,74,0.00,,---,0.00,VWS V14.01,2013-06-25 16:21:00,
2013-06-25 12:22:00,83.6,74.4,30.13,West,264,9.0,11.0,74,0.00,,---,0.00,VWS V14.01,2013-06-25 16:22:00,
2013-06-25 12:23:00,83.6,74.0,30.13,West,276,6.0,9.0,73,0.00,,---,0.00,VWS V14.01,2013-06-25 16:23:00,
2013-06-25 12:24:00,83.6,73.2,30.13,West,278,9.0,11.0,71,0.00,,---,0.00,VWS V14.01,2013-06-25 16:24:00,
2013-06-25 12:25:00,83.6,73.2,30.13,West,267,7.0,11.0,71,0.00,,---,0.00,VWS V14.01,2013-06-25 16:25:00,
2013-06-25 12:26:00,83.5,73.5,30.13,WSW,256,5.0,7.0,72,0.00,,---,0.00,VWS V14.01,2013-06-25 16:26:00,
2013-06-25 12:27:00,83.4,73.4,30.13,WNW,299,6.0,8.0,72,0.00,,---,0.00,VWS V14.01,2013-06-25 16:27:00,
2013-06-25 12:28:00,83.4,73.8,30.13,West,281,7.0,8.0,73,0.00,,---,0.00,VWS V14.01,2013-06-25 16:28:00,
2013-06-25 12:29:00,83.6,74.4,30.13,West,263,4.0,4.0,74,0.00,,---,0.00,VWS V14.01,2013-06-25 16:29:00,
2013-06-25 12:30:00,83.6,74.8,30.13,SSW,213,5.0,5.0,75,0.00,,---,0.00,VWS V14.01,2013-06-25 16:30:00,
2013-06-25 12:31:00,83.7,74.9,30.13,WNW,290,7.0,7.0,75,0.00,,---,0.00,VWS V14.01,2013-06-25 16:31:00,
2013-06-25 12:32:00,83.8,74.2,30.13,WNW,287,4.0,8.0,73,0.00,,---,0.00,VWS V14.01,2013-06-25 16:32:00,
2013-06-25 12:33:00,83.8,74.2,30.12,West,281,6.0,6.0,73,0.00,,---,0.00,VWS V14.01,2013-06-25 16:33:00,
2013-06-25 12:34:00,84.0,74.8,30.13,WNW,286,3.0,4.0,74,0.00,,---,0.00,VWS V14.01,2013-06-25 16:34:00,
2013-06-25 12:35:00,84.0,74.8,30.13,WNW,299,5.0,5.0,74,0.00,,---,0.00,VWS V14.01,2013-06-25 16:35:00,
2013-06-25 12:36:00,84.1,74.9,30.12,WNW,286,4.0,7.0,74,0.00,,---,0.00,VWS V14.01,2013-06-25 16:36:00,
2013-06-25 12:37:00,84.1,74.5,30.12,WSW,245,3.0,7.0,73,0.00,,---,0.00,VWS V14.01,2013-06-25 16:37:00,
2013-06-25 12:38:00,84.1,74.9,30.12,WSW,245,4.0,4.0,74,0.00,,---,0.00,VWS V14.01,2013-06-25 16:38:00,
2013-06-25 12:39:00,84.1,74.9,30.12,SW,234,2.0,7.0,74,0.00,,---,0.00,VWS V14.01,2013-06-25 16:39:00,
2013-06-25 12:40:00,84.1,74.9,30.12,SW,217,5.0,5.0,74,0.00,,---,0.00,VWS V14.01,2013-06-25 16:40:00,
2013-06-25 12:41:00,84.1,74.5,30.12,SW,233,7.0,7.0,73,0.00,,---,0.00,VWS V14.01,2013-06-25 16:41:00,
2013-06-25 12:42:00,84.1,74.9,30.12,West,261,4.0,7.0,74,0.00,,---,0.00,VWS V14.01,2013-06-25 16:42:00,
2013-06-25 12:43:00,84.2,75.0,30.12,SSE,150,3.0,4.0,74,0.00,,---,0.00,VWS V14.01,2013-06-25 16:43:00,
2013-06-25 12:44:00,84.3,75.1,30.12,WSW,256,5.0,5.0,74,0.00,,---,0.00,VWS V14.01,2013-06-25 16:44:00,
2013-06-25 12:45:00,84.4,74.8,30.12,West,265,4.0,6.0,73,0.00,,---,0.00,VWS V14.01,2013-06-25 16:45:00,
2013-06-25 12:46:00,84.5,74.5,30.12,WSW,240,3.0,5.0,72,0.00,,---,0.00,VWS V14.01,2013-06-25 16:46:00,
2013-06-25 12:47:00,84.6,74.6,30.12,SW,222,6.0,6.0,72,0.00,,---,0.00,VWS V14.01,2013-06-25 16:47:00,
2013-06-25 12:48:00,84.7,74.7,30.12,SSW,205,10.0,10.0,72,0.00,,---,0.00,VWS V14.01,2013-06-25 16:48:00,
2013-06-25 12:49:00,84.7,74.7,30.12,WSW,253,6.0,10.0,72,0.00,,---,0.00,VWS V14.01,2013-06-25 16:49:00,
2013-06-25 12:50:00,84.7,74.3,30.12,WSW,241,5.0,6.0,71,0.00,,---,0.00,VWS V14.01,2013-06-25 16:50:00,
2013-06-25 12:51:00,84.8,73.9,30.12,West,273,6.0,10.0,70,0.00,,---,0.00,VWS V14.01,2013-06-25 16:51:00,
2013-06-25 12:52:00,84.8,73.9,30.12,WSW,256,6.0,6.0,70,0.00,,---,0.00,VWS V14.01,2013-06-25 16:52:00,
2013-06-25 12:53:00,84.9,74.4,30.12,WSW,242,8.0,8.0,71,0.00,,---,0.00,VWS V14.01,2013-06-25 16:53:00,
2013-06-25 12:54:00,84.9,74.4,30.12,WNW,292,7.0,8.0,71,0.00,,---,0.00,VWS V14.01,2013-06-25 16:54:00,
2013-06-25 12:55:00,84.9,74.4,30.12,West,281,5.0,7.0,71,0.00,,---,0.00,VWS V14.01,2013-06-25 16:55:00,
2013-06-25 12:56:00,84.8,74.4,30.12,WSW,246,5.0,7.0,71,0.00,,---,0.00,VWS V14.01,2013-06-25 16:56:00,
2013-06-25 12:57:00,84.8,74.4,30.12,SW,233,6.0,7.0,71,0.00,,---,0.00,VWS V14.01,2013-06-25 16:57:00,
2013-06-25 12:58:00,84.9,74.4,30.12,WSW,253,2.0,6.0,71,0.00,,---,0.00,VWS V14.01,2013-06-25 16:58:00,
2013-06-25 12:59:00,85.0,74.6,30.12,WSW,257,4.0,4.0,71,0.00,,---,0.00,VWS V14.01,2013-06-25 16:59:00,
2013-06-25 13:00:00,85.0,75.0,30.11,SW,222,6.0,6.0,72,0.00,,---,0.00,VWS V14.01,2013-06-25 17:00:00,
2013-06-25 13:03:00,85.0,74.6,30.11,West,260,6.0,6.0,71,0.00,,---,0.00,VWS V14.01,2013-06-25 17:03:00,
2013-06-25 13:04:00,85.1,75.1,30.11,West,280,5.0,5.0,72,0.00,,---,0.00,VWS V14.01,2013-06-25 17:04:00,
2013-06-25 13:05:00,85.3,75.7,30.11,WSW,252,3.0,5.0,73,0.00,,---,0.00,VWS V14.01,2013-06-25 17:05:00,
2013-06-25 13:06:00,85.6,76.0,30.11,West,269,2.0,4.0,73,0.00,,---,0.00,VWS V14.01,2013-06-25 17:06:00,
2013-06-25 13:07:00,85.9,75.8,30.11,WNW,302,4.0,4.0,72,0.00,,---,0.00,VWS V14.01,2013-06-25 17:07:00,
2013-06-25 13:08:00,86.0,75.1,30.11,WNW,282,3.0,8.0,70,0.00,,---,0.00,VWS V14.01,2013-06-25 17:08:00,
2013-06-25 13:09:00,86.1,75.2,30.11,West,276,4.0,4.0,70,0.00,,---,0.00,VWS V14.01,2013-06-25 17:09:00,
2013-06-25 13:10:00,86.2,75.7,30.11,NW,304,4.0,5.0,71,0.00,,---,0.00,VWS V14.01,2013-06-25 17:10:00,
2013-06-25 13:11:00,86.2,74.8,30.11,WSW,254,3.0,3.0,69,0.00,,---,0.00,VWS V14.01,2013-06-25 17:11:00,
2013-06-25 13:12:00,86.3,74.9,30.11,WNW,291,7.0,7.0,69,0.00,,---,0.00,VWS V14.01,2013-06-25 17:12:00,
2013-06-25 13:13:00,86.2,74.4,30.11,West,263,4.0,7.0,68,0.00,,---,0.00,VWS V14.01,2013-06-25 17:13:00,
2013-06-25 13:14:00,86.1,74.8,30.11,WNW,297,5.0,6.0,69,0.00,,---,0.00,VWS V14.01,2013-06-25 17:14:00,
2013-06-25 13:15:00,86.0,74.7,30.11,WSW,252,3.0,5.0,69,0.00,,---,0.00,VWS V14.01,2013-06-25 17:15:00,
2013-06-25 13:16:00,86.0,75.1,30.11,West,277,5.0,6.0,70,0.00,,---,0.00,VWS V14.01,2013-06-25 17:16:00,
2013-06-25 13:17:00,85.9,75.0,30.11,SSW,203,1.0,6.0,70,0.00,,---,0.00,VWS V14.01,2013-06-25 17:17:00,
2013-06-25 13:18:00,85.9,75.0,30.11,WSW,248,6.0,7.0,70,0.00,,---,0.00,VWS V14.01,2013-06-25 17:18:00,
2013-06-25 13:19:00,85.8,74.5,30.11,WNW,289,11.0,11.0,69,0.00,,---,0.00,VWS V14.01,2013-06-25 17:19:00,
2013-06-25 13:20:00,85.7,74.4,30.11,West,272,3.0,11.0,69,0.00,,---,0.00,VWS V14.01,2013-06-25 17:20:00,
2013-06-25 13:21:00,85.6,74.7,30.11,SW,229,7.0,7.0,70,0.00,,---,0.00,VWS V14.01,2013-06-25 17:21:00,
2013-06-25 13:22:00,85.6,74.7,30.11,WNW,284,6.0,10.0,70,0.00,,---,0.00,VWS V14.01,2013-06-25 17:22:00,
2013-06-25 13:23:00,85.5,74.2,30.11,West,271,5.0,10.0,69,0.00,,---,0.00,VWS V14.01,2013-06-25 17:23:00,
2013-06-25 13:24:00,85.5,74.6,30.11,West,277,9.0,9.0,70,0.00,,---,0.00,VWS V14.01,2013-06-25 17:24:00,
2013-06-25 13:25:00,85.5,74.6,30.11,West,273,9.0,9.0,70,0.00,,---,0.00,VWS V14.01,2013-06-25 17:25:00,
2013-06-25 13:26:00,85.5,74.2,30.11,West,277,9.0,9.0,69,0.00,,---,0.00,VWS V14.01,2013-06-25 17:26:00,
2013-06-25 13:27:00,85.5,74.6,30.11,West,281,9.0,10.0,70,0.00,,---,0.00,VWS V14.01,2013-06-25 17:27:00,
2013-06-25 13:28:00,85.5,74.2,30.11,West,277,7.0,9.0,69,0.00,,---,0.00,VWS V14.01,2013-06-25 17:28:00,
2013-06-25 13:29:00,85.4,74.1,30.11,WNW,283,6.0,7.0,69,0.00,,---,0.00,VWS V14.01,2013-06-25 17:29:00,
2013-06-25 13:30:00,85.4,74.1,30.10,West,267,7.0,9.0,69,0.00,,---,0.00,VWS V14.01,2013-06-25 17:30:00,
2013-06-25 13:31:00,85.3,74.0,30.10,West,275,4.0,6.0,69,0.00,,---,0.00,VWS V14.01,2013-06-25 17:31:00,
2013-06-25 13:32:00,85.3,74.0,30.10,NW,317,3.0,5.0,69,0.00,,---,0.00,VWS V14.01,2013-06-25 17:32:00,
2013-06-25 13:33:00,85.4,74.5,30.10,WSW,253,9.0,9.0,70,0.00,,---,0.00,VWS V14.01,2013-06-25 17:33:00,
2013-06-25 13:34:00,85.4,74.1,30.10,West,264,4.0,9.0,69,0.00,,---,0.00,VWS V14.01,2013-06-25 17:34:00,
2013-06-25 13:35:00,85.4,74.1,30.10,WNW,287,9.0,9.0,69,0.00,,---,0.00,VWS V14.01,2013-06-25 17:35:00,
2013-06-25 13:36:00,85.3,74.0,30.10,WNW,298,7.0,11.0,69,0.00,,---,0.00,VWS V14.01,2013-06-25 17:36:00,
2013-06-25 13:37:00,85.3,74.0,30.10,West,267,8.0,10.0,69,0.00,,---,0.00,VWS V14.01,2013-06-25 17:37:00,
2013-06-25 13:38:00,85.2,74.3,30.10,NW,314,5.0,8.0,70,0.00,,---,0.00,VWS V14.01,2013-06-25 17:38:00,
2013-06-25 13:39:00,85.2,74.3,30.10,SSW,211,2.0,5.0,70,0.00,,---,0.00,VWS V14.01,2013-06-25 17:39:00,
2013-06-25 13:40:00,85.3,74.8,30.10,West,275,3.0,4.0,71,0.00,,---,0.00,VWS V14.01,2013-06-25 17:40:00,
2013-06-25 13:41:00,85.4,75.3,30.10,WNW,295,3.0,6.0,72,0.00,,---,0.00,VWS V14.01,2013-06-25 17:41:00,
2013-06-25 13:42:00,85.5,74.2,30.10,West,260,6.0,11.0,69,0.00,,---,0.00,VWS V14.01,2013-06-25 17:42:00,
2013-06-25 13:43:00,85.6,74.7,30.10,NW,306,5.0,9.0,70,0.00,,---,0.00,VWS V14.01,2013-06-25 17:43:00,
2013-06-25 13:44:00,85.7,74.8,30.09,WNW,284,1.0,6.0,70,0.00,,---,0.00,VWS V14.01,2013-06-25 17:44:00,
2013-06-25 13:45:00,85.8,74.5,30.09,West,277,1.0,4.0,69,0.00,,---,0.00,VWS V14.01,2013-06-25 17:45:00,
2013-06-25 13:46:00,86.0,75.1,30.09,West,275,3.0,5.0,70,0.00,,---,0.00,VWS V14.01,2013-06-25 17:46:00,
2013-06-25 13:47:00,86.1,74.8,30.09,West,276,5.0,5.0,69,0.00,,---,0.00,VWS V14.01,2013-06-25 17:47:00,
2013-06-25 13:48:00,86.2,74.8,30.09,NW,322,4.0,7.0,69,0.00,,---,0.00,VWS V14.01,2013-06-25 17:48:00,
2013-06-25 13:49:00,86.2,75.3,30.09,West,279,6.0,6.0,70,0.00,,---,0.00,VWS V14.01,2013-06-25 17:49:00,
2013-06-25 13:50:00,86.1,74.3,30.09,West,259,8.0,9.0,68,0.00,,---,0.00,VWS V14.01,2013-06-25 17:50:00,
2013-06-25 13:51:00,85.9,74.1,30.09,WNW,287,6.0,8.0,68,0.00,,---,0.00,VWS V14.01,2013-06-25 17:51:00,
2013-06-25 13:52:00,85.8,74.5,30.09,West,261,6.0,6.0,69,0.00,,---,0.00,VWS V14.01,2013-06-25 17:52:00,
2013-06-25 13:53:00,85.7,74.4,30.09,WSW,244,8.0,8.0,69,0.00,,---,0.00,VWS V14.01,2013-06-25 17:53:00,
2013-06-25 13:54:00,85.8,74.0,30.09,WNW,285,3.0,8.0,68,0.00,,---,0.00,VWS V14.01,2013-06-25 17:54:00,
2013-06-25 13:55:00,86.0,75.1,30.09,WNW,301,3.0,5.0,70,0.00,,---,0.00,VWS V14.01,2013-06-25 17:55:00,
2013-06-25 13:56:00,86.1,74.3,30.09,SE,142,3.0,7.0,68,0.00,,---,0.00,VWS V14.01,2013-06-25 17:56:00,
2013-06-25 13:57:00,86.2,74.4,30.09,SW,215,4.0,5.0,68,0.00,,---,0.00,VWS V14.01,2013-06-25 17:57:00,
2013-06-25 13:58:00,86.3,74.5,30.09,NNW,329,3.0,4.0,68,0.00,,---,0.00,VWS V14.01,2013-06-25 17:58:00,
2013-06-25 13:59:00,86.4,74.6,30.09,WSW,256,2.0,3.0,68,0.00,,---,0.00,VWS V14.01,2013-06-25 17:59:00,
2013-06-25 14:00:00,86.6,75.2,30.09,WNW,295,4.0,4.0,69,0.00,,---,0.00,VWS V14.01,2013-06-25 18:00:00,
2013-06-25 14:04:00,86.6,75.2,30.09,WSW,257,4.0,4.0,69,0.00,,---,0.00,VWS V14.01,2013-06-25 18:04:00,
2013-06-25 14:05:00,86.7,74.4,30.08,West,268,7.0,9.0,67,0.00,,---,0.00,VWS V14.01,2013-06-25 18:05:00,
2013-06-25 14:06:00,86.7,74.9,30.09,WNW,286,6.0,6.0,68,0.00,,---,0.00,VWS V14.01,2013-06-25 18:06:00,
2013-06-25 14:07:00,86.7,74.4,30.09,West,275,5.0,10.0,67,0.00,,---,0.00,VWS V14.01,2013-06-25 18:07:00,
2013-06-25 14:08:00,86.6,74.3,30.09,WSW,252,5.0,5.0,67,0.00,,---,0.00,VWS V14.01,2013-06-25 18:08:00,
2013-06-25 14:09:00,86.6,74.3,30.09,West,277,4.0,6.0,67,0.00,,---,0.00,VWS V14.01,2013-06-25 18:09:00,
2013-06-25 14:10:00,86.6,73.9,30.08,WNW,299,5.0,9.0,66,0.00,,---,0.00,VWS V14.01,2013-06-25 18:10:00,
2013-06-25 14:11:00,86.5,73.8,30.09,WNW,284,4.0,5.0,66,0.00,,---,0.00,VWS V14.01,2013-06-25 18:11:00,
2013-06-25 14:12:00,86.4,74.2,30.08,West,275,4.0,5.0,67,0.00,,---,0.00,VWS V14.01,2013-06-25 18:12:00,
2013-06-25 14:13:00,86.3,74.1,30.08,WSW,258,5.0,8.0,67,0.00,,---,0.00,VWS V14.01,2013-06-25 18:13:00,
2013-06-25 14:14:00,86.1,73.9,30.08,West,275,6.0,7.0,67,0.00,,---,0.00,VWS V14.01,2013-06-25 18:14:00,
2013-06-25 14:15:00,86.0,74.2,30.08,West,278,3.0,9.0,68,0.00,,---,0.00,VWS V14.01,2013-06-25 18:15:00,
2013-06-25 14:16:00,85.9,74.1,30.08,WNW,282,6.0,7.0,68,0.00,,---,0.00,VWS V14.01,2013-06-25 18:16:00,
2013-06-25 14:17:00,85.8,73.6,30.08,NW,304,5.0,6.0,67,0.00,,---,0.00,VWS V14.01,2013-06-25 18:17:00,
2013-06-25 14:18:00,85.7,73.9,30.08,West,260,3.0,6.0,68,0.00,,---,0.00,VWS V14.01,2013-06-25 18:18:00,
2013-06-25 14:19:00,85.6,73.8,30.08,West,272,10.0,10.0,68,0.00,,---,0.00,VWS V14.01,2013-06-25 18:19:00,
2013-06-25 14:20:00,85.6,73.8,30.08,West,272,10.0,10.0,68,0.00,,---,0.00,VWS V14.01,2013-06-25 18:20:00,
2013-06-25 14:21:00,85.5,73.7,30.08,WSW,241,3.0,3.0,68,0.00,,---,0.00,VWS V14.01,2013-06-25 18:21:00,
2013-06-25 14:22:00,85.5,74.2,30.08,WNW,298,5.0,9.0,69,0.00,,---,0.00,VWS V14.01,2013-06-25 18:22:00,
2013-06-25 14:23:00,85.6,74.3,30.08,WNW,292,6.0,6.0,69,0.00,,---,0.00,VWS V14.01,2013-06-25 18:23:00,
2013-06-25 14:24:00,85.6,73.8,30.08,WNW,290,7.0,8.0,68,0.00,,---,0.00,VWS V14.01,2013-06-25 18:24:00,
2013-06-25 14:25:00,85.7,74.4,30.08,West,272,4.0,7.0,69,0.00,,---,0.00,VWS V14.01,2013-06-25 18:25:00,
2013-06-25 14:29:00,85.7,74.4,30.08,West,272,4.0,7.0,69,0.00,,---,0.00,VWS V14.01,2013-06-25 18:29:00,
2013-06-25 14:30:00,86.3,74.5,30.08,West,265,6.0,6.0,68,0.00,,---,0.00,VWS V14.01,2013-06-25 18:30:00,
2013-06-25 14:31:00,86.5,74.2,30.08,NNW,329,2.0,6.0,67,0.00,,---,0.00,VWS V14.01,2013-06-25 18:31:00,
2013-06-25 14:32:00,86.8,75.4,30.08,West,276,3.0,3.0,69,0.00,,---,0.00,VWS V14.01,2013-06-25 18:32:00,
2013-06-25 14:33:00,87.0,74.7,30.08,West,264,5.0,5.0,67,0.00,,---,0.00,VWS V14.01,2013-06-25 18:33:00,
2013-06-25 14:34:00,87.0,74.7,30.08,West,264,5.0,5.0,67,0.00,,---,0.00,VWS V14.01,2013-06-25 18:34:00,
2013-06-25 14:35:00,87.0,74.3,30.08,WSW,253,11.0,11.0,66,0.00,,---,0.00,VWS V14.01,2013-06-25 18:35:00,
2013-06-25 14:36:00,86.8,73.6,30.08,WNW,283,6.0,11.0,65,0.00,,---,0.00,VWS V14.01,2013-06-25 18:36:00,
2013-06-25 14:37:00,86.7,74.0,30.08,WNW,286,8.0,8.0,66,0.00,,---,0.00,VWS V14.01,2013-06-25 18:37:00,
2013-06-25 14:38:00,86.6,73.4,30.08,WNW,291,10.0,10.0,65,0.00,,---,0.00,VWS V14.01,2013-06-25 18:38:00,
2013-06-25 14:39:00,86.5,73.8,30.08,WNW,293,7.0,10.0,66,0.00,,---,0.00,VWS V14.01,2013-06-25 18:39:00,
2013-06-25 14:40:00,86.5,73.8,30.08,West,279,6.0,6.0,66,0.00,,---,0.00,VWS V14.01,2013-06-25 18:40:00,
2013-06-25 14:41:00,86.5,74.2,30.08,WSW,244,5.0,6.0,67,0.00,,---,0.00,VWS V14.01,2013-06-25 18:41:00,
2013-06-25 14:42:00,86.6,74.3,30.08,West,273,8.0,8.0,67,0.00,,---,0.00,VWS V14.01,2013-06-25 18:42:00,
2013-06-25 14:43:00,86.6,73.9,30.07,NNE,17,4.0,8.0,66,0.00,,---,0.00,VWS V14.01,2013-06-25 18:43:00,
2013-06-25 14:44:00,86.6,73.9,30.07,NNE,17,4.0,8.0,66,0.00,,---,0.00,VWS V14.01,2013-06-25 18:44:00,
2013-06-25 14:45:00,87.0,74.7,30.07,West,271,6.0,6.0,67,0.00,,---,0.00,VWS V14.01,2013-06-25 18:45:00,
2013-06-25 14:46:00,87.2,74.9,30.07,West,265,3.0,6.0,67,0.00,,---,0.00,VWS V14.01,2013-06-25 18:46:00,
2013-06-25 14:47:00,87.4,74.7,30.07,West,278,9.0,9.0,66,0.00,,---,0.00,VWS V14.01,2013-06-25 18:47:00,
2013-06-25 14:48:00,87.3,74.6,30.07,West,275,4.0,9.0,66,0.00,,---,0.00,VWS V14.01,2013-06-25 18:48:00,
2013-06-25 14:49:00,87.3,74.6,30.07,WNW,286,4.0,5.0,66,0.00,,---,0.00,VWS V14.01,2013-06-25 18:49:00,
2013-06-25 14:50:00,87.4,74.7,30.07,WSW,254,6.0,6.0,66,0.00,,---,0.00,VWS V14.01,2013-06-25 18:50:00,
2013-06-25 14:51:00,87.4,74.2,30.07,West,271,4.0,11.0,65,0.00,,---,0.00,VWS V14.01,2013-06-25 18:51:00,
2013-06-25 14:52:00,87.4,74.7,30.07,WNW,291,7.0,7.0,66,0.00,,---,0.00,VWS V14.01,2013-06-25 18:52:00,
2013-06-25 14:53:00,87.4,74.7,30.07,WSW,254,6.0,7.0,66,0.00,,---,0.00,VWS V14.01,2013-06-25 18:53:00,
2013-06-25 14:54:00,87.2,74.0,30.07,West,269,6.0,6.0,65,0.00,,---,0.00,VWS V14.01,2013-06-25 18:54:00,
2013-06-25 14:55:00,87.2,74.5,30.07,West,271,7.0,7.0,66,0.00,,---,0.00,VWS V14.01,2013-06-25 18:55:00,
2013-06-25 14:56:00,87.1,74.4,30.07,NW,313,2.0,7.0,66,0.00,,---,0.00,VWS V14.01,2013-06-25 18:56:00,
2013-06-25 14:57:00,87.1,74.8,30.07,West,269,1.0,2.0,67,0.00,,---,0.00,VWS V14.01,2013-06-25 18:57:00,
2013-06-25 14:58:00,87.2,74.5,30.07,NE,50,1.0,1.0,66,0.00,,---,0.00,VWS V14.01,2013-06-25 18:58:00,
2013-06-25 14:59:00,87.2,74.5,30.07,NE,50,1.0,1.0,66,0.00,,---,0.00,VWS V14.01,2013-06-25 18:59:00,
2013-06-25 15:00:00,87.2,74.5,30.07,NE,50,1.0,1.0,66,0.00,,---,0.00,VWS V14.01,2013-06-25 19:00:00,
2013-06-25 15:05:00,87.1,73.4,30.07,WSW,254,8.0,10.0,64,0.00,,---,0.00,VWS V14.01,2013-06-25 19:05:00,
2013-06-25 15:10:00,87.1,73.4,30.07,WSW,254,8.0,10.0,64,0.00,,---,0.00,VWS V14.01,2013-06-25 19:10:00,
2013-06-25 15:11:00,87.0,73.8,30.06,West,273,5.0,6.0,65,0.00,,---,0.00,VWS V14.01,2013-06-25 19:11:00,
2013-06-25 15:12:00,87.0,73.4,30.06,WSW,254,3.0,5.0,64,0.00,,---,0.00,VWS V14.01,2013-06-25 19:12:00,
2013-06-25 15:13:00,87.0,73.8,30.06,West,263,7.0,7.0,65,0.00,,---,0.00,VWS V14.01,2013-06-25 19:13:00,
2013-06-25 15:14:00,87.1,73.9,30.06,West,277,6.0,7.0,65,0.00,,---,0.00,VWS V14.01,2013-06-25 19:14:00,
2013-06-25 15:15:00,87.1,73.9,30.06,WSW,256,6.0,6.0,65,0.00,,---,0.00,VWS V14.01,2013-06-25 19:15:00,
2013-06-25 15:16:00,87.1,73.9,30.06,West,259,9.0,9.0,65,0.00,,---,0.00,VWS V14.01,2013-06-25 19:16:00,
2013-06-25 15:17:00,87.1,74.4,30.06,WNW,286,5.0,9.0,66,0.00,,---,0.00,VWS V14.01,2013-06-25 19:17:00,
2013-06-25 15:18:00,87.1,74.4,30.06,West,267,4.0,5.0,66,0.00,,---,0.00,VWS V14.01,2013-06-25 19:18:00,
2013-06-25 15:20:00,87.1,73.9,30.06,West,276,6.0,7.0,65,0.00,,---,0.00,VWS V14.01,2013-06-25 19:20:00,
2013-06-25 15:21:00,87.0,74.3,30.06,West,278,6.0,6.0,66,0.00,,---,0.00,VWS V14.01,2013-06-25 19:21:00,
2013-06-25 15:22:00,86.9,73.7,30.06,SW,225,3.0,6.0,65,0.00,,---,0.00,VWS V14.01,2013-06-25 19:22:00,
2013-06-25 15:23:00,87.0,74.7,30.06,WNW,297,4.0,4.0,67,0.00,,---,0.00,VWS V14.01,2013-06-25 19:23:00,
2013-06-25 15:24:00,87.2,73.6,30.06,WNW,295,6.0,6.0,64,0.00,,---,0.00,VWS V14.01,2013-06-25 19:24:00,
2013-06-25 15:25:00,87.2,73.6,30.06,WNW,295,6.0,6.0,64,0.00,,---,0.00,VWS V14.01,2013-06-25 19:25:00,
2013-06-25 15:26:00,87.2,74.0,30.06,WNW,288,2.0,6.0,65,0.00,,---,0.00,VWS V14.01,2013-06-25 19:26:00,
2013-06-25 15:27:00,87.2,74.0,30.06,West,267,8.0,8.0,65,0.00,,---,0.00,VWS V14.01,2013-06-25 19:27:00,
2013-06-25 15:28:00,87.2,73.6,30.06,WNW,295,3.0,8.0,64,0.00,,---,0.00,VWS V14.01,2013-06-25 19:28:00,
2013-06-25 15:29:00,87.2,74.0,30.06,West,261,3.0,3.0,65,0.00,,---,0.00,VWS V14.01,2013-06-25 19:29:00,
2013-06-25 15:30:00,87.2,73.6,30.06,West,273,8.0,8.0,64,0.00,,---,0.00,VWS V14.01,2013-06-25 19:30:00,
2013-06-25 15:31:00,87.2,73.6,30.06,West,268,4.0,8.0,64,0.00,,---,0.00,VWS V14.01,2013-06-25 19:31:00,
2013-06-25 15:32:00,87.2,74.0,30.07,West,269,2.0,4.0,65,0.00,,---,0.00,VWS V14.01,2013-06-25 19:32:00,
2013-06-25 15:33:00,87.3,74.1,30.07,West,269,5.0,7.0,65,0.00,,---,0.00,VWS V14.01,2013-06-25 19:33:00,
2013-06-25 15:34:00,87.4,73.7,30.07,West,263,5.0,5.0,64,0.00,,---,0.00,VWS V14.01,2013-06-25 19:34:00,
2013-06-25 15:35:00,87.4,74.7,30.07,SW,219,8.0,8.0,66,0.00,,---,0.00,VWS V14.01,2013-06-25 19:35:00,
2013-06-25 15:36:00,87.3,74.6,30.07,SSW,210,5.0,8.0,66,0.00,,---,0.00,VWS V14.01,2013-06-25 19:36:00,
2013-06-25 15:37:00,87.1,74.8,30.07,SW,225,3.0,5.0,67,0.00,,---,0.00,VWS V14.01,2013-06-25 19:37:00,
2013-06-25 15:38:00,86.9,75.1,30.07,WSW,245,4.0,9.0,68,0.00,,---,0.00,VWS V14.01,2013-06-25 19:38:00,
2013-06-25 15:39:00,86.7,74.9,30.07,WSW,253,2.0,4.0,68,0.00,,---,0.00,VWS V14.01,2013-06-25 19:39:00,
2013-06-25 15:40:00,86.6,74.8,30.07,SW,224,8.0,8.0,68,0.00,,---,0.00,VWS V14.01,2013-06-25 19:40:00,
2013-06-25 15:41:00,86.4,74.6,30.07,WSW,244,3.0,8.0,68,0.00,,---,0.00,VWS V14.01,2013-06-25 19:41:00,
2013-06-25 15:42:00,86.1,75.2,30.07,West,265,2.0,7.0,70,0.00,,---,0.00,VWS V14.01,2013-06-25 19:42:00,
2013-06-25 15:43:00,85.9,75.0,30.07,SSW,207,5.0,5.0,70,0.00,,---,0.00,VWS V14.01,2013-06-25 19:43:00,
2013-06-25 15:44:00,85.7,74.8,30.07,WNW,300,3.0,5.0,70,0.00,,---,0.00,VWS V14.01,2013-06-25 19:44:00,
2013-06-25 15:45:00,85.4,74.5,30.07,WSW,240,6.0,6.0,70,0.00,,---,0.00,VWS V14.01,2013-06-25 19:45:00,
2013-06-25 15:46:00,85.2,74.7,30.07,SW,215,2.0,10.0,71,0.00,,---,0.00,VWS V14.01,2013-06-25 19:46:00,
2013-06-25 15:47:00,84.9,74.4,30.07,West,274,5.0,7.0,71,0.00,,---,0.00,VWS V14.01,2013-06-25 19:47:00,
2013-06-25 15:48:00,84.5,74.5,30.08,West,275,4.0,12.0,72,0.00,,---,0.00,VWS V14.01,2013-06-25 19:48:00,
2013-06-25 15:49:00,84.2,74.2,30.08,WSW,245,5.0,5.0,72,0.00,,---,0.00,VWS V14.01,2013-06-25 19:49:00,
2013-06-25 15:50:00,84.0,74.4,30.08,SW,223,5.0,5.0,73,0.00,,---,0.00,VWS V14.01,2013-06-25 19:50:00,
2013-06-25 15:51:00,83.7,74.1,30.08,West,279,7.0,7.0,73,0.00,,---,0.00,VWS V14.01,2013-06-25 19:51:00,
2013-06-25 15:52:00,83.5,73.9,30.08,SW,219,4.0,9.0,73,0.00,,---,0.00,VWS V14.01,2013-06-25 19:52:00,
2013-06-25 15:53:00,83.3,74.2,30.08,SSW,199,1.0,5.0,74,0.00,,---,0.00,VWS V14.01,2013-06-25 19:53:00,
2013-06-25 15:54:00,83.2,74.1,30.08,WSW,245,10.0,10.0,74,0.00,,---,0.00,VWS V14.01,2013-06-25 19:54:00,
2013-06-25 15:55:00,83.0,73.9,30.08,WSW,258,4.0,10.0,74,0.00,,---,0.00,VWS V14.01,2013-06-25 19:55:00,
2013-06-25 15:56:00,82.8,73.7,30.08,SSW,206,7.0,7.0,74,0.00,,---,0.00,VWS V14.01,2013-06-25 19:56:00,
2013-06-25 15:57:00,82.6,73.5,30.08,WSW,246,4.0,9.0,74,0.00,,---,0.00,VWS V14.01,2013-06-25 19:57:00,
2013-06-25 15:58:00,82.4,73.3,30.08,West,263,4.0,4.0,74,0.00,,---,0.00,VWS V14.01,2013-06-25 19:58:00,
2013-06-25 15:59:00,82.3,73.2,30.08,WNW,290,3.0,4.0,74,0.00,,---,0.00,VWS V14.01,2013-06-25 19:59:00,
2013-06-25 16:00:00,82.2,73.1,30.08,SW,224,8.0,8.0,74,0.00,,---,0.00,VWS V14.01,2013-06-25 20:00:00,
2013-06-25 16:05:00,81.9,72.4,30.08,WSW,241,4.0,8.0,73,0.00,,---,0.00,VWS V14.01,2013-06-25 20:05:00,
2013-06-25 16:06:00,81.9,72.4,30.08,WSW,241,4.0,8.0,73,0.00,,---,0.00,VWS V14.01,2013-06-25 20:06:00,
2013-06-25 16:07:00,80.9,72.2,30.08,South,173,6.0,11.0,75,0.00,,---,0.00,VWS V14.01,2013-06-25 20:07:00,
2013-06-25 16:08:00,80.6,72.3,30.08,SE,132,3.0,8.0,76,0.00,,---,0.00,VWS V14.01,2013-06-25 20:08:00,
2013-06-25 16:09:00,80.5,72.2,30.08,SW,227,9.0,9.0,76,0.00,,---,0.00,VWS V14.01,2013-06-25 20:09:00,
2013-06-25 16:10:00,80.3,72.1,30.08,NNE,22,3.0,9.0,76,0.00,,---,0.00,VWS V14.01,2013-06-25 20:10:00,
2013-06-25 16:11:00,80.2,71.9,30.08,WSW,238,5.0,5.0,76,0.00,,---,0.00,VWS V14.01,2013-06-25 20:11:00,
2013-06-25 16:12:00,80.0,72.2,30.08,NNE,23,11.0,11.0,77,0.00,,---,0.00,VWS V14.01,2013-06-25 20:12:00,
2013-06-25 16:14:00,79.8,71.9,30.08,WNW,284,7.0,11.0,77,0.00,,---,0.00,VWS V14.01,2013-06-25 20:14:00,
2013-06-25 16:15:00,79.5,71.7,30.08,West,261,8.0,13.0,77,0.00,,---,0.00,VWS V14.01,2013-06-25 20:15:00,
2013-06-25 16:16:00,79.4,71.6,30.08,West,263,7.0,13.0,77,0.00,,---,0.00,VWS V14.01,2013-06-25 20:16:00,
2013-06-25 16:17:00,79.2,71.4,30.08,West,281,3.0,10.0,77,0.00,,---,0.00,VWS V14.01,2013-06-25 20:17:00,
2013-06-25 16:18:00,79.1,71.3,30.08,NW,323,5.0,12.0,77,0.00,,---,0.00,VWS V14.01,2013-06-25 20:18:00,
2013-06-25 16:19:00,79.0,71.2,30.09,West,263,16.0,16.0,77,0.00,,---,0.00,VWS V14.01,2013-06-25 20:19:00,
2013-06-25 16:20:00,78.7,71.3,30.09,SW,217,8.0,12.0,78,0.00,,---,0.00,VWS V14.01,2013-06-25 20:20:00,
2013-06-25 16:21:00,78.5,71.4,30.09,SW,224,4.0,12.0,79,0.00,,---,0.00,VWS V14.01,2013-06-25 20:21:00,
2013-06-25 16:22:00,78.2,71.2,30.09,WSW,242,9.0,11.0,79,0.00,,---,0.00,VWS V14.01,2013-06-25 20:22:00,
2013-06-25 16:23:00,77.9,71.6,30.09,West,279,6.0,9.0,81,0.01,,---,0.01,VWS V14.01,2013-06-25 20:23:00,
2013-06-25 16:24:00,77.5,71.9,30.09,WNW,300,3.0,10.0,83,0.03,,---,0.03,VWS V14.01,2013-06-25 20:24:00,
2013-06-25 16:25:00,77.0,71.8,30.09,WSW,254,6.0,6.0,84,0.04,,---,0.04,VWS V14.01,2013-06-25 20:25:00,
2013-06-25 16:26:00,76.7,71.5,30.09,SSW,196,6.0,10.0,84,0.05,,---,0.05,VWS V14.01,2013-06-25 20:26:00,
2013-06-25 16:27:00,76.3,71.1,30.09,West,280,5.0,7.0,84,0.06,,---,0.06,VWS V14.01,2013-06-25 20:27:00,
2013-06-25 16:28:00,76.0,71.2,30.09,WSW,242,3.0,5.0,85,0.08,,---,0.08,VWS V14.01,2013-06-25 20:28:00,
2013-06-25 16:29:00,75.7,70.9,30.09,WSW,242,12.0,12.0,85,0.09,,---,0.09,VWS V14.01,2013-06-25 20:29:00,
2013-06-25 16:30:00,75.6,70.8,30.09,SW,236,3.0,12.0,85,0.10,,---,0.10,VWS V14.01,2013-06-25 20:30:00,
2013-06-25 16:31:00,75.3,70.5,30.09,WSW,250,1.0,3.0,85,0.10,,---,0.10,VWS V14.01,2013-06-25 20:31:00,
2013-06-25 16:32:00,75.3,70.8,30.09,SW,229,0.0,1.0,86,0.10,,---,0.10,VWS V14.01,2013-06-25 20:32:00,
2013-06-25 16:33:00,75.1,70.6,30.09,SW,225,1.0,2.0,86,0.10,,---,0.10,VWS V14.01,2013-06-25 20:33:00,
2013-06-25 16:34:00,75.0,70.9,30.08,WSW,244,3.0,3.0,87,0.10,,---,0.10,VWS V14.01,2013-06-25 20:34:00,
2013-06-25 16:35:00,74.9,70.8,30.08,WSW,248,1.0,3.0,87,0.10,,---,0.10,VWS V14.01,2013-06-25 20:35:00,
2013-06-25 16:36:00,74.8,70.7,30.08,SSW,210,2.0,6.0,87,0.10,,---,0.10,VWS V14.01,2013-06-25 20:36:00,
2013-06-25 16:37:00,74.8,71.0,30.08,WSW,248,1.0,4.0,88,0.10,,---,0.10,VWS V14.01,2013-06-25 20:37:00,
2013-06-25 16:38:00,74.7,70.9,30.07,WSW,252,2.0,4.0,88,0.10,,---,0.10,VWS V14.01,2013-06-25 20:38:00,
2013-06-25 16:39:00,74.7,70.9,30.07,WSW,242,2.0,2.0,88,0.10,,---,0.10,VWS V14.01,2013-06-25 20:39:00,
2013-06-25 16:40:00,74.7,70.9,30.07,SW,233,1.0,2.0,88,0.10,,---,0.10,VWS V14.01,2013-06-25 20:40:00,
2013-06-25 16:41:00,74.6,70.8,30.07,WSW,249,3.0,3.0,88,0.10,,---,0.10,VWS V14.01,2013-06-25 20:41:00,
2013-06-25 16:42:00,74.6,71.2,30.07,WSW,245,3.0,3.0,89,0.10,,---,0.10,VWS V14.01,2013-06-25 20:42:00,
2013-06-25 16:43:00,74.6,70.8,30.06,WSW,242,4.0,4.0,88,0.10,,---,0.10,VWS V14.01,2013-06-25 20:43:00,
2013-06-25 16:44:00,74.5,70.7,30.06,WNW,288,2.0,4.0,88,0.10,,---,0.10,VWS V14.01,2013-06-25 20:44:00,
2013-06-25 16:45:00,74.5,70.7,30.06,WNW,286,2.0,2.0,88,0.10,,---,0.10,VWS V14.01,2013-06-25 20:45:00,
2013-06-25 16:46:00,74.5,70.7,30.06,West,275,2.0,2.0,88,0.10,,---,0.10,VWS V14.01,2013-06-25 20:46:00,
2013-06-25 16:47:00,74.4,70.6,30.06,WSW,244,0.0,2.0,88,0.10,,---,0.10,VWS V14.01,2013-06-25 20:47:00,
2013-06-25 16:48:00,74.4,70.6,30.06,West,278,0.0,1.0,88,0.10,,---,0.10,VWS V14.01,2013-06-25 20:48:00,
2013-06-25 16:49:00,74.4,70.6,30.06,NW,306,0.0,2.0,88,0.10,,---,0.10,VWS V14.01,2013-06-25 20:49:00,
2013-06-25 16:50:00,74.4,70.9,30.06,West,277,0.0,0.0,89,0.10,,---,0.10,VWS V14.01,2013-06-25 20:50:00,
2013-06-25 16:51:00,74.4,70.9,30.06,West,277,0.0,0.0,89,0.10,,---,0.10,VWS V14.01,2013-06-25 20:51:00,
2013-06-25 16:52:00,74.4,70.9,30.06,SW,229,2.0,2.0,89,0.10,,---,0.10,VWS V14.01,2013-06-25 20:52:00,
2013-06-25 16:53:00,74.4,70.6,30.06,WSW,256,2.0,3.0,88,0.10,,---,0.10,VWS V14.01,2013-06-25 20:53:00,
2013-06-25 16:54:00,74.3,70.5,30.06,South,173,5.0,5.0,88,0.10,,---,0.10,VWS V14.01,2013-06-25 20:54:00,
2013-06-25 16:55:00,74.3,70.5,30.06,SSW,198,2.0,2.0,88,0.10,,---,0.10,VWS V14.01,2013-06-25 20:55:00,
2013-06-25 16:56:00,74.3,70.5,30.06,South,179,3.0,3.0,88,0.10,,---,0.10,VWS V14.01,2013-06-25 20:56:00,
2013-06-25 16:57:00,74.2,70.1,30.06,SW,232,0.0,3.0,87,0.10,,---,0.10,VWS V14.01,2013-06-25 20:57:00,
2013-06-25 16:58:00,74.2,70.1,30.07,SE,133,1.0,2.0,87,0.10,,---,0.10,VWS V14.01,2013-06-25 20:58:00,
2013-06-25 16:59:00,74.2,70.1,30.07,ESE,111,1.0,1.0,87,0.10,,---,0.10,VWS V14.01,2013-06-25 20:59:00,
2013-06-25 17:00:00,74.3,70.5,30.07,ESE,111,0.0,1.0,88,0.10,,---,0.10,VWS V14.01,2013-06-25 21:00:00,
2013-06-25 17:02:00,74.3,70.5,30.07,ESE,111,0.0,1.0,88,0.10,,---,0.10,VWS V14.01,2013-06-25 21:02:00,
2013-06-25 17:03:00,74.3,70.5,30.07,East,98,1.0,1.0,88,0.10,,---,0.10,VWS V14.01,2013-06-25 21:03:00,
2013-06-25 17:04:00,74.3,70.8,30.07,ESE,102,1.0,1.0,89,0.10,,---,0.10,VWS V14.01,2013-06-25 21:04:00,
2013-06-25 17:05:00,74.2,70.8,30.07,East,96,0.0,1.0,89,0.10,,---,0.10,VWS V14.01,2013-06-25 21:05:00,
2013-06-25 17:06:00,74.2,70.8,30.07,East,95,0.0,1.0,89,0.10,,---,0.10,VWS V14.01,2013-06-25 21:06:00,
2013-06-25 17:07:00,74.1,70.7,30.07,East,95,0.0,1.0,89,0.10,,---,0.10,VWS V14.01,2013-06-25 21:07:00,
2013-06-25 17:08:00,74.1,70.7,30.07,East,95,0.0,0.0,89,0.10,,---,0.10,VWS V14.01,2013-06-25 21:08:00,
2013-06-25 17:09:00,74.1,70.7,30.07,East,95,0.0,0.0,89,0.10,,---,0.10,VWS V14.01,2013-06-25 21:09:00,
2013-06-25 17:10:00,74.1,70.7,30.07,East,95,0.0,0.0,89,0.10,,---,0.10,VWS V14.01,2013-06-25 21:10:00,
2013-06-25 17:11:00,74.1,71.0,30.07,East,96,0.0,0.0,90,0.10,,---,0.10,VWS V14.01,2013-06-25 21:11:00,
2013-06-25 17:12:00,74.1,71.0,30.07,West,265,2.0,2.0,90,0.10,,---,0.10,VWS V14.01,2013-06-25 21:12:00,
2013-06-25 17:13:00,74.1,70.7,30.07,WSW,240,2.0,2.0,89,0.10,,---,0.10,VWS V14.01,2013-06-25 21:13:00,
2013-06-25 17:14:00,74.0,70.6,30.07,WSW,241,2.0,2.0,89,0.10,,---,0.10,VWS V14.01,2013-06-25 21:14:00,
2013-06-25 17:15:00,74.0,70.6,30.07,SW,223,3.0,3.0,89,0.10,,---,0.10,VWS V14.01,2013-06-25 21:15:00,
2013-06-25 17:16:00,74.0,70.6,30.07,SW,232,3.0,3.0,89,0.10,,---,0.10,VWS V14.01,2013-06-25 21:16:00,
2013-06-25 17:17:00,73.9,70.1,30.06,WSW,258,3.0,3.0,88,0.10,,---,0.10,VWS V14.01,2013-06-25 21:17:00,
2013-06-25 17:18:00,73.9,70.1,30.06,WSW,239,2.0,3.0,88,0.10,,---,0.10,VWS V14.01,2013-06-25 21:18:00,
2013-06-25 17:19:00,73.9,70.5,30.06,SW,229,1.0,2.0,89,0.10,,---,0.10,VWS V14.01,2013-06-25 21:19:00,
2013-06-25 17:20:00,73.9,70.5,30.06,WSW,254,2.0,4.0,89,0.10,,---,0.10,VWS V14.01,2013-06-25 21:20:00,
2013-06-25 17:21:00,73.9,70.5,30.06,SW,219,3.0,3.0,89,0.10,,---,0.10,VWS V14.01,2013-06-25 21:21:00,
2013-06-25 17:22:00,73.8,70.4,30.06,West,259,1.0,3.0,89,0.10,,---,0.10,VWS V14.01,2013-06-25 21:22:00,
2013-06-25 17:23:00,73.8,70.4,30.06,WSW,252,2.0,2.0,89,0.10,,---,0.10,VWS V14.01,2013-06-25 21:23:00,
2013-06-25 17:24:00,73.8,70.7,30.06,WSW,238,2.0,2.0,90,0.09,,---,0.10,VWS V14.01,2013-06-25 21:24:00,
2013-06-25 17:25:00,73.8,70.7,30.06,SW,215,0.0,2.0,90,0.07,,---,0.10,VWS V14.01,2013-06-25 21:25:00,
2013-06-25 17:26:00,73.8,70.7,30.06,WSW,238,1.0,1.0,90,0.06,,---,0.10,VWS V14.01,2013-06-25 21:26:00,
2013-06-25 17:27:00,73.7,70.6,30.06,South,171,1.0,1.0,90,0.05,,---,0.10,VWS V14.01,2013-06-25 21:27:00,
2013-06-25 17:28:00,73.7,70.3,30.06,SSW,211,0.0,2.0,89,0.04,,---,0.10,VWS V14.01,2013-06-25 21:28:00,
2013-06-25 17:29:00,73.6,70.2,30.06,SW,223,2.0,2.0,89,0.02,,---,0.10,VWS V14.01,2013-06-25 21:29:00,
2013-06-25 17:30:00,73.6,70.2,30.06,SW,224,0.0,2.0,89,0.01,,---,0.10,VWS V14.01,2013-06-25 21:30:00,
2013-06-25 17:31:00,73.6,70.2,30.06,SW,224,0.0,2.0,89,0.01,,---,0.10,VWS V14.01,2013-06-25 21:31:00,
2013-06-25 17:32:00,73.5,70.1,30.06,ESE,123,1.0,1.0,89,0.00,,---,0.10,VWS V14.01,2013-06-25 21:32:00,
2013-06-25 17:33:00,73.5,70.1,30.06,SW,236,1.0,2.0,89,0.00,,---,0.10,VWS V14.01,2013-06-25 21:33:00,
2013-06-25 17:34:00,73.4,70.0,30.06,SW,229,2.0,2.0,89,0.00,,---,0.10,VWS V14.01,2013-06-25 21:34:00,
2013-06-25 17:35:00,73.4,70.0,30.06,SW,229,0.0,2.0,89,0.00,,---,0.10,VWS V14.01,2013-06-25 21:35:00,
2013-06-25 17:36:00,73.4,70.0,30.06,South,176,0.0,1.0,89,0.00,,---,0.10,VWS V14.01,2013-06-25 21:36:00,
2013-06-25 17:37:00,73.4,69.6,30.06,SSW,199,1.0,1.0,88,0.00,,---,0.10,VWS V14.01,2013-06-25 21:37:00,
2013-06-25 17:38:00,73.4,70.0,30.06,SSW,203,1.0,1.0,89,0.00,,---,0.10,VWS V14.01,2013-06-25 21:38:00,
2013-06-25 17:39:00,73.4,70.0,30.06,SSW,203,0.0,1.0,89,0.00,,---,0.10,VWS V14.01,2013-06-25 21:39:00,
2013-06-25 17:40:00,73.4,70.0,30.06,SSW,203,0.0,0.0,89,0.00,,---,0.10,VWS V14.01,2013-06-25 21:40:00,
2013-06-25 17:41:00,73.4,70.0,30.06,SSW,203,0.0,0.0,89,0.00,,---,0.10,VWS V14.01,2013-06-25 21:41:00,
2013-06-25 17:42:00,73.5,70.1,30.06,SE,136,1.0,1.0,89,0.00,,---,0.10,VWS V14.01,2013-06-25 21:42:00,
2013-06-25 17:43:00,73.5,70.1,30.06,East,100,2.0,2.0,89,0.00,,---,0.10,VWS V14.01,2013-06-25 21:43:00,
2013-06-25 17:44:00,73.5,70.1,30.06,East,88,2.0,2.0,89,0.00,,---,0.10,VWS V14.01,2013-06-25 21:44:00,
2013-06-25 17:45:00,73.5,70.1,30.06,East,81,3.0,3.0,89,0.00,,---,0.10,VWS V14.01,2013-06-25 21:45:00,
2013-06-25 17:46:00,73.4,70.0,30.06,ENE,74,3.0,3.0,89,0.00,,---,0.10,VWS V14.01,2013-06-25 21:46:00,
2013-06-25 17:47:00,73.4,70.3,30.06,East,80,3.0,3.0,90,0.00,,---,0.10,VWS V14.01,2013-06-25 21:47:00,
2013-06-25 17:48:00,73.3,70.2,30.06,ENE,76,3.0,5.0,90,0.00,,---,0.10,VWS V14.01,2013-06-25 21:48:00,
2013-06-25 17:49:00,73.3,70.2,30.06,East,85,3.0,4.0,90,0.00,,---,0.10,VWS V14.01,2013-06-25 21:49:00,
2013-06-25 17:50:00,73.3,70.2,30.06,East,81,3.0,3.0,90,0.00,,---,0.10,VWS V14.01,2013-06-25 21:50:00,
2013-06-25 17:51:00,73.3,70.2,30.06,East,84,3.0,3.0,90,0.00,,---,0.10,VWS V14.01,2013-06-25 21:51:00,
2013-06-25 17:52:00,73.3,70.2,30.07,East,90,3.0,5.0,90,0.00,,---,0.10,VWS V14.01,2013-06-25 21:52:00,
2013-06-25 17:53:00,73.3,70.5,30.07,East,91,1.0,3.0,91,0.00,,---,0.10,VWS V14.01,2013-06-25 21:53:00,
2013-06-25 17:54:00,73.3,70.5,30.07,East,91,2.0,2.0,91,0.00,,---,0.10,VWS V14.01,2013-06-25 21:54:00,
2013-06-25 17:55:00,73.3,70.5,30.07,East,91,1.0,2.0,91,0.00,,---,0.10,VWS V14.01,2013-06-25 21:55:00,
2013-06-25 17:56:00,73.3,70.5,30.07,East,91,1.0,1.0,91,0.00,,---,0.10,VWS V14.01,2013-06-25 21:56:00,
2013-06-25 17:57:00,73.2,70.4,30.07,ESE,103,2.0,2.0,91,0.00,,---,0.10,VWS V14.01,2013-06-25 21:57:00,
2013-06-25 17:58:00,73.2,70.1,30.07,ESE,106,0.0,2.0,90,0.00,,---,0.10,VWS V14.01,2013-06-25 21:58:00,
2013-06-25 17:59:00,73.1,70.0,30.07,ESE,105,0.0,0.0,90,0.00,,---,0.10,VWS V14.01,2013-06-25 21:59:00,
2013-06-25 18:01:00,73.1,70.3,30.07,ESE,105,0.0,1.0,91,0.00,,---,0.10,VWS V14.01,2013-06-25 22:01:00,
2013-06-25 18:03:00,73.1,70.3,30.07,ESE,105,0.0,1.0,91,0.00,,---,0.10,VWS V14.01,2013-06-25 22:03:00,
2013-06-25 18:04:00,73.2,70.4,30.07,SSE,148,0.0,0.0,91,0.00,,---,0.10,VWS V14.01,2013-06-25 22:04:00,
2013-06-25 18:05:00,73.2,70.4,30.06,SSE,148,0.0,0.0,91,0.00,,---,0.10,VWS V14.01,2013-06-25 22:05:00,
2013-06-25 18:06:00,73.1,70.3,30.07,SSE,148,0.0,0.0,91,0.00,,---,0.10,VWS V14.01,2013-06-25 22:06:00,
2013-06-25 18:07:00,73.1,70.3,30.07,SSE,148,0.0,0.0,91,0.00,,---,0.10,VWS V14.01,2013-06-25 22:07:00,
2013-06-25 18:08:00,73.1,70.3,30.07,SSE,148,0.0,0.0,91,0.00,,---,0.10,VWS V14.01,2013-06-25 22:08:00,
2013-06-25 18:09:00,73.1,70.3,30.06,SSE,148,0.0,0.0,91,0.00,,---,0.10,VWS V14.01,2013-06-25 22:09:00,
2013-06-25 18:10:00,73.1,70.3,30.06,SSE,148,0.0,0.0,91,0.00,,---,0.10,VWS V14.01,2013-06-25 22:10:00,
2013-06-25 18:11:00,73.2,70.4,30.06,SSE,148,0.0,0.0,91,0.00,,---,0.10,VWS V14.01,2013-06-25 22:11:00,
2013-06-25 18:12:00,73.2,70.4,30.06,SSE,150,0.0,0.0,91,0.00,,---,0.10,VWS V14.01,2013-06-25 22:12:00,
2013-06-25 18:13:00,73.2,70.4,30.06,West,281,1.0,1.0,91,0.00,,---,0.10,VWS V14.01,2013-06-25 22:13:00,
2013-06-25 18:14:00,73.2,70.4,30.06,West,261,0.0,2.0,91,0.00,,---,0.10,VWS V14.01,2013-06-25 22:14:00,
2013-06-25 18:15:00,73.2,70.1,30.06,SSW,211,2.0,2.0,90,0.00,,---,0.10,VWS V14.01,2013-06-25 22:15:00,
2013-06-25 18:16:00,73.1,69.7,30.06,WSW,247,2.0,2.0,89,0.00,,---,0.10,VWS V14.01,2013-06-25 22:16:00,
2013-06-25 18:17:00,73.1,69.7,30.06,SSW,208,1.0,2.0,89,0.00,,---,0.10,VWS V14.01,2013-06-25 22:17:00,
2013-06-25 18:18:00,73.1,70.0,30.05,SW,236,2.0,2.0,90,0.00,,---,0.10,VWS V14.01,2013-06-25 22:18:00,
2013-06-25 18:19:00,73.1,70.0,30.05,WSW,238,1.0,2.0,90,0.00,,---,0.10,VWS V14.01,2013-06-25 22:19:00,
2013-06-25 18:20:00,73.1,70.0,30.05,SW,227,2.0,2.0,90,0.00,,---,0.10,VWS V14.01,2013-06-25 22:20:00,
2013-06-25 18:21:00,73.1,70.0,30.05,SSW,213,2.0,4.0,90,0.00,,---,0.10,VWS V14.01,2013-06-25 22:21:00,
2013-06-25 18:22:00,73.0,69.9,30.05,SW,214,2.0,4.0,90,0.00,,---,0.10,VWS V14.01,2013-06-25 22:22:00,
2013-06-25 18:23:00,73.0,69.9,30.05,SW,233,2.0,3.0,90,0.00,,---,0.10,VWS V14.01,2013-06-25 22:23:00,
2013-06-25 18:24:00,72.9,69.8,30.05,SSW,199,2.0,4.0,90,0.00,,---,0.10,VWS V14.01,2013-06-25 22:24:00,
2013-06-25 18:25:00,72.9,69.5,30.04,SW,226,1.0,3.0,89,0.00,,---,0.10,VWS V14.01,2013-06-25 22:25:00,
2013-06-25 18:26:00,72.9,69.5,30.04,WSW,240,2.0,2.0,89,0.00,,---,0.10,VWS V14.01,2013-06-25 22:26:00,
2013-06-25 18:27:00,72.9,69.5,30.04,SW,227,2.0,2.0,89,0.00,,---,0.10,VWS V14.01,2013-06-25 22:27:00,
2013-06-25 18:28:00,72.9,69.5,30.04,West,265,2.0,2.0,89,0.00,,---,0.10,VWS V14.01,2013-06-25 22:28:00,
2013-06-25 18:29:00,72.8,69.4,30.04,WSW,240,2.0,2.0,89,0.00,,---,0.10,VWS V14.01,2013-06-25 22:29:00,
2013-06-25 18:30:00,72.8,69.4,30.04,SSW,193,1.0,2.0,89,0.00,,---,0.10,VWS V14.01,2013-06-25 22:30:00,
2013-06-25 18:31:00,72.8,69.4,30.04,SW,236,0.0,2.0,89,0.00,,---,0.10,VWS V14.01,2013-06-25 22:31:00,
2013-06-25 18:32:00,72.9,69.8,30.04,SW,236,2.0,2.0,90,0.00,,---,0.10,VWS V14.01,2013-06-25 22:32:00,
2013-06-25 18:33:00,72.9,69.5,30.04,WSW,249,1.0,2.0,89,0.00,,---,0.10,VWS V14.01,2013-06-25 22:33:00,
2013-06-25 18:34:00,72.9,69.8,30.04,WSW,249,2.0,2.0,90,0.00,,---,0.10,VWS V14.01,2013-06-25 22:34:00,
2013-06-25 18:35:00,72.9,69.8,30.04,WSW,245,2.0,3.0,90,0.00,,---,0.10,VWS V14.01,2013-06-25 22:35:00,
2013-06-25 18:36:00,72.8,69.4,30.04,WSW,238,1.0,3.0,89,0.00,,---,0.10,VWS V14.01,2013-06-25 22:36:00,
2013-06-25 18:37:00,72.8,69.7,30.04,SW,236,2.0,3.0,90,0.00,,---,0.10,VWS V14.01,2013-06-25 22:37:00,
2013-06-25 18:38:00,72.8,69.7,30.04,SSW,205,2.0,2.0,90,0.00,,---,0.10,VWS V14.01,2013-06-25 22:38:00,
2013-06-25 18:39:00,72.8,69.7,30.04,SW,232,1.0,2.0,90,0.00,,---,0.10,VWS V14.01,2013-06-25 22:39:00,
2013-06-25 18:40:00,72.8,69.7,30.04,WSW,249,1.0,4.0,90,0.00,,---,0.10,VWS V14.01,2013-06-25 22:40:00,
2013-06-25 18:43:00,72.8,69.7,30.04,WSW,249,1.0,4.0,90,0.00,,---,0.10,VWS V14.01,2013-06-25 22:43:00,
2013-06-25 18:44:00,72.7,69.6,30.05,South,183,2.0,2.0,90,0.00,,---,0.10,VWS V14.01,2013-06-25 22:44:00,
2013-06-25 18:45:00,72.7,69.6,30.05,SSW,200,2.0,2.0,90,0.00,,---,0.10,VWS V14.01,2013-06-25 22:45:00,
2013-06-25 18:46:00,72.7,69.6,30.05,WSW,243,4.0,4.0,90,0.00,,---,0.10,VWS V14.01,2013-06-25 22:46:00,
2013-06-25 18:47:00,72.7,69.6,30.05,SSW,209,4.0,4.0,90,0.00,,---,0.10,VWS V14.01,2013-06-25 22:47:00,
2013-06-25 18:48:00,72.8,69.7,30.05,SE,128,2.0,2.0,90,0.00,,---,0.10,VWS V14.01,2013-06-25 22:48:00,
2013-06-25 18:49:00,72.8,69.7,30.05,West,277,1.0,2.0,90,0.00,,---,0.10,VWS V14.01,2013-06-25 22:49:00,
2013-06-25 18:50:00,72.9,69.8,30.05,SSW,206,1.0,2.0,90,0.00,,---,0.10,VWS V14.01,2013-06-25 22:50:00,
2013-06-25 18:51:00,73.0,69.9,30.04,SW,224,3.0,3.0,90,0.00,,---,0.10,VWS V14.01,2013-06-25 22:51:00,
2013-06-25 18:52:00,73.0,69.9,30.05,SSW,200,1.0,3.0,90,0.00,,---,0.10,VWS V14.01,2013-06-25 22:52:00,
2013-06-25 18:53:00,73.1,70.0,30.05,SSW,198,2.0,2.0,90,0.00,,---,0.10,VWS V14.01,2013-06-25 22:53:00,
2013-06-25 18:54:00,73.2,70.1,30.05,WSW,253,3.0,3.0,90,0.00,,---,0.10,VWS V14.01,2013-06-25 22:54:00,
2013-06-25 18:55:00,73.3,70.2,30.04,SSE,163,2.0,3.0,90,0.00,,---,0.10,VWS V14.01,2013-06-25 22:55:00,
2013-06-25 18:56:00,73.4,70.3,30.04,West,273,1.0,2.0,90,0.00,,---,0.10,VWS V14.01,2013-06-25 22:56:00,
2013-06-25 18:57:00,73.5,70.1,30.04,SW,223,3.0,3.0,89,0.00,,---,0.10,VWS V14.01,2013-06-25 22:57:00,
2013-06-25 18:58:00,73.7,70.3,30.04,SW,214,0.0,3.0,89,0.00,,---,0.10,VWS V14.01,2013-06-25 22:58:00,
2013-06-25 18:59:00,73.7,70.3,30.04,SW,218,0.0,0.0,89,0.00,,---,0.10,VWS V14.01,2013-06-25 22:59:00,
2013-06-25 19:04:00,73.9,70.5,30.04,SSE,163,2.0,2.0,89,0.00,,---,0.10,VWS V14.01,2013-06-25 23:04:00,
2013-06-25 19:05:00,73.9,70.5,30.04,SSE,163,2.0,2.0,89,0.00,,---,0.10,VWS V14.01,2013-06-25 23:05:00,
2013-06-25 19:06:00,74.7,70.9,30.04,SW,214,2.0,3.0,88,0.00,,---,0.10,VWS V14.01,2013-06-25 23:06:00,
2013-06-25 19:07:00,74.8,70.7,30.04,West,265,1.0,2.0,87,0.00,,---,0.10,VWS V14.01,2013-06-25 23:07:00,
2013-06-25 19:08:00,74.8,70.7,30.04,West,272,0.0,1.0,87,0.00,,---,0.10,VWS V14.01,2013-06-25 23:08:00,
2013-06-25 19:09:00,74.9,70.8,30.04,SSW,199,0.0,2.0,87,0.00,,---,0.10,VWS V14.01,2013-06-25 23:09:00,
2013-06-25 19:10:00,74.9,70.8,30.04,SE,143,0.0,0.0,87,0.00,,---,0.10,VWS V14.01,2013-06-25 23:10:00,
2013-06-25 19:11:00,74.9,70.8,30.04,SSW,209,0.0,0.0,87,0.00,,---,0.10,VWS V14.01,2013-06-25 23:11:00,
2013-06-25 19:12:00,75.0,70.9,30.04,SW,221,0.0,0.0,87,0.00,,---,0.10,VWS V14.01,2013-06-25 23:12:00,
2013-06-25 19:13:00,75.0,70.9,30.04,WSW,240,0.0,0.0,87,0.00,,---,0.10,VWS V14.01,2013-06-25 23:13:00,
2013-06-25 19:14:00,75.0,70.9,30.04,WSW,241,0.0,0.0,87,0.00,,---,0.10,VWS V14.01,2013-06-25 23:14:00,
2013-06-25 19:15:00,75.1,71.0,30.04,WSW,241,0.0,0.0,87,0.00,,---,0.10,VWS V14.01,2013-06-25 23:15:00,
2013-06-25 19:16:00,75.1,71.0,30.04,WSW,242,1.0,1.0,87,0.00,,---,0.10,VWS V14.01,2013-06-25 23:16:00,
2013-06-25 19:17:00,75.0,70.9,30.04,SW,227,1.0,1.0,87,0.00,,---,0.10,VWS V14.01,2013-06-25 23:17:00,
2013-06-25 19:18:00,75.0,70.5,30.04,SSW,209,1.0,2.0,86,0.00,,---,0.10,VWS V14.01,2013-06-25 23:18:00,
2013-06-25 19:19:00,75.0,70.9,30.04,SW,219,0.0,1.0,87,0.00,,---,0.10,VWS V14.01,2013-06-25 23:19:00,
2013-06-25 19:20:00,75.0,70.9,30.04,West,262,0.0,1.0,87,0.00,,---,0.10,VWS V14.01,2013-06-25 23:20:00,
2013-06-25 19:21:00,75.1,71.0,30.04,SSW,211,0.0,0.0,87,0.00,,---,0.10,VWS V14.01,2013-06-25 23:21:00,
2013-06-25 19:22:00,75.1,71.0,30.04,SSW,211,0.0,0.0,87,0.00,,---,0.10,VWS V14.01,2013-06-25 23:22:00,
2013-06-25 19:23:00,75.1,71.0,30.04,SW,225,3.0,3.0,87,0.00,,---,0.10,VWS V14.01,2013-06-25 23:23:00,
2013-06-25 19:24:00,75.1,71.0,30.04,WSW,245,1.0,3.0,87,0.00,,---,0.10,VWS V14.01,2013-06-25 23:24:00,
2013-06-25 19:25:00,75.0,70.9,30.04,SW,232,2.0,3.0,87,0.00,,---,0.10,VWS V14.01,2013-06-25 23:25:00,
2013-06-25 19:26:00,75.0,70.9,30.05,SW,223,1.0,2.0,87,0.00,,---,0.10,VWS V14.01,2013-06-25 23:26:00,
2013-06-25 19:27:00,75.0,70.9,30.05,SW,234,2.0,3.0,87,0.00,,---,0.10,VWS V14.01,2013-06-25 23:27:00,
2013-06-25 19:28:00,75.0,70.9,30.05,WSW,256,2.0,4.0,87,0.00,,---,0.10,VWS V14.01,2013-06-25 23:28:00,
2013-06-25 19:29:00,75.0,70.9,30.05,WSW,245,0.0,0.0,87,0.00,,---,0.10,VWS V14.01,2013-06-25 23:29:00,
2013-06-25 19:30:00,75.0,70.9,30.05,South,178,1.0,1.0,87,0.00,,---,0.10,VWS V14.01,2013-06-25 23:30:00,
2013-06-25 19:31:00,74.9,70.8,30.05,WSW,240,2.0,3.0,87,0.00,,---,0.10,VWS V14.01,2013-06-25 23:31:00,
2013-06-25 19:32:00,74.9,70.8,30.05,WSW,238,3.0,3.0,87,0.00,,---,0.10,VWS V14.01,2013-06-25 23:32:00,
2013-06-25 19:33:00,74.9,70.8,30.05,SSW,199,2.0,3.0,87,0.00,,---,0.10,VWS V14.01,2013-06-25 23:33:00,
2013-06-25 19:34:00,74.9,70.8,30.04,WSW,245,2.0,5.0,87,0.00,,---,0.10,VWS V14.01,2013-06-25 23:34:00,
2013-06-25 19:35:00,74.8,70.7,30.04,SSW,208,2.0,2.0,87,0.00,,---,0.10,VWS V14.01,2013-06-25 23:35:00,
2013-06-25 19:36:00,74.9,70.8,30.04,SW,218,1.0,3.0,87,0.00,,---,0.10,VWS V14.01,2013-06-25 23:36:00,
2013-06-25 19:37:00,74.8,70.7,30.04,West,259,1.0,2.0,87,0.00,,---,0.10,VWS V14.01,2013-06-25 23:37:00,
2013-06-25 19:38:00,74.8,70.7,30.04,West,275,2.0,2.0,87,0.00,,---,0.10,VWS V14.01,2013-06-25 23:38:00,
2013-06-25 19:39:00,74.8,70.7,30.05,SW,227,2.0,2.0,87,0.00,,---,0.10,VWS V14.01,2013-06-25 23:39:00,
2013-06-25 19:40:00,74.8,70.7,30.05,WSW,238,5.0,5.0,87,0.00,,---,0.10,VWS V14.01,2013-06-25 23:40:00,
2013-06-25 19:41:00,74.8,70.7,30.05,West,269,2.0,5.0,87,0.00,,---,0.10,VWS V14.01,2013-06-25 23:41:00,
2013-06-25 19:42:00,74.7,70.6,30.05,SW,219,0.0,3.0,87,0.00,,---,0.10,VWS V14.01,2013-06-25 23:42:00,
2013-06-25 19:43:00,74.7,70.6,30.05,SW,224,1.0,2.0,87,0.00,,---,0.10,VWS V14.01,2013-06-25 23:43:00,
2013-06-25 19:44:00,74.6,70.8,30.05,WSW,254,0.0,0.0,88,0.00,,---,0.10,VWS V14.01,2013-06-25 23:44:00,
2013-06-25 19:45:00,74.6,70.8,30.05,SW,236,3.0,4.0,88,0.00,,---,0.10,VWS V14.01,2013-06-25 23:45:00,
2013-06-25 19:46:00,74.6,70.8,30.05,South,179,1.0,3.0,88,0.00,,---,0.10,VWS V14.01,2013-06-25 23:46:00,
2013-06-25 19:47:00,74.6,70.8,30.05,SW,218,2.0,2.0,88,0.00,,---,0.10,VWS V14.01,2013-06-25 23:47:00,
2013-06-25 19:48:00,74.5,70.7,30.05,SSW,210,1.0,2.0,88,0.00,,---,0.10,VWS V14.01,2013-06-25 23:48:00,
2013-06-25 19:49:00,74.5,70.7,30.05,WSW,257,3.0,3.0,88,0.00,,---,0.10,VWS V14.01,2013-06-25 23:49:00,
2013-06-25 19:50:00,74.5,70.7,30.05,SW,236,1.0,3.0,88,0.00,,---,0.10,VWS V14.01,2013-06-25 23:50:00,
2013-06-25 19:51:00,74.5,70.7,30.05,SW,215,3.0,3.0,88,0.00,,---,0.10,VWS V14.01,2013-06-25 23:51:00,
2013-06-25 19:52:00,74.5,70.7,30.05,SSW,210,0.0,3.0,88,0.00,,---,0.10,VWS V14.01,2013-06-25 23:52:00,
2013-06-25 19:53:00,74.4,70.6,30.05,SSW,208,2.0,2.0,88,0.00,,---,0.10,VWS V14.01,2013-06-25 23:53:00,
2013-06-25 19:54:00,74.4,70.6,30.05,SW,226,2.0,3.0,88,0.00,,---,0.10,VWS V14.01,2013-06-25 23:54:00,
2013-06-25 19:55:00,74.4,70.6,30.05,WSW,253,1.0,2.0,88,0.00,,---,0.10,VWS V14.01,2013-06-25 23:55:00,
2013-06-25 19:56:00,74.4,70.6,30.05,WSW,249,2.0,3.0,88,0.00,,---,0.10,VWS V14.01,2013-06-25 23:56:00,
2013-06-25 19:57:00,74.4,70.6,30.05,SW,225,1.0,3.0,88,0.00,,---,0.10,VWS V14.01,2013-06-25 23:57:00,
2013-06-25 19:58:00,74.3,70.5,30.05,SSE,161,4.0,4.0,88,0.00,,---,0.10,VWS V14.01,2013-06-25 23:58:00,
2013-06-25 19:59:00,74.3,70.5,30.05,SW,221,1.0,1.0,88,0.00,,---,0.10,VWS V14.01,2013-06-25 23:59:00,
2013-06-25 20:02:00,74.3,70.5,30.05,SW,219,0.0,1.0,88,0.00,,---,0.10,VWS V14.01,2013-06-26 00:02:00,
2013-06-25 20:03:00,74.3,70.8,30.05,WSW,242,1.0,1.0,89,0.00,,---,0.10,VWS V14.01,2013-06-26 00:03:00,
2013-06-25 20:04:00,74.3,70.8,30.05,SSW,213,2.0,2.0,89,0.00,,---,0.10,VWS V14.01,2013-06-26 00:04:00,
2013-06-25 20:05:00,74.3,70.5,30.05,WSW,254,2.0,2.0,88,0.00,,---,0.10,VWS V14.01,2013-06-26 00:05:00,
2013-06-25 20:06:00,74.3,70.5,30.05,SW,236,3.0,4.0,88,0.00,,---,0.10,VWS V14.01,2013-06-26 00:06:00,
2013-06-25 20:07:00,74.3,70.5,30.05,West,267,2.0,5.0,88,0.00,,---,0.10,VWS V14.01,2013-06-26 00:07:00,
2013-06-25 20:08:00,74.2,70.4,30.05,SW,236,2.0,3.0,88,0.00,,---,0.10,VWS V14.01,2013-06-26 00:08:00,
2013-06-25 20:09:00,74.2,70.4,30.05,WSW,252,3.0,3.0,88,0.00,,---,0.10,VWS V14.01,2013-06-26 00:09:00,
2013-06-25 20:10:00,74.2,70.8,30.05,SSW,209,3.0,4.0,89,0.00,,---,0.10,VWS V14.01,2013-06-26 00:10:00,
2013-06-25 20:11:00,74.2,70.8,30.05,WSW,238,1.0,3.0,89,0.00,,---,0.10,VWS V14.01,2013-06-26 00:11:00,
2013-06-25 20:12:00,74.1,70.7,30.05,West,264,1.0,3.0,89,0.00,,---,0.10,VWS V14.01,2013-06-26 00:12:00,
2013-06-25 20:13:00,74.1,70.7,30.05,SW,222,5.0,5.0,89,0.00,,---,0.10,VWS V14.01,2013-06-26 00:13:00,
2013-06-25 20:14:00,74.1,70.7,30.05,SW,229,2.0,2.0,89,0.00,,---,0.10,VWS V14.01,2013-06-26 00:14:00,
2013-06-25 20:15:00,74.1,70.7,30.05,SW,221,1.0,2.0,89,0.00,,---,0.10,VWS V14.01,2013-06-26 00:15:00,
2013-06-25 20:16:00,74.1,70.7,30.05,SSW,213,3.0,3.0,89,0.00,,---,0.10,VWS V14.01,2013-06-26 00:16:00,
2013-06-25 20:17:00,74.0,70.6,30.05,SW,236,2.0,3.0,89,0.00,,---,0.10,VWS V14.01,2013-06-26 00:17:00,
2013-06-25 20:18:00,74.0,70.6,30.05,SSW,197,1.0,2.0,89,0.00,,---,0.10,VWS V14.01,2013-06-26 00:18:00,
2013-06-25 20:19:00,74.0,70.6,30.05,SW,225,4.0,6.0,89,0.00,,---,0.10,VWS V14.01,2013-06-26 00:19:00,
2013-06-25 20:20:00,74.0,70.6,30.05,WSW,237,0.0,4.0,89,0.00,,---,0.10,VWS V14.01,2013-06-26 00:20:00,
2013-06-25 20:21:00,74.0,70.6,30.05,WSW,237,1.0,1.0,89,0.00,,---,0.10,VWS V14.01,2013-06-26 00:21:00,
2013-06-25 20:22:00,73.9,70.5,30.05,SW,215,0.0,1.0,89,0.00,,---,0.10,VWS V14.01,2013-06-26 00:22:00,
2013-06-25 20:23:00,73.9,70.5,30.05,SSW,203,1.0,3.0,89,0.00,,---,0.10,VWS V14.01,2013-06-26 00:23:00,
2013-06-25 20:24:00,73.9,70.5,30.05,SW,230,4.0,4.0,89,0.00,,---,0.10,VWS V14.01,2013-06-26 00:24:00,
2013-06-25 20:25:00,73.9,70.5,30.05,SSE,167,3.0,4.0,89,0.00,,---,0.10,VWS V14.01,2013-06-26 00:25:00,
2013-06-25 20:26:00,73.8,70.4,30.05,WSW,242,2.0,3.0,89,0.00,,---,0.10,VWS V14.01,2013-06-26 00:26:00,
2013-06-25 20:27:00,73.8,70.4,30.05,SSW,194,1.0,5.0,89,0.00,,---,0.10,VWS V14.01,2013-06-26 00:27:00,
2013-06-25 20:28:00,73.7,70.6,30.05,SW,223,3.0,3.0,90,0.00,,---,0.10,VWS V14.01,2013-06-26 00:28:00,
2013-06-25 20:29:00,73.7,70.6,30.05,SSW,210,1.0,3.0,90,0.00,,---,0.10,VWS V14.01,2013-06-26 00:29:00,
2013-06-25 20:30:00,73.7,70.6,30.05,West,263,0.0,2.0,90,0.00,,---,0.10,VWS V14.01,2013-06-26 00:30:00,
2013-06-25 20:31:00,73.7,70.6,30.05,SW,236,1.0,2.0,90,0.00,,---,0.10,VWS V14.01,2013-06-26 00:31:00,
2013-06-25 20:32:00,73.7,70.6,30.06,West,265,1.0,3.0,90,0.00,,---,0.10,VWS V14.01,2013-06-26 00:32:00,
2013-06-25 20:33:00,73.6,70.5,30.06,West,265,2.0,4.0,90,0.00,,---,0.10,VWS V14.01,2013-06-26 00:33:00,
2013-06-25 20:34:00,73.6,70.5,30.06,SSW,206,2.0,4.0,90,0.00,,---,0.10,VWS V14.01,2013-06-26 00:34:00,
2013-06-25 20:35:00,73.6,70.5,30.06,SSW,202,1.0,4.0,90,0.00,,---,0.10,VWS V14.01,2013-06-26 00:35:00,
2013-06-25 20:36:00,73.5,70.4,30.05,SSW,207,2.0,4.0,90,0.00,,---,0.10,VWS V14.01,2013-06-26 00:36:00,
2013-06-25 20:37:00,73.5,70.4,30.05,SSE,167,2.0,3.0,90,0.00,,---,0.10,VWS V14.01,2013-06-26 00:37:00,
2013-06-25 20:38:00,73.5,70.4,30.05,SW,221,2.0,2.0,90,0.00,,---,0.10,VWS V14.01,2013-06-26 00:38:00,
2013-06-25 20:39:00,73.5,70.4,30.05,SW,221,0.0,2.0,90,0.00,,---,0.10,VWS V14.01,2013-06-26 00:39:00,
2013-06-25 20:40:00,73.4,70.3,30.05,SW,226,0.0,1.0,90,0.00,,---,0.10,VWS V14.01,2013-06-26 00:40:00,
2013-06-25 20:41:00,73.4,70.3,30.05,WSW,254,1.0,1.0,90,0.00,,---,0.10,VWS V14.01,2013-06-26 00:41:00,
2013-06-25 20:42:00,73.4,70.6,30.05,West,279,0.0,1.0,91,0.00,,---,0.10,VWS V14.01,2013-06-26 00:42:00,
2013-06-25 20:43:00,73.4,70.6,30.05,West,273,1.0,1.0,91,0.00,,---,0.10,VWS V14.01,2013-06-26 00:43:00,
2013-06-25 20:44:00,73.3,70.5,30.05,SW,230,1.0,3.0,91,0.00,,---,0.10,VWS V14.01,2013-06-26 00:44:00,
2013-06-25 20:45:00,73.3,70.5,30.06,SSW,211,1.0,4.0,91,0.00,,---,0.10,VWS V14.01,2013-06-26 00:45:00,
2013-06-25 20:46:00,73.3,70.5,30.06,WSW,257,1.0,2.0,91,0.00,,---,0.10,VWS V14.01,2013-06-26 00:46:00,
2013-06-25 20:47:00,73.3,70.5,30.06,WSW,254,1.0,2.0,91,0.00,,---,0.10,VWS V14.01,2013-06-26 00:47:00,
2013-06-25 20:48:00,73.2,70.4,30.06,SW,223,6.0,6.0,91,0.00,,---,0.10,VWS V14.01,2013-06-26 00:48:00,
2013-06-25 20:49:00,73.2,70.4,30.06,SSE,158,2.0,2.0,91,0.00,,---,0.10,VWS V14.01,2013-06-26 00:49:00,
2013-06-25 20:50:00,73.2,70.4,30.06,WSW,242,1.0,2.0,91,0.00,,---,0.10,VWS V14.01,2013-06-26 00:50:00,
2013-06-25 20:51:00,73.2,70.4,30.05,SSW,203,0.0,2.0,91,0.00,,---,0.10,VWS V14.01,2013-06-26 00:51:00,
2013-06-25 20:52:00,73.2,70.4,30.05,West,275,2.0,3.0,91,0.00,,---,0.10,VWS V14.01,2013-06-26 00:52:00,
2013-06-25 20:53:00,73.2,70.4,30.05,West,265,0.0,2.0,91,0.00,,---,0.10,VWS V14.01,2013-06-26 00:53:00,
2013-06-25 20:54:00,73.1,70.3,30.05,SW,223,2.0,2.0,91,0.00,,---,0.10,VWS V14.01,2013-06-26 00:54:00,
2013-06-25 20:55:00,73.1,70.3,30.05,SSW,210,1.0,2.0,91,0.00,,---,0.10,VWS V14.01,2013-06-26 00:55:00,
2013-06-25 20:56:00,73.1,70.3,30.06,WSW,238,2.0,2.0,91,0.00,,---,0.10,VWS V14.01,2013-06-26 00:56:00,
2013-06-25 20:57:00,73.1,70.3,30.06,SW,217,0.0,2.0,91,0.00,,---,0.10,VWS V14.01,2013-06-26 00:57:00,
2013-06-25 20:58:00,73.1,70.3,30.06,WSW,248,3.0,3.0,91,0.00,,---,0.10,VWS V14.01,2013-06-26 00:58:00,
2013-06-25 20:59:00,73.1,70.3,30.06,SSW,206,2.0,2.0,91,0.00,,---,0.10,VWS V14.01,2013-06-26 00:59:00,
2013-06-25 21:02:00,73.1,70.3,30.06,SSW,195,1.0,3.0,91,0.00,,---,0.10,VWS V14.01,2013-06-26 01:02:00,
2013-06-25 21:03:00,73.1,70.3,30.05,SE,140,0.0,0.0,91,0.00,,---,0.10,VWS V14.01,2013-06-26 01:03:00,
2013-06-25 21:04:00,73.1,70.3,30.05,SE,140,0.0,0.0,91,0.00,,---,0.10,VWS V14.01,2013-06-26 01:04:00,
2013-06-25 21:05:00,73.1,70.3,30.05,West,277,0.0,0.0,91,0.00,,---,0.10,VWS V14.01,2013-06-26 01:05:00,
2013-06-25 21:06:00,73.1,70.3,30.05,WNW,288,2.0,3.0,91,0.00,,---,0.10,VWS V14.01,2013-06-26 01:06:00,
2013-06-25 21:07:00,73.1,70.3,30.05,West,263,1.0,2.0,91,0.00,,---,0.10,VWS V14.01,2013-06-26 01:07:00,
2013-06-25 21:08:00,73.1,70.3,30.06,West,269,1.0,2.0,91,0.00,,---,0.10,VWS V14.01,2013-06-26 01:08:00,
2013-06-25 21:09:00,73.1,70.3,30.06,West,281,0.0,2.0,91,0.00,,---,0.10,VWS V14.01,2013-06-26 01:09:00,
2013-06-25 21:10:00,73.0,70.2,30.06,WSW,237,2.0,3.0,91,0.00,,---,0.10,VWS V14.01,2013-06-26 01:10:00,
2013-06-25 21:11:00,73.1,70.3,30.06,West,271,2.0,2.0,91,0.00,,---,0.10,VWS V14.01,2013-06-26 01:11:00,
2013-06-25 21:12:00,73.1,70.3,30.06,WSW,240,1.0,2.0,91,0.00,,---,0.10,VWS V14.01,2013-06-26 01:12:00,
2013-06-25 21:13:00,73.0,70.2,30.06,WSW,241,0.0,1.0,91,0.00,,---,0.10,VWS V14.01,2013-06-26 01:13:00,
2013-06-25 21:14:00,73.0,70.2,30.06,WSW,241,1.0,1.0,91,0.00,,---,0.10,VWS V14.01,2013-06-26 01:14:00,
2013-06-25 21:15:00,73.0,70.2,30.06,West,277,3.0,3.0,91,0.00,,---,0.10,VWS V14.01,2013-06-26 01:15:00,
2013-06-25 21:16:00,73.0,70.2,30.06,West,276,1.0,3.0,91,0.00,,---,0.10,VWS V14.01,2013-06-26 01:16:00,
2013-06-25 21:17:00,73.0,70.2,30.06,WSW,249,1.0,2.0,91,0.00,,---,0.10,VWS V14.01,2013-06-26 01:17:00,
2013-06-25 21:18:00,73.0,70.2,30.06,WSW,248,0.0,1.0,91,0.00,,---,0.10,VWS V14.01,2013-06-26 01:18:00,
2013-06-25 21:19:00,73.0,70.2,30.06,SSE,150,2.0,3.0,91,0.00,,---,0.10,VWS V14.01,2013-06-26 01:19:00,
2013-06-25 21:20:00,73.0,70.2,30.06,WSW,244,1.0,2.0,91,0.00,,---,0.10,VWS V14.01,2013-06-26 01:20:00,
2013-06-25 21:21:00,73.0,70.2,30.06,WSW,243,0.0,1.0,91,0.00,,---,0.10,VWS V14.01,2013-06-26 01:21:00,
2013-06-25 21:22:00,73.0,70.2,30.06,SW,223,1.0,2.0,91,0.00,,---,0.10,VWS V14.01,2013-06-26 01:22:00,
2013-06-25 21:23:00,73.0,70.2,30.06,SW,223,0.0,1.0,91,0.00,,---,0.10,VWS V14.01,2013-06-26 01:23:00,
2013-06-25 21:24:00,72.9,70.1,30.06,West,267,1.0,1.0,91,0.00,,---,0.10,VWS V14.01,2013-06-26 01:24:00,
2013-06-25 21:25:00,72.9,70.1,30.06,West,264,1.0,1.0,91,0.00,,---,0.10,VWS V14.01,2013-06-26 01:25:00,
2013-06-25 21:26:00,72.9,70.1,30.06,SW,219,0.0,1.0,91,0.00,,---,0.10,VWS V14.01,2013-06-26 01:26:00,
2013-06-25 21:27:00,72.9,70.1,30.06,WSW,237,0.0,1.0,91,0.00,,---,0.10,VWS V14.01,2013-06-26 01:27:00,
2013-06-25 21:28:00,72.9,70.1,30.06,SSE,150,1.0,2.0,91,0.00,,---,0.10,VWS V14.01,2013-06-26 01:28:00,
2013-06-25 21:29:00,72.9,70.4,30.06,SSE,160,0.0,1.0,92,0.00,,---,0.10,VWS V14.01,2013-06-26 01:29:00,
2013-06-25 21:30:00,72.9,70.4,30.06,South,174,1.0,4.0,92,0.00,,---,0.10,VWS V14.01,2013-06-26 01:30:00,
2013-06-25 21:31:00,72.8,70.3,30.06,South,178,1.0,2.0,92,0.00,,---,0.10,VWS V14.01,2013-06-26 01:31:00,
2013-06-25 21:32:00,72.8,70.3,30.06,SSW,199,0.0,1.0,92,0.00,,---,0.10,VWS V14.01,2013-06-26 01:32:00,
2013-06-25 21:33:00,72.8,70.3,30.06,South,173,0.0,3.0,92,0.00,,---,0.10,VWS V14.01,2013-06-26 01:33:00,
2013-06-25 21:34:00,72.8,70.3,30.06,WSW,241,1.0,1.0,92,0.00,,---,0.10,VWS V14.01,2013-06-26 01:34:00,
2013-06-25 21:35:00,72.8,70.3,30.06,WSW,249,2.0,4.0,92,0.00,,---,0.10,VWS V14.01,2013-06-26 01:35:00,
2013-06-25 21:36:00,72.8,70.3,30.06,SW,225,2.0,2.0,92,0.00,,---,0.10,VWS V14.01,2013-06-26 01:36:00,
2013-06-25 21:37:00,72.7,70.2,30.06,WSW,250,4.0,4.0,92,0.00,,---,0.10,VWS V14.01,2013-06-26 01:37:00,
2013-06-25 21:38:00,72.7,70.2,30.06,SSW,213,2.0,4.0,92,0.00,,---,0.10,VWS V14.01,2013-06-26 01:38:00,
2013-06-25 21:39:00,72.7,70.2,30.06,ENE,72,2.0,2.0,92,0.00,,---,0.10,VWS V14.01,2013-06-26 01:39:00,
2013-06-25 21:40:00,72.7,70.2,30.06,SSE,163,2.0,2.0,92,0.00,,---,0.10,VWS V14.01,2013-06-26 01:40:00,
2013-06-25 21:41:00,72.7,70.2,30.06,SW,229,4.0,4.0,92,0.00,,---,0.10,VWS V14.01,2013-06-26 01:41:00,
2013-06-25 21:42:00,72.6,70.2,30.06,SSW,209,0.0,2.0,92,0.00,,---,0.10,VWS V14.01,2013-06-26 01:42:00,
2013-06-25 21:43:00,72.6,70.2,30.06,SSW,205,1.0,2.0,92,0.00,,---,0.10,VWS V14.01,2013-06-26 01:43:00,
2013-06-25 21:44:00,72.6,70.2,30.05,SSW,205,0.0,1.0,92,0.00,,---,0.10,VWS V14.01,2013-06-26 01:44:00,
2013-06-25 21:45:00,72.5,70.1,30.06,South,191,1.0,2.0,92,0.00,,---,0.10,VWS V14.01,2013-06-26 01:45:00,
2013-06-25 21:46:00,72.5,70.1,30.06,West,260,1.0,1.0,92,0.00,,---,0.10,VWS V14.01,2013-06-26 01:46:00,
2013-06-25 21:47:00,72.5,70.1,30.06,WSW,254,0.0,1.0,92,0.00,,---,0.10,VWS V14.01,2013-06-26 01:47:00,
2013-06-25 21:48:00,72.5,70.1,30.06,SSW,203,0.0,1.0,92,0.00,,---,0.10,VWS V14.01,2013-06-26 01:48:00,
2013-06-25 21:49:00,72.4,69.9,30.06,SSW,203,0.0,0.0,92,0.00,,---,0.10,VWS V14.01,2013-06-26 01:49:00,
2013-06-25 21:50:00,72.4,69.9,30.06,SSE,161,0.0,1.0,92,0.00,,---,0.10,VWS V14.01,2013-06-26 01:50:00,
2013-06-25 21:51:00,72.4,69.9,30.06,WSW,249,1.0,2.0,92,0.00,,---,0.10,VWS V14.01,2013-06-26 01:51:00,
2013-06-25 21:52:00,72.4,69.9,30.06,WSW,252,1.0,2.0,92,0.00,,---,0.10,VWS V14.01,2013-06-26 01:52:00,
2013-06-25 21:53:00,72.4,69.9,30.06,SSW,194,0.0,1.0,92,0.00,,---,0.10,VWS V14.01,2013-06-26 01:53:00,
2013-06-25 21:54:00,72.4,69.9,30.06,SE,145,1.0,1.0,92,0.00,,---,0.10,VWS V14.01,2013-06-26 01:54:00,
2013-06-25 21:55:00,72.3,69.8,30.06,ESE,123,0.0,1.0,92,0.00,,---,0.10,VWS V14.01,2013-06-26 01:55:00,
2013-06-25 21:56:00,72.3,69.8,30.06,West,276,0.0,0.0,92,0.00,,---,0.10,VWS V14.01,2013-06-26 01:56:00,
2013-06-25 21:57:00,72.3,69.8,30.06,SW,233,0.0,0.0,92,0.00,,---,0.10,VWS V14.01,2013-06-26 01:57:00,
2013-06-25 21:58:00,72.3,70.2,30.06,SSW,211,0.0,1.0,93,0.00,,---,0.10,VWS V14.01,2013-06-26 01:58:00,
2013-06-25 21:59:00,72.3,70.2,30.06,SW,226,3.0,3.0,93,0.00,,---,0.10,VWS V14.01,2013-06-26 01:59:00,
2013-06-25 22:01:00,72.2,69.8,30.06,SSE,161,0.0,1.0,92,0.00,,---,0.10,VWS V14.01,2013-06-26 02:01:00,
2013-06-25 22:02:00,72.2,69.8,30.06,SSE,161,0.0,1.0,92,0.00,,---,0.10,VWS V14.01,2013-06-26 02:02:00,
2013-06-25 22:03:00,72.1,69.7,30.06,SSW,204,0.0,0.0,92,0.00,,---,0.10,VWS V14.01,2013-06-26 02:03:00,
2013-06-25 22:04:00,72.1,69.7,30.06,South,171,1.0,2.0,92,0.00,,---,0.10,VWS V14.01,2013-06-26 02:04:00,
2013-06-25 22:05:00,72.1,69.7,30.06,South,184,3.0,3.0,92,0.00,,---,0.10,VWS V14.01,2013-06-26 02:05:00,
2013-06-25 22:06:00,72.0,69.6,30.06,ESE,109,1.0,3.0,92,0.00,,---,0.10,VWS V14.01,2013-06-26 02:06:00,
2013-06-25 22:07:00,72.0,69.6,30.06,ESE,109,1.0,1.0,92,0.00,,---,0.10,VWS V14.01,2013-06-26 02:07:00,
2013-06-25 22:08:00,72.0,69.6,30.06,ESE,109,1.0,1.0,92,0.00,,---,0.10,VWS V14.01,2013-06-26 02:08:00,
2013-06-25 22:09:00,72.0,69.6,30.06,ESE,121,1.0,1.0,92,0.00,,---,0.10,VWS V14.01,2013-06-26 02:09:00,
2013-06-25 22:10:00,72.0,69.6,30.06,SE,142,2.0,3.0,92,0.00,,---,0.10,VWS V14.01,2013-06-26 02:10:00,
2013-06-25 22:11:00,71.9,69.4,30.06,ESE,115,2.0,2.0,92,0.00,,---,0.10,VWS V14.01,2013-06-26 02:11:00,
2013-06-25 22:12:00,71.9,69.4,30.06,SE,134,2.0,3.0,92,0.00,,---,0.10,VWS V14.01,2013-06-26 02:12:00,
2013-06-25 22:13:00,71.9,69.4,30.06,SSE,157,2.0,2.0,92,0.00,,---,0.10,VWS V14.01,2013-06-26 02:13:00,
2013-06-25 22:14:00,71.9,69.4,30.06,SE,136,1.0,3.0,92,0.00,,---,0.10,VWS V14.01,2013-06-26 02:14:00,
2013-06-25 22:15:00,71.8,69.4,30.07,SE,136,1.0,1.0,92,0.00,,---,0.10,VWS V14.01,2013-06-26 02:15:00,
2013-06-25 22:16:00,71.8,69.3,30.07,SSE,167,3.0,3.0,92,0.00,,---,0.10,VWS V14.01,2013-06-26 02:16:00,
2013-06-25 22:17:00,71.8,69.4,30.07,South,182,1.0,3.0,92,0.00,,---,0.10,VWS V14.01,2013-06-26 02:17:00,
2013-06-25 22:18:00,71.8,69.4,30.07,South,184,1.0,1.0,92,0.00,,---,0.10,VWS V14.01,2013-06-26 02:18:00,
2013-06-25 22:19:00,71.8,69.4,30.06,South,183,0.0,1.0,92,0.00,,---,0.10,VWS V14.01,2013-06-26 02:19:00,
2013-06-25 22:20:00,71.8,69.4,30.06,SSE,153,1.0,1.0,92,0.00,,---,0.10,VWS V14.01,2013-06-26 02:20:00,
2013-06-25 22:21:00,71.8,69.3,30.06,SE,135,0.0,1.0,92,0.00,,---,0.10,VWS V14.01,2013-06-26 02:21:00,
2013-06-25 22:22:00,71.7,69.3,30.06,SE,143,1.0,1.0,92,0.00,,---,0.10,VWS V14.01,2013-06-26 02:22:00,
2013-06-25 22:23:00,71.7,69.3,30.06,SE,142,0.0,1.0,92,0.00,,---,0.10,VWS V14.01,2013-06-26 02:23:00,
2013-06-25 22:24:00,71.7,69.3,30.06,SE,142,0.0,0.0,92,0.00,,---,0.10,VWS V14.01,2013-06-26 02:24:00,
2013-06-25 22:25:00,71.7,69.3,30.06,SSE,165,0.0,1.0,92,0.00,,---,0.10,VWS V14.01,2013-06-26 02:25:00,
2013-06-25 22:26:00,71.7,69.3,30.06,SE,145,2.0,2.0,92,0.00,,---,0.10,VWS V14.01,2013-06-26 02:26:00,
2013-06-25 22:27:00,71.7,69.3,30.06,SSE,147,2.0,2.0,92,0.00,,---,0.10,VWS V14.01,2013-06-26 02:27:00,
2013-06-25 22:28:00,71.7,69.3,30.06,SE,135,0.0,2.0,92,0.00,,---,0.10,VWS V14.01,2013-06-26 02:28:00,
2013-06-25 22:29:00,71.7,69.3,30.06,SE,135,0.0,0.0,92,0.00,,---,0.10,VWS V14.01,2013-06-26 02:29:00,
2013-06-25 22:30:00,71.6,69.2,30.06,SSE,159,0.0,0.0,92,0.00,,---,0.10,VWS V14.01,2013-06-26 02:30:00,
2013-06-25 22:31:00,71.6,69.2,30.06,SSE,159,0.0,0.0,92,0.00,,---,0.10,VWS V14.01,2013-06-26 02:31:00,
2013-06-25 22:32:00,71.6,69.2,30.06,SSE,159,0.0,0.0,92,0.00,,---,0.10,VWS V14.01,2013-06-26 02:32:00,
2013-06-25 22:33:00,71.6,69.2,30.06,SE,133,0.0,0.0,92,0.00,,---,0.10,VWS V14.01,2013-06-26 02:33:00,
2013-06-25 22:34:00,71.6,69.2,30.06,SSW,195,0.0,0.0,92,0.00,,---,0.10,VWS V14.01,2013-06-26 02:34:00,
2013-06-25 22:35:00,71.6,69.2,30.06,SSW,195,0.0,0.0,92,0.00,,---,0.10,VWS V14.01,2013-06-26 02:35:00,
2013-06-25 22:36:00,71.6,69.2,30.07,SSE,150,0.0,0.0,92,0.00,,---,0.10,VWS V14.01,2013-06-26 02:36:00,
2013-06-25 22:37:00,71.6,69.2,30.06,SE,140,0.0,0.0,92,0.00,,---,0.10,VWS V14.01,2013-06-26 02:37:00,
2013-06-25 22:38:00,71.6,69.2,30.06,SSE,159,0.0,0.0,92,0.00,,---,0.10,VWS V14.01,2013-06-26 02:38:00,
2013-06-25 22:39:00,71.6,69.5,30.06,SSE,159,0.0,0.0,93,0.00,,---,0.10,VWS V14.01,2013-06-26 02:39:00,
2013-06-25 22:40:00,71.6,69.2,30.06,SW,232,1.0,1.0,92,0.00,,---,0.10,VWS V14.01,2013-06-26 02:40:00,
2013-06-25 22:41:00,71.6,69.5,30.06,SW,225,0.0,2.0,93,0.00,,---,0.10,VWS V14.01,2013-06-26 02:41:00,
2013-06-25 22:42:00,71.6,69.2,30.06,SW,225,0.0,1.0,92,0.00,,---,0.10,VWS V14.01,2013-06-26 02:42:00,
2013-06-25 22:43:00,71.6,69.2,30.06,South,184,2.0,2.0,92,0.00,,---,0.10,VWS V14.01,2013-06-26 02:43:00,
2013-06-25 22:44:00,71.6,69.5,30.06,SW,218,1.0,2.0,93,0.00,,---,0.10,VWS V14.01,2013-06-26 02:44:00,
2013-06-25 22:45:00,71.6,69.5,30.06,SW,222,1.0,1.0,93,0.00,,---,0.10,VWS V14.01,2013-06-26 02:45:00,
2013-06-25 22:46:00,71.5,69.4,30.06,SW,223,1.0,1.0,93,0.00,,---,0.10,VWS V14.01,2013-06-26 02:46:00,
2013-06-25 22:47:00,71.6,69.5,30.06,SW,222,0.0,1.0,93,0.00,,---,0.10,VWS V14.01,2013-06-26 02:47:00,
2013-06-25 22:48:00,71.5,69.4,30.06,SW,236,2.0,2.0,93,0.00,,---,0.10,VWS V14.01,2013-06-26 02:48:00,
2013-06-25 22:49:00,71.5,69.4,30.06,SW,226,0.0,2.0,93,0.00,,---,0.10,VWS V14.01,2013-06-26 02:49:00,
2013-06-25 22:50:00,71.5,69.4,30.06,SW,227,1.0,1.0,93,0.00,,---,0.10,VWS V14.01,2013-06-26 02:50:00,
2013-06-25 22:51:00,71.5,69.4,30.06,SW,226,0.0,1.0,93,0.00,,---,0.10,VWS V14.01,2013-06-26 02:51:00,
2013-06-25 22:52:00,71.5,69.4,30.07,SW,230,1.0,1.0,93,0.00,,---,0.10,VWS V14.01,2013-06-26 02:52:00,
2013-06-25 22:53:00,71.5,69.4,30.07,West,263,1.0,1.0,93,0.00,,---,0.10,VWS V14.01,2013-06-26 02:53:00,
2013-06-25 22:54:00,71.5,69.4,30.07,West,263,0.0,1.0,93,0.00,,---,0.10,VWS V14.01,2013-06-26 02:54:00,
2013-06-25 22:55:00,71.5,69.4,30.07,WSW,238,3.0,4.0,93,0.00,,---,0.10,VWS V14.01,2013-06-26 02:55:00,
2013-06-25 22:56:00,71.5,69.4,30.07,SW,232,2.0,3.0,93,0.00,,---,0.10,VWS V14.01,2013-06-26 02:56:00,
2013-06-25 22:57:00,71.4,69.3,30.07,West,261,0.0,2.0,93,0.00,,---,0.10,VWS V14.01,2013-06-26 02:57:00,
2013-06-25 22:58:00,71.4,69.3,30.07,SW,227,1.0,3.0,93,0.00,,---,0.10,VWS V14.01,2013-06-26 02:58:00,
2013-06-25 22:59:00,71.4,69.3,30.07,WSW,240,0.0,1.0,93,0.00,,---,0.10,VWS V14.01,2013-06-26 02:59:00,
2013-06-25 23:00:00,71.4,69.3,30.07,WSW,240,0.0,0.0,93,0.00,,---,0.10,VWS V14.01,2013-06-26 03:00:00,
2013-06-25 23:01:00,71.4,69.3,30.07,WSW,257,0.0,0.0,93,0.00,,---,0.10,VWS V14.01,2013-06-26 03:01:00,
2013-06-25 23:02:00,71.4,69.3,30.07,SW,233,1.0,1.0,93,0.00,,---,0.10,VWS V14.01,2013-06-26 03:02:00,
2013-06-25 23:03:00,71.4,69.3,30.07,WSW,248,1.0,2.0,93,0.00,,---,0.10,VWS V14.01,2013-06-26 03:03:00,
2013-06-25 23:04:00,71.4,69.3,30.07,SW,225,1.0,2.0,93,0.00,,---,0.10,VWS V14.01,2013-06-26 03:04:00,
2013-06-25 23:05:00,71.3,69.2,30.07,SW,225,2.0,2.0,93,0.00,,---,0.10,VWS V14.01,2013-06-26 03:05:00,
2013-06-25 23:06:00,71.3,69.2,30.07,West,270,1.0,2.0,93,0.00,,---,0.10,VWS V14.01,2013-06-26 03:06:00,
2013-06-25 23:07:00,71.3,69.2,30.07,West,270,1.0,1.0,93,0.00,,---,0.10,VWS V14.01,2013-06-26 03:07:00,
2013-06-25 23:08:00,71.3,69.2,30.07,West,270,1.0,3.0,93,0.00,,---,0.10,VWS V14.01,2013-06-26 03:08:00,
2013-06-25 23:09:00,71.3,69.2,30.07,SSW,202,2.0,4.0,93,0.00,,---,0.10,VWS V14.01,2013-06-26 03:09:00,
2013-06-25 23:10:00,71.3,69.2,30.07,SSW,202,1.0,2.0,93,0.00,,---,0.10,VWS V14.01,2013-06-26 03:10:00,
2013-06-25 23:11:00,71.3,69.2,30.07,SW,225,1.0,2.0,93,0.00,,---,0.10,VWS V14.01,2013-06-26 03:11:00,
2013-06-25 23:12:00,71.2,69.1,30.07,SW,225,1.0,2.0,93,0.00,,---,0.10,VWS V14.01,2013-06-26 03:12:00,
2013-06-25 23:13:00,71.2,69.1,30.07,WSW,248,1.0,2.0,93,0.00,,---,0.10,VWS V14.01,2013-06-26 03:13:00,
2013-06-25 23:14:00,71.2,69.4,30.07,SW,225,3.0,4.0,94,0.00,,---,0.10,VWS V14.01,2013-06-26 03:14:00,
2013-06-25 23:15:00,71.2,69.4,30.07,SSW,202,2.0,2.0,94,0.00,,---,0.10,VWS V14.01,2013-06-26 03:15:00,
2013-06-25 23:16:00,71.2,69.4,30.07,SSW,202,0.0,0.0,94,0.00,,---,0.10,VWS V14.01,2013-06-26 03:16:00,
2013-06-25 23:17:00,71.2,69.4,30.07,SSW,202,0.0,1.0,94,0.00,,---,0.10,VWS V14.01,2013-06-26 03:17:00,
2013-06-25 23:18:00,71.2,69.4,30.07,SSW,202,0.0,1.0,94,0.00,,---,0.10,VWS V14.01,2013-06-26 03:18:00,
2013-06-25 23:19:00,71.2,69.4,30.07,SW,225,1.0,3.0,94,0.00,,---,0.10,VWS V14.01,2013-06-26 03:19:00,
2013-06-25 23:20:00,71.2,69.4,30.07,SW,225,1.0,1.0,94,0.00,,---,0.10,VWS V14.01,2013-06-26 03:20:00,
2013-06-25 23:21:00,71.2,69.4,30.07,South,180,1.0,2.0,94,0.00,,---,0.10,VWS V14.01,2013-06-26 03:21:00,
2013-06-25 23:22:00,71.2,69.4,30.07,SSW,202,2.0,3.0,94,0.00,,---,0.10,VWS V14.01,2013-06-26 03:22:00,
2013-06-25 23:23:00,71.2,69.4,30.07,SSW,202,1.0,2.0,94,0.00,,---,0.10,VWS V14.01,2013-06-26 03:23:00,
2013-06-25 23:24:00,71.1,69.3,30.07,SSW,202,0.0,1.0,94,0.00,,---,0.10,VWS V14.01,2013-06-26 03:24:00,
2013-06-25 23:25:00,71.2,69.4,30.07,WSW,248,1.0,1.0,94,0.00,,---,0.10,VWS V14.01,2013-06-26 03:25:00,
2013-06-25 23:26:00,71.2,69.4,30.07,WSW,248,1.0,2.0,94,0.00,,---,0.10,VWS V14.01,2013-06-26 03:26:00,
2013-06-25 23:27:00,71.2,69.4,30.07,SW,225,2.0,3.0,94,0.00,,---,0.10,VWS V14.01,2013-06-26 03:27:00,
2013-06-25 23:28:00,71.1,69.3,30.07,SW,225,1.0,1.0,94,0.00,,---,0.10,VWS V14.01,2013-06-26 03:28:00,
2013-06-25 23:29:00,71.2,69.4,30.07,SW,225,1.0,1.0,94,0.00,,---,0.10,VWS V14.01,2013-06-26 03:29:00,
2013-06-25 23:30:00,71.1,69.3,30.07,SW,225,1.0,3.0,94,0.00,,---,0.10,VWS V14.01,2013-06-26 03:30:00,
2013-06-25 23:31:00,71.2,69.4,30.07,SSW,202,1.0,3.0,94,0.00,,---,0.10,VWS V14.01,2013-06-26 03:31:00,
2013-06-25 23:32:00,71.1,69.3,30.07,SSW,202,0.0,1.0,94,0.00,,---,0.10,VWS V14.01,2013-06-26 03:32:00,
2013-06-25 23:33:00,71.2,69.4,30.07,SW,225,1.0,2.0,94,0.00,,---,0.10,VWS V14.01,2013-06-26 03:33:00,
2013-06-25 23:34:00,71.1,69.3,30.07,SW,225,1.0,1.0,94,0.00,,---,0.10,VWS V14.01,2013-06-26 03:34:00,
2013-06-25 23:35:00,71.1,69.3,30.07,SW,225,2.0,3.0,94,0.00,,---,0.10,VWS V14.01,2013-06-26 03:35:00,
2013-06-25 23:36:00,71.1,69.3,30.07,SW,225,1.0,2.0,94,0.00,,---,0.10,VWS V14.01,2013-06-26 03:36:00,
2013-06-25 23:37:00,71.1,69.3,30.07,SSW,202,0.0,1.0,94,0.00,,---,0.10,VWS V14.01,2013-06-26 03:37:00,
2013-06-25 23:38:00,71.1,69.3,30.07,WSW,248,1.0,3.0,94,0.00,,---,0.10,VWS V14.01,2013-06-26 03:38:00,
2013-06-25 23:39:00,71.1,69.3,30.07,SW,225,1.0,2.0,94,0.00,,---,0.10,VWS V14.01,2013-06-26 03:39:00,
2013-06-25 23:40:00,71.1,69.3,30.07,SW,225,1.0,1.0,94,0.00,,---,0.10,VWS V14.01,2013-06-26 03:40:00,
2013-06-25 23:41:00,71.1,69.3,30.07,SW,225,0.0,2.0,94,0.00,,---,0.10,VWS V14.01,2013-06-26 03:41:00,
2013-06-25 23:42:00,71.1,69.3,30.07,WSW,248,1.0,2.0,94,0.00,,---,0.10,VWS V14.01,2013-06-26 03:42:00,
2013-06-25 23:43:00,71.1,69.3,30.07,WSW,248,0.0,1.0,94,0.00,,---,0.10,VWS V14.01,2013-06-26 03:43:00,
2013-06-25 23:44:00,71.1,69.3,30.07,South,180,0.0,1.0,94,0.00,,---,0.10,VWS V14.01,2013-06-26 03:44:00,
2013-06-25 23:45:00,71.1,69.3,30.07,SW,225,1.0,2.0,94,0.00,,---,0.10,VWS V14.01,2013-06-26 03:45:00,
2013-06-25 23:46:00,71.1,69.3,30.07,WSW,248,1.0,1.0,94,0.00,,---,0.10,VWS V14.01,2013-06-26 03:46:00,
2013-06-25 23:47:00,71.1,69.3,30.07,WSW,248,1.0,1.0,94,0.00,,---,0.10,VWS V14.01,2013-06-26 03:47:00,
2013-06-25 23:48:00,71.1,69.3,30.07,WSW,248,0.0,0.0,94,0.00,,---,0.10,VWS V14.01,2013-06-26 03:48:00,
2013-06-25 23:49:00,71.1,69.3,30.07,WSW,248,0.0,0.0,94,0.00,,---,0.10,VWS V14.01,2013-06-26 03:49:00,
2013-06-25 23:50:00,71.1,69.3,30.07,WSW,248,0.0,0.0,94,0.00,,---,0.10,VWS V14.01,2013-06-26 03:50:00,
2013-06-25 23:51:00,71.1,69.3,30.07,WSW,248,0.0,0.0,94,0.00,,---,0.10,VWS V14.01,2013-06-26 03:51:00,
2013-06-25 23:52:00,71.1,69.3,30.07,WSW,248,0.0,0.0,94,0.00,,---,0.10,VWS V14.01,2013-06-26 03:52:00,
2013-06-25 23:53:00,71.1,69.3,30.07,WSW,248,0.0,0.0,94,0.00,,---,0.10,VWS V14.01,2013-06-26 03:53:00,
2013-06-25 23:54:00,71.1,69.3,30.07,WSW,248,0.0,0.0,94,0.00,,---,0.10,VWS V14.01,2013-06-26 03:54:00,
2013-06-25 23:55:00,71.1,69.3,30.07,WSW,248,0.0,0.0,94,0.00,,---,0.10,VWS V14.01,2013-06-26 03:55:00,
2013-06-25 23:56:00,71.1,69.3,30.07,WSW,248,0.0,0.0,94,0.00,,---,0.10,VWS V14.01,2013-06-26 03:56:00,
2013-06-25 23:57:00,71.1,69.3,30.07,WSW,248,0.0,0.0,94,0.00,,---,0.10,VWS V14.01,2013-06-26 03:57:00,
2013-06-25 23:58:00,71.1,69.3,30.07,WSW,248,0.0,0.0,94,0.00,,---,0.10,VWS V14.01,2013-06-26 03:58:00,
2013-06-25 23:59:00,71.1,69.3,30.07,WSW,248,0.0,0.0,94,0.00,,---,0.10,VWS V14.01,2013-06-26 03:59:00,